[[{"header":{"parameterUnit":"m.s-1","parameterCategory":1,"la1":30.6,"la2":28.766,"lo1":-90.7593,"lo2":-88.6598,"dy":0.0162,"dx":0.0183,"nx":116,"ny":114,"refTime":"2023-10-16T18:00:00:Z","depth":0,"parameterNumber":2,"parameterNumberName":"U-component_of_WINDS"},"data":[0.0,0.0,0.0,0.0,0.0,0.0,0.0,0.0,0.0,0.0,0.0,0.0,0.0,0.0,0.0,0.0,0.0,0.0,0.0,0.0,0.0,0.0,0.0,0.0,0.0,0.0,0.0,0.0,0.0,0.0,0.0,0.0,0.0,0.0,0.0,0.0,0.0,0.0,0.0,0.0,0.0,0.0,0.0,0.0,0.0,0.0,0.0,0.0,0.0,0.0,0.0,0.0,0.0,0.0,0.0,0.0,0.0,0.0,0.0,0.0,0.0,0.0,0.0,0.0,0.0,0.0,0.0,0.0,0.0,0.0,0.0,0.0,0.0,0.0,0.0,0.0,0.0,0.0,0.0,0.0,0.0,0.0,0.0,0.0,0.0,0.0,0.0,0.0,0.0,0.0,0.0,0.0,0.0,0.0,0.0,0.0,0.0,0.0,0.0,0.0,0.0,0.0,0.0,0.0,0.0,0.0,0.0,0.0,0.0,0.0,0.0,0.0,0.0,0.0,0.0,0.0,0.0,0.0,0.0,0.0,0.0,0.0,0.0,0.0,0.0,0.0,0.0,0.0,0.0,0.0,0.0,0.0,0.0,0.0,0.0,0.0,0.0,0.0,0.0,0.0,0.0,0.0,0.0,0.0,0.0,0.0,0.0,0.0,0.0,0.0,0.0,0.0,0.0,0.0,0.0,0.0,0.0,0.0,0.0,0.0,0.0,0.0,0.0,0.0,0.0,0.0,0.0,0.0,0.0,0.0,0.0,0.0,0.0,0.0,0.0,0.0,0.0,0.0,0.0,0.0,0.0,0.0,0.0,0.0,0.0,0.0,0.0,0.0,0.0,0.0,0.0,0.0,0.0,0.0,0.0,0.0,0.0,0.0,0.0,0.0,0.0,0.0,0.0,0.0,0.0,0.0,0.0,0.0,0.0,0.0,0.0,0.0,0.0,0.0,0.0,0.0,0.0,0.0,0.0,0.0,0.0,0.0,0.0,0.0,0.0,0.0,0.0,0.0,0.0,0.0,0.0,0.0,0.0,0.0,0.0,0.0,0.0,0.0,0.0,0.0,0.0,0.0,0.0,0.0,0.0,0.0,0.0,0.0,0.0,0.0,0.0,0.0,0.0,0.0,0.0,0.0,0.0,0.0,0.0,0.0,0.0,0.0,0.0,0.0,0.0,0.0,0.0,0.0,0.0,0.0,0.0,0.0,0.0,0.0,0.0,0.0,0.0,0.0,0.0,0.0,0.0,0.0,0.0,0.0,0.0,0.0,0.0,0.0,0.0,0.0,0.0,0.0,0.0,0.0,0.0,0.0,0.0,0.0,0.0,0.0,0.0,0.0,0.0,0.0,0.0,0.0,0.0,0.0,0.0,0.0,0.0,0.0,0.0,0.0,0.0,0.0,0.0,0.0,0.0,0.0,0.0,0.0,0.0,0.0,0.0,0.0,0.0,0.0,0.0,0.0,0.0,0.0,0.0,0.0,0.0,0.0,0.0,0.0,0.0,0.0,0.0,0.0,0.0,0.0,0.0,0.0,0.0,0.0,0.0,0.0,0.0,0.0,0.0,0.0,0.0,0.0,0.0,0.0,0.0,0.0,0.0,0.0,0.0,0.0,0.0,0.0,0.0,0.0,0.0,0.0,0.0,0.0,0.0,0.0,0.0,0.0,0.0,0.0,0.0,0.0,0.0,0.0,0.0,0.0,0.0,0.0,0.0,0.0,0.0,0.0,0.0,0.0,0.0,0.0,0.0,0.0,0.0,0.0,0.0,0.0,0.0,0.0,0.0,0.0,0.0,0.0,0.0,0.0,0.0,0.0,0.0,0.0,0.0,0.0,0.0,0.0,0.0,0.0,0.0,0.0,0.0,0.0,0.0,0.0,0.0,0.0,0.0,0.0,0.0,0.0,0.0,0.0,0.0,0.0,0.0,0.0,0.0,0.0,0.0,0.0,0.0,0.0,0.0,0.0,0.0,0.0,0.0,0.0,0.0,0.0,0.0,0.0,0.0,0.0,0.0,0.0,0.0,0.0,0.0,0.0,0.0,0.0,0.0,0.0,0.0,0.0,0.0,0.0,0.0,0.0,0.0,0.0,0.0,0.0,0.0,0.0,0.0,0.0,0.0,0.0,0.0,0.0,0.0,0.0,0.0,0.0,0.0,0.0,0.0,0.0,0.0,0.0,0.0,0.0,0.0,0.0,0.0,0.0,0.0,0.0,0.0,0.0,0.0,0.0,0.0,0.0,0.0,0.0,0.0,0.0,0.0,0.0,0.0,0.0,0.0,0.0,0.0,0.0,0.0,0.0,0.0,0.0,0.0,0.0,0.0,0.0,0.0,0.0,0.0,0.0,0.0,0.0,0.0,0.0,0.0,0.0,0.0,0.0,0.0,0.0,0.0,0.0,0.0,0.0,0.0,0.0,0.0,0.0,0.0,0.0,0.0,0.0,0.0,0.0,0.0,0.0,0.0,0.0,0.0,0.0,0.0,0.0,0.0,0.0,0.0,0.0,0.0,0.0,0.0,0.0,0.0,0.0,0.0,0.0,0.0,0.0,0.0,0.0,0.0,0.0,0.0,0.0,0.0,0.0,0.0,0.0,0.0,0.0,0.0,0.0,0.0,0.0,0.0,0.0,0.0,0.0,0.0,0.0,0.0,0.0,0.0,0.0,0.0,0.0,0.0,0.0,0.0,0.0,0.0,0.0,0.0,0.0,0.0,0.0,0.0,0.0,0.0,0.0,0.0,0.0,0.0,0.0,0.0,0.0,0.0,0.0,0.0,0.0,0.0,0.0,0.0,0.0,0.0,0.0,0.0,0.0,0.0,0.0,0.0,0.0,0.0,0.0,0.0,0.0,0.0,0.0,0.0,0.0,0.0,0.0,0.0,0.0,0.0,0.0,0.0,0.0,0.0,0.0,0.0,0.0,0.0,0.0,0.0,0.0,0.0,0.0,0.0,0.0,0.0,0.0,0.0,0.0,0.0,0.0,0.0,0.0,0.0,0.0,0.0,0.0,0.0,0.0,0.0,0.0,0.0,0.0,0.0,0.0,0.0,0.0,0.0,0.0,0.0,0.0,0.0,0.0,0.0,0.0,0.0,0.0,0.0,0.0,0.0,0.0,0.0,0.0,0.0,0.0,0.0,0.0,0.0,0.0,0.0,0.0,0.0,0.0,0.0,0.0,0.0,0.0,0.0,0.0,0.0,0.0,0.0,0.0,0.0,0.0,0.0,0.0,0.0,0.0,0.0,0.0,0.0,0.0,0.0,0.0,0.0,0.0,0.0,0.0,0.0,0.0,0.0,0.0,0.0,0.0,0.0,0.0,0.0,0.0,0.0,0.0,0.0,0.0,0.0,0.0,0.0,0.0,0.0,0.0,0.0,0.0,0.0,0.0,0.0,0.0,0.0,0.0,0.0,0.0,0.0,0.0,0.0,0.0,0.0,0.0,0.0,0.0,0.0,0.0,0.0,0.0,0.0,0.0,0.0,0.0,0.0,0.0,0.0,0.0,0.0,0.0,0.0,0.0,0.0,0.0,0.0,0.0,0.0,0.0,0.0,0.0,0.0,0.0,0.0,0.0,0.0,0.0,0.0,0.0,0.0,0.0,0.0,0.0,0.0,0.0,0.0,0.0,0.0,0.0,0.0,0.0,0.0,0.0,0.0,0.0,0.0,0.0,0.0,0.0,0.0,0.0,0.0,0.0,0.0,0.0,0.0,0.0,0.0,0.0,0.0,0.0,0.0,0.0,0.0,0.0,0.0,0.0,0.0,0.0,0.0,0.0,0.0,0.0,0.0,0.0,0.0,0.0,0.0,0.0,0.0,0.0,0.0,0.0,0.0,0.0,0.0,0.0,0.0,0.0,0.0,0.0,0.0,0.0,0.0,0.0,0.0,0.0,0.0,0.0,0.0,0.0,0.0,0.0,0.0,0.0,0.0,0.0,0.0,0.0,0.0,0.0,0.0,0.0,0.0,0.0,0.0,0.0,0.0,0.0,0.0,0.0,0.0,0.0,0.0,0.0,0.0,0.0,0.0,0.0,0.0,0.0,0.0,0.0,0.0,0.0,0.0,0.0,0.0,0.0,0.0,0.0,0.0,0.0,0.0,0.0,0.0,0.0,0.0,0.0,0.0,0.0,0.0,0.0,0.0,0.0,0.0,0.0,0.0,0.0,0.0,0.0,0.0,0.0,0.0,0.0,0.0,0.0,0.0,0.0,0.0,0.0,0.0,0.0,0.0,0.0,0.0,0.0,0.0,0.0,0.0,0.0,0.0,0.0,0.0,0.0,0.0,0.0,0.0,0.0,0.0,0.0,0.0,0.0,0.0,0.0,0.0,0.0,0.0,0.0,0.0,0.0,0.0,0.0,0.0,0.0,0.0,0.0,0.0,0.0,0.0,0.0,0.0,0.0,0.0,0.0,0.0,0.0,0.0,0.0,0.0,0.0,0.0,0.0,0.0,0.0,0.0,0.0,0.0,0.0,0.0,0.0,0.0,0.0,0.0,0.0,0.0,0.0,0.0,0.0,0.0,0.0,0.0,0.0,0.0,0.0,0.0,0.0,0.0,0.0,0.0,0.0,0.0,0.0,0.0,0.0,0.0,0.0,0.0,0.0,0.0,0.0,0.0,0.0,0.0,0.0,0.0,0.0,0.0,0.0,0.0,0.0,0.0,0.0,0.0,0.0,0.0,0.0,0.0,0.0,0.0,0.0,0.0,0.0,0.0,0.0,0.0,0.0,0.0,0.0,0.0,0.0,0.0,0.0,0.0,0.0,0.0,0.0,0.0,0.0,0.0,0.0,0.0,0.0,0.0,0.0,0.0,0.0,0.0,0.0,0.0,0.0,0.0,0.0,0.0,0.0,0.0,0.0,0.0,0.0,0.0,0.0,0.0,0.0,0.0,0.0,0.0,0.0,0.0,0.0,0.0,0.0,0.0,0.0,0.0,0.0,0.0,0.0,0.0,0.0,0.0,0.0,0.0,0.0,0.0,0.0,0.0,0.0,0.0,0.0,0.0,0.0,0.0,0.0,0.0,0.0,0.0,0.0,0.0,0.0,0.0,0.0,0.0,0.0,0.0,0.0,0.0,0.0,0.0,0.0,0.0,0.0,0.0,0.0,0.0,0.0,0.0,0.0,0.0,0.0,0.0,0.0,0.0,0.0,0.0,0.0,0.0,0.0,0.0,0.0,0.0,0.0,0.0,0.0,0.0,0.0,0.0,0.0,0.0,0.0,0.0,0.0,0.0,0.0,0.0,0.0,0.0,0.0,0.0,0.0,0.0,0.0,0.0,0.0,0.0,0.0,0.0,0.0,0.0,0.0,0.0,0.0,0.0,0.0,0.0,0.0,0.0,0.0,0.0,0.0,0.0,0.0,0.0,0.0,0.0,0.0,0.0,0.0,0.0,0.0,0.0,0.0,0.0,0.0,0.0,0.0,0.0,0.0,0.0,0.0,0.0,0.0,0.0,0.0,0.0,0.0,0.0,0.0,0.0,0.0,0.0,0.0,0.0,0.0,0.0,0.0,0.0,0.0,0.0,0.0,0.0,0.0,0.0,0.0,0.0,0.0,0.0,0.0,0.0,0.0,0.0,0.0,0.0,0.0,0.0,0.0,0.0,0.0,0.0,0.0,0.0,0.0,0.0,0.0,0.0,0.0,0.0,0.0,0.0,0.0,0.0,0.0,0.0,0.0,0.0,0.0,0.0,0.0,0.0,0.0,0.0,0.0,0.0,0.0,0.0,0.0,0.0,0.0,0.0,0.0,0.0,0.0,0.0,0.0,0.0,0.0,0.0,0.0,0.0,0.0,0.0,0.0,0.0,0.0,0.0,0.0,0.0,0.0,0.0,0.0,0.0,0.0,0.0,0.0,0.0,0.0,0.0,0.0,0.0,0.0,0.0,0.0,0.0,0.0,0.0,0.0,0.0,0.0,0.0,0.0,0.0,0.0,0.0,0.0,0.0,0.0,0.0,0.0,0.0,0.0,0.0,0.0,0.0,0.0,0.0,0.0,0.0,0.0,0.0,0.0,0.0,0.0,0.0,0.0,0.0,0.0,0.0,0.0,0.0,0.0,0.0,0.0,0.0,0.0,0.0,0.0,0.0,0.0,2.9101,0.0,0.0,0.0,0.0,0.0,0.0,0.0,0.0,0.0,0.0,0.0,0.0,0.0,0.0,0.0,0.0,0.0,0.0,0.0,0.0,0.0,0.0,0.0,0.0,0.0,0.0,0.0,0.0,0.0,0.0,0.0,0.0,0.0,0.0,0.0,0.0,0.0,0.0,0.0,0.0,0.0,0.0,0.0,0.0,0.0,0.0,0.0,0.0,0.0,0.0,0.0,0.0,0.0,0.0,0.0,0.0,0.0,0.0,0.0,0.0,0.0,0.0,0.0,0.0,0.0,0.0,0.0,0.0,0.0,0.0,0.0,0.0,0.0,0.0,0.0,0.0,0.0,0.0,0.0,0.0,0.0,0.0,0.0,0.0,0.0,0.0,0.0,0.0,0.0,0.0,0.0,0.0,0.0,0.0,0.0,0.0,0.0,0.0,0.0,0.0,0.0,0.0,0.0,0.0,0.0,0.0,0.0,0.0,0.0,0.0,0.0,0.0,0.0,0.0,0.0,0.0,3.1935,0.0,0.0,0.0,0.0,0.0,0.0,0.0,0.0,0.0,0.0,0.0,0.0,0.0,0.0,0.0,0.0,0.0,0.0,0.0,0.0,0.0,0.0,0.0,0.0,0.0,0.0,0.0,0.0,0.0,0.0,0.0,0.0,0.0,0.0,0.0,0.0,0.0,0.0,0.0,0.0,0.0,0.0,0.0,0.0,0.0,0.0,0.0,0.0,0.0,0.0,0.0,0.0,0.0,0.0,0.0,0.0,0.0,0.0,0.0,0.0,0.0,0.0,0.0,0.0,0.0,0.0,0.0,0.0,0.0,0.0,0.0,0.0,0.0,0.0,0.0,0.0,0.0,0.0,0.0,0.0,0.0,0.0,0.0,0.0,0.0,0.0,0.0,0.0,0.0,0.0,0.0,0.0,0.0,0.0,0.0,0.0,0.0,0.0,0.0,0.0,0.0,0.0,0.0,0.0,0.0,0.0,0.0,0.0,4.5224,4.7204,4.9301,4.9378,4.8678,4.7169,4.25,3.9669,3.8295,3.647,0.0,0.0,0.0,0.0,0.0,0.0,0.0,0.0,0.0,0.0,0.0,0.0,0.0,0.0,0.0,0.0,0.0,0.0,0.0,0.0,0.0,0.0,0.0,0.0,0.0,0.0,0.0,0.0,0.0,0.0,0.0,0.0,0.0,0.0,0.0,0.0,0.0,0.0,0.0,0.0,0.0,0.0,0.0,0.0,0.0,0.0,0.0,0.0,0.0,0.0,0.0,0.0,0.0,0.0,0.0,0.0,0.0,0.0,0.0,0.0,0.0,0.0,0.0,0.0,0.0,0.0,0.0,0.0,0.0,0.0,0.0,0.0,0.0,0.0,0.0,0.0,0.0,0.0,0.0,0.0,0.0,0.0,0.0,0.0,0.0,0.0,2.6995,2.8938,0.0,0.0,0.0,0.0,0.0,0.0,0.0,0.0,0.0,0.0,0.0,0.0,0.0,4.2268,4.3906,4.7309,4.9182,4.9661,5.1275,5.227,5.2564,5.2564,5.2863,5.3225,5.2491,0.0,4.1576,3.9166,0.0,0.0,0.0,0.0,0.0,0.0,0.0,0.0,0.0,0.0,0.0,0.0,0.0,0.0,0.0,0.0,0.0,0.0,0.0,0.0,0.0,0.0,0.0,0.0,0.0,0.0,0.0,0.0,0.0,0.0,0.0,0.0,0.0,0.0,0.0,0.0,0.0,0.0,0.0,0.0,0.0,0.0,0.0,0.0,0.0,0.0,0.0,0.0,0.0,0.0,0.0,0.0,0.0,0.0,0.0,0.0,0.0,0.0,0.0,0.0,0.0,0.0,0.0,0.0,0.0,0.0,0.0,0.0,0.0,0.0,0.0,0.0,0.0,0.0,0.0,0.0,0.0,0.0,0.0,0.0,0.0,0.0,0.0,0.0,0.0,2.8237,3.2611,3.2573,3.4045,3.4243,0.0,0.0,0.0,0.0,0.0,0.0,0.0,0.0,0.0,4.285,4.5804,4.8367,5.0533,5.2962,5.484,5.6198,5.7373,5.818,5.8621,5.8621,5.8804,5.9134,5.9134,5.6345,5.1503,4.7242,4.426,4.1915,0.0,0.0,0.0,0.0,3.1909,3.314,0.0,0.0,0.0,0.0,0.0,0.0,0.0,0.0,0.0,0.0,0.0,0.0,0.0,0.0,0.0,0.0,0.0,0.0,0.0,0.0,0.0,0.0,0.0,0.0,0.0,0.0,0.0,0.0,0.0,0.0,0.0,0.0,0.0,0.0,0.0,0.0,0.0,0.0,0.0,0.0,0.0,0.0,0.0,0.0,0.0,0.0,0.0,0.0,0.0,0.0,0.0,0.0,0.0,0.0,0.0,0.0,0.0,0.0,0.0,0.0,0.0,0.0,0.0,0.0,0.0,0.0,0.0,0.0,0.0,0.0,0.0,0.0,0.0,0.0,0.0,0.0,0.0,3.2337,3.7047,3.5824,3.8846,3.9938,0.0,0.0,0.0,0.0,0.0,0.0,4.1142,4.3615,4.6387,4.9574,5.1784,5.4216,5.6859,5.807,5.9795,6.1961,6.2585,6.3282,6.4053,6.3833,6.3759,6.3759,6.3539,6.2328,6.0015,5.4191,4.982,4.643,4.2861,4.0578,3.8988,3.7272,3.7537,3.8977,0.0,0.0,0.0,0.0,0.0,0.0,0.0,0.0,0.0,0.0,0.0,0.0,0.0,0.0,0.0,0.0,0.0,0.0,0.0,0.0,0.0,0.0,0.0,0.0,0.0,0.0,0.0,0.0,0.0,0.0,0.0,0.0,0.0,0.0,0.0,0.0,0.0,0.0,0.0,0.0,0.0,0.0,0.0,0.0,0.0,0.0,0.0,0.0,0.0,0.0,0.0,0.0,0.0,0.0,0.0,0.0,0.0,0.0,0.0,0.0,0.0,0.0,0.0,0.0,0.0,0.0,0.0,0.0,0.0,0.0,0.0,0.0,0.0,0.0,0.0,0.0,0.0,0.0,0.0,3.8392,4.2448,0.0,0.0,0.0,0.0,4.1565,4.4528,4.7423,5.011,5.2495,5.4913,5.7373,5.8327,6.0346,6.3576,6.3686,6.4567,6.6182,6.6219,6.6659,6.743,6.6659,6.6292,6.6256,6.5521,6.4677,6.3356,5.6895,5.3272,5.1408,4.7388,4.6244,4.6614,4.4955,4.4812,4.5333,0.0,0.0,0.0,0.0,0.0,0.0,0.0,0.0,0.0,0.0,0.0,0.0,0.0,0.0,0.0,0.0,0.0,0.0,0.0,0.0,0.0,0.0,0.0,0.0,0.0,0.0,0.0,0.0,0.0,0.0,0.0,0.0,0.0,0.0,0.0,0.0,0.0,0.0,0.0,0.0,0.0,0.0,0.0,0.0,0.0,0.0,0.0,0.0,0.0,0.0,0.0,0.0,0.0,0.0,0.0,0.0,0.0,0.0,0.0,0.0,0.0,0.0,0.0,0.0,0.0,0.0,0.0,0.0,0.0,0.0,0.0,0.0,0.0,0.0,0.0,0.0,0.0,0.0,0.0,4.544,4.9756,0.0,4.8748,4.7348,4.7163,4.8491,5.0545,5.2858,5.5324,5.7703,6.0162,6.2622,6.3503,6.4971,6.7173,6.7173,6.7724,6.8825,6.8825,6.8972,6.9229,6.8935,6.8531,6.8017,6.776,6.688,6.5411,6.2585,5.9255,5.5625,5.261,5.0993,5.022,4.9118,4.9152,4.9774,0.0,0.0,0.0,0.0,0.0,0.0,0.0,0.0,0.0,0.0,0.0,0.0,0.0,0.0,0.0,0.0,0.0,0.0,0.0,0.0,0.0,0.0,0.0,0.0,0.0,0.0,0.0,0.0,0.0,0.0,0.0,0.0,0.0,0.0,0.0,0.0,0.0,0.0,0.0,0.0,0.0,0.0,3.8346,0.0,0.0,0.0,0.0,0.0,0.0,0.0,0.0,0.0,0.0,0.0,0.0,0.0,0.0,0.0,0.0,0.0,0.0,0.0,0.0,0.0,0.0,0.0,0.0,0.0,0.0,0.0,0.0,0.0,0.0,0.0,0.0,0.0,0.0,0.0,5.069,5.0514,5.5544,5.8186,5.5963,5.4538,5.4317,5.5625,5.694,5.8621,6.075,6.2622,6.453,6.6476,6.7026,6.8201,7.011,6.9853,7.0403,7.1725,7.1174,7.1064,7.1284,7.0734,7.0349,7.0011,6.9522,6.884,6.7945,6.6654,6.4053,6.0566,5.7593,5.5611,5.4289,5.3225,5.3151,5.3592,0.0,0.0,0.0,0.0,0.0,0.0,0.0,0.0,0.0,0.0,0.0,0.0,0.0,0.0,0.0,0.0,0.0,0.0,0.0,0.0,0.0,0.0,0.0,0.0,0.0,0.0,0.0,0.0,0.0,0.0,0.0,0.0,0.0,0.0,0.0,0.0,0.0,0.0,0.0,0.0,0.0,0.0,4.3771,0.0,0.0,0.0,0.0,0.0,0.0,0.0,0.0,0.0,0.0,0.0,0.0,0.0,0.0,0.0,0.0,0.0,0.0,0.0,0.0,0.0,0.0,0.0,0.0,0.0,0.0,0.0,0.0,0.0,0.0,0.0,0.0,0.0,3.9805,4.8093,5.407,5.3456,5.9566,6.3089,6.1098,6.0512,6.1001,6.2818,6.3759,6.4934,6.6476,6.7393,6.8238,6.9009,6.9082,7.022,7.2569,7.1798,7.2606,7.4882,7.3361,7.3031,7.3729,7.2186,7.1726,7.2162,7.0823,7.0523,7.0858,6.8683,6.73,6.6198,6.2071,5.9979,5.9098,5.7483,5.6859,5.6712,0.0,0.0,0.0,0.0,0.0,0.0,0.0,0.0,0.0,0.0,0.0,0.0,0.0,0.0,0.0,0.0,0.0,0.0,0.0,0.0,0.0,0.0,0.0,0.0,0.0,0.0,0.0,0.0,0.0,0.0,0.0,0.0,0.0,0.0,0.0,0.0,0.0,0.0,0.0,0.0,0.0,0.0,4.6455,0.0,0.0,0.0,0.0,0.0,0.0,0.0,0.0,0.0,0.0,0.0,0.0,0.0,0.0,0.0,0.0,0.0,0.0,0.0,0.0,0.0,0.0,0.0,0.0,0.0,0.0,0.0,0.0,0.0,0.0,0.0,0.0,4.8075,4.7597,5.3976,5.9491,6.1655,6.5615,6.7878,6.7327,6.6611,6.6387,6.6908,6.7893,6.8385,6.8238,7.066,7.1872,7.1541,7.2642,7.3597,7.4258,7.4497,7.4954,7.5622,7.5176,7.5291,7.5941,7.5068,7.4275,7.3695,7.3334,7.2351,7.0944,7.0143,6.907,6.7592,6.3665,6.1667,6.075,5.9134,5.818,5.7556,0.0,0.0,0.0,0.0,0.0,0.0,0.0,0.0,0.0,0.0,0.0,0.0,0.0,0.0,0.0,0.0,0.0,0.0,0.0,0.0,0.0,0.0,0.0,0.0,0.0,0.0,0.0,0.0,0.0,0.0,0.0,0.0,0.0,0.0,0.0,0.0,0.0,0.0,0.0,0.0,0.0,0.0,5.3409,4.872,4.6532,4.5495,4.203,4.0807,4.0215,3.6115,0.0,0.0,0.0,0.0,0.0,0.0,0.0,0.0,0.0,0.0,0.0,0.0,0.0,0.0,0.0,0.0,0.0,0.0,0.0,0.0,0.0,0.0,0.0,0.0,5.0387,5.5045,5.7474,6.0786,6.4117,6.7308,7.0012,7.1966,7.2641,7.1852,7.1482,7.1974,7.2011,7.1965,7.1854,7.3628,7.4273,7.3523,7.4922,7.5716,7.5846,7.6103,7.6605,7.7279,7.6567,7.6658,7.7281,7.6573,7.6082,7.5694,7.5485,7.4557,7.3226,7.2444,7.1256,6.9469,0.0,0.0,0.0,0.0,5.9208,5.8447,0.0,0.0,0.0,0.0,0.0,0.0,0.0,0.0,0.0,0.0,0.0,0.0,0.0,0.0,0.0,0.0,0.0,0.0,0.0,0.0,0.0,0.0,0.0,0.0,0.0,0.0,0.0,0.0,0.0,0.0,0.0,0.0,0.0,0.0,0.0,0.0,0.0,0.0,0.0,0.0,0.0,0.0,6.1858,5.7082,5.5561,5.5522,5.206,4.9084,4.6359,4.3464,0.0,0.0,0.0,0.0,0.0,0.0,0.0,0.0,0.0,0.0,0.0,0.0,0.0,0.0,0.0,0.0,0.0,0.0,0.0,0.0,0.0,0.0,0.0,0.0,5.6859,6.2144,6.7479,6.7789,6.8504,7.1093,7.3304,7.5167,7.6727,7.6007,7.5856,7.6852,7.5764,7.5333,7.5968,0.0,0.0,0.0,0.0,7.7156,7.7349,7.725,7.7899,7.9252,7.7824,7.7565,7.8328,7.7527,7.7445,7.7911,7.7369,7.6837,7.6274,7.5013,7.3329,7.1241,6.7567,6.5627,6.4501,6.1726,6.0213,5.9448,0.0,0.0,0.0,0.0,0.0,0.0,0.0,0.0,0.0,0.0,0.0,0.0,0.0,0.0,0.0,0.0,0.0,0.0,0.0,0.0,0.0,0.0,0.0,0.0,0.0,0.0,0.0,0.0,0.0,0.0,0.0,0.0,0.0,0.0,0.0,0.0,0.0,0.0,0.0,0.0,0.0,0.0,6.3858,6.1512,5.9435,5.7335,5.3913,5.3567,5.4066,4.9433,4.7722,4.6877,4.3052,0.0,0.0,0.0,0.0,0.0,0.0,0.0,0.0,0.0,0.0,0.0,0.0,0.0,0.0,0.0,0.0,0.0,0.0,0.0,0.0,5.6153,6.241,6.7821,7.0909,7.2763,7.385,7.3902,7.5286,7.6582,7.7455,7.7341,7.7303,7.7493,7.7414,7.7137,7.6609,7.7852,7.8172,7.7437,7.8276,7.8737,7.8784,7.9263,7.9624,7.9929,0.0,0.0,8.0486,7.9782,7.9474,7.939,7.9287,7.8164,7.6348,7.5863,7.3653,7.0261,6.7655,6.58,6.4331,6.3048,6.207,6.1394,0.0,0.0,0.0,0.0,0.0,0.0,0.0,0.0,0.0,0.0,0.0,0.0,0.0,0.0,0.0,0.0,0.0,0.0,0.0,0.0,0.0,0.0,0.0,0.0,0.0,0.0,0.0,0.0,0.0,0.0,0.0,0.0,0.0,0.0,0.0,0.0,0.0,0.0,0.0,0.0,0.0,0.0,7.0629,6.7628,6.4936,6.2358,5.9819,5.8357,5.7203,5.4203,5.2336,5.0758,4.8335,4.4876,4.1119,0.0,0.0,0.0,0.0,0.0,0.0,0.0,0.0,0.0,0.0,0.0,0.0,0.0,0.0,4.659,0.0,0.0,6.0376,6.4369,6.866,7.2365,7.4751,7.6082,7.679,7.6753,7.7392,7.8216,7.9309,7.9416,7.9416,7.9416,7.917,7.8845,7.847,7.9187,7.9324,7.864,7.9616,8.0007,7.9642,8.0277,8.0608,8.0608,8.0608,8.075,8.1093,8.075,8.0553,8.0439,8.0439,7.9544,7.7998,7.6579,7.4619,7.2218,6.9775,6.7531,6.5578,6.4709,6.3841,6.3122,0.0,0.0,0.0,0.0,0.0,0.0,0.0,0.0,0.0,0.0,0.0,0.0,0.0,0.0,0.0,0.0,0.0,0.0,0.0,0.0,0.0,0.0,0.0,0.0,0.0,0.0,0.0,0.0,0.0,0.0,0.0,0.0,0.0,0.0,0.0,0.0,0.0,0.0,0.0,0.0,0.0,0.0,7.74,7.3745,7.0591,6.7821,6.5628,6.2243,5.8665,5.778,5.5318,5.2549,5.1895,4.9433,4.6106,4.2427,4.013,0.0,0.0,0.0,0.0,0.0,0.0,0.0,0.0,0.0,4.5665,4.78,5.1459,5.569,6.0297,6.4144,6.7878,7.1857,7.4052,7.5948,7.7911,7.8414,7.8777,7.9246,7.9209,7.9662,8.0984,8.1093,8.1093,8.1093,8.0608,8.0315,8.0315,8.0315,8.0086,7.9556,8.0573,8.0855,8.0315,8.0855,8.1093,8.1093,8.1093,8.1093,8.1093,8.1093,8.1093,8.1093,8.0939,8.0362,7.94,7.7169,7.563,7.4476,7.2283,6.9973,6.7768,6.663,6.5644,6.4879,0.0,0.0,0.0,0.0,0.0,0.0,0.0,0.0,0.0,0.0,0.0,0.0,0.0,0.0,0.0,0.0,0.0,0.0,0.0,0.0,0.0,0.0,0.0,0.0,0.0,0.0,0.0,0.0,0.0,0.0,0.0,0.0,0.0,0.0,0.0,0.0,0.0,0.0,0.0,0.0,0.0,0.0,7.94,7.813,7.513,7.1091,6.7167,6.3512,6.0396,5.9511,5.7473,5.5241,5.5164,5.3318,5.0355,4.6013,0.0,4.155,3.7945,3.7679,3.9318,4.325,4.3902,4.5829,0.0,0.0,5.4582,5.8363,6.1856,6.4398,6.5116,6.9095,7.2687,7.393,7.6536,7.8485,7.8752,7.996,8.0773,8.0876,8.031,8.0237,8.1023,8.1093,8.1093,8.1093,8.1023,8.0991,8.0991,8.0991,8.0959,8.0888,8.1029,8.1061,8.0991,8.1061,8.1093,8.1093,8.1093,8.1093,8.1093,8.1093,8.1093,8.1054,8.0285,7.9438,7.8554,7.7553,7.6169,7.4591,7.3591,7.2534,7.1324,6.8981,6.756,6.6792,0.0,0.0,0.0,0.0,0.0,0.0,0.0,0.0,0.0,0.0,0.0,0.0,0.0,0.0,0.0,0.0,0.0,0.0,0.0,0.0,0.0,0.0,0.0,0.0,0.0,0.0,0.0,0.0,0.0,0.0,0.0,0.0,0.0,0.0,0.0,0.0,0.0,0.0,0.0,0.0,0.0,0.0,8.0362,7.8515,7.5476,7.1783,6.8487,6.4437,0.0,0.0,5.7651,5.6184,5.5835,5.3951,5.1334,4.8429,4.5992,0.0,4.1906,4.3302,0.0,0.0,5.0609,5.4078,5.9472,6.0966,6.2164,6.535,6.8679,7.1319,7.2314,7.4996,7.7294,0.0,7.973,8.0716,8.0256,8.1113,8.1054,7.9131,7.9934,8.0783,8.1061,8.1093,8.1093,8.1093,8.1093,8.1093,8.1093,8.1093,8.1093,8.1093,8.1093,8.1093,8.1093,8.1093,8.1093,8.1093,8.1093,8.1093,8.1093,8.1093,8.1093,8.1093,8.0708,8.0054,7.9208,7.8361,7.7284,7.6015,7.4207,7.3283,7.2706,7.0629,6.9321,6.8552,0.0,0.0,0.0,0.0,0.0,0.0,0.0,0.0,0.0,0.0,0.0,0.0,0.0,0.0,0.0,0.0,0.0,0.0,0.0,0.0,0.0,0.0,0.0,0.0,0.0,0.0,0.0,0.0,0.0,0.0,0.0,0.0,0.0,0.0,0.0,0.0,0.0,0.0,0.0,0.0,0.0,0.0,8.04,7.74,7.4216,7.1074,6.851,6.3782,0.0,0.0,5.6102,5.456,5.4756,5.3398,5.1398,4.9609,4.7035,4.4836,4.5127,0.0,0.0,5.2655,5.6958,6.1486,6.418,6.6423,6.8652,7.1283,7.3899,7.6207,7.7707,7.9169,8.0439,8.1285,8.19,8.2093,8.1516,8.1516,8.0631,7.7938,7.8861,7.9862,8.0323,8.0823,8.1093,8.1093,8.1093,8.1093,8.1093,8.1093,8.1093,8.1093,8.1093,8.1093,8.1093,8.1093,8.1093,8.1093,8.1093,8.1093,8.1093,8.1093,8.1093,8.1093,8.1093,8.0477,7.94,7.8746,7.7861,7.6746,7.4668,7.3822,7.363,7.1898,7.0591,6.9629,0.0,0.0,0.0,0.0,0.0,0.0,0.0,0.0,0.0,0.0,0.0,0.0,0.0,0.0,0.0,0.0,0.0,0.0,0.0,0.0,0.0,0.0,0.0,0.0,0.0,0.0,0.0,0.0,0.0,0.0,0.0,0.0,0.0,0.0,0.0,0.0,0.0,0.0,0.0,0.0,0.0,0.0,7.94,7.5207,7.1891,6.9165,6.6671,0.0,0.0,0.0,5.2527,4.9529,5.1865,5.2044,0.0,4.9327,4.6415,0.0,0.0,0.0,5.2747,5.7799,6.2375,6.6782,7.0937,7.2591,7.4014,7.6553,7.7746,7.8669,7.9554,8.0477,8.1323,8.2131,8.2285,8.2285,8.2285,8.09,7.9515,7.8592,7.7092,7.6784,0.0,8.0092,8.1093,8.1093,8.1093,8.1093,8.1093,8.1093,8.1093,8.1093,8.1093,8.1093,8.1093,8.1093,8.1093,8.1093,8.1093,8.1093,8.1093,8.1093,8.1093,8.1093,8.1093,8.0131,7.8515,7.8515,7.7515,7.5938,7.5014,7.4668,7.4476,7.2783,7.1129,6.9706,0.0,0.0,0.0,0.0,0.0,0.0,0.0,0.0,0.0,0.0,0.0,0.0,0.0,0.0,0.0,0.0,0.0,0.0,0.0,0.0,0.0,0.0,0.0,0.0,0.0,0.0,0.0,0.0,0.0,0.0,0.0,0.0,0.0,0.0,0.0,0.0,0.0,0.0,0.0,0.0,0.0,0.0,7.8515,7.4743,7.0584,6.6394,0.0,0.0,0.0,0.0,5.0354,4.8719,4.9137,0.0,0.0,4.6632,4.6948,4.834,0.0,0.0,6.024,6.4029,6.8416,7.2552,7.5668,7.7053,7.7938,7.8784,7.7823,7.6746,7.6476,7.713,7.7977,7.8823,8.1323,8.2939,8.2362,8.2824,8.14,7.6553,7.7977,0.0,0.0,0.0,0.0,8.1016,8.1093,8.1093,8.1093,8.1093,8.1093,8.1093,8.1093,8.1093,8.1093,8.1093,8.1093,8.1093,8.1093,8.1093,8.1093,8.1093,8.1093,8.1093,8.1093,8.0439,7.9323,7.8746,7.7861,7.6669,7.4668,7.3899,7.3707,7.1975,7.0975,7.0437,0.0,0.0,0.0,0.0,0.0,0.0,0.0,0.0,0.0,0.0,0.0,0.0,0.0,0.0,0.0,0.0,0.0,0.0,0.0,0.0,0.0,0.0,0.0,0.0,0.0,0.0,0.0,0.0,0.0,0.0,0.0,0.0,0.0,0.0,0.0,0.0,0.0,0.0,0.0,0.0,0.0,0.0,7.5733,7.1611,6.7361,0.0,0.0,0.0,0.0,0.0,0.0,0.0,4.6683,4.6806,4.7096,4.71,4.9429,5.2743,5.6036,6.1315,6.6765,7.0392,7.3898,7.7015,7.8977,7.9631,7.9554,7.8631,7.6639,7.4639,7.314,7.2832,7.337,7.5139,7.7476,7.9592,8.1208,8.1593,8.0439,7.6938,7.8169,7.8246,0.0,0.0,0.0,8.0516,8.1208,8.1516,8.1516,8.1516,8.1516,8.1516,8.1246,8.1093,8.1093,8.1093,8.1093,8.1093,8.1093,8.1093,8.1093,8.1093,8.1093,8.1093,8.1093,8.0439,7.9285,7.8707,7.7823,7.6669,7.5014,7.4207,7.3783,7.236,7.1629,7.1245,0.0,0.0,0.0,0.0,0.0,0.0,0.0,0.0,0.0,0.0,0.0,0.0,0.0,0.0,0.0,0.0,0.0,0.0,0.0,0.0,0.0,0.0,0.0,0.0,0.0,0.0,0.0,0.0,0.0,0.0,0.0,0.0,0.0,0.0,0.0,0.0,0.0,0.0,0.0,0.0,0.0,0.0,7.1137,6.6145,0.0,0.0,0.0,0.0,0.0,0.0,0.0,0.0,0.0,4.5797,4.7465,5.0798,5.3823,5.7454,6.4047,6.8493,7.2227,7.6438,7.8707,8.0092,8.09,8.0323,7.89,7.6322,7.4264,7.216,0.0,0.0,6.8164,7.1507,7.1755,7.3553,7.9323,7.8092,7.7438,0.0,0.0,0.0,0.0,0.0,0.0,7.9862,0.0,8.2285,8.2285,8.2285,8.2285,8.2285,8.1516,8.1093,8.1093,8.1093,8.1093,8.1093,8.1093,8.1093,8.1093,8.1093,8.1093,8.1093,8.1093,8.0092,7.8477,7.8477,7.7515,7.6015,7.5938,7.5399,7.4553,7.3745,7.2899,7.2014,0.0,0.0,0.0,0.0,0.0,0.0,0.0,0.0,0.0,0.0,0.0,0.0,0.0,0.0,0.0,0.0,0.0,0.0,0.0,0.0,0.0,0.0,0.0,0.0,0.0,0.0,0.0,0.0,0.0,0.0,0.0,0.0,0.0,0.0,0.0,0.0,0.0,0.0,0.0,0.0,0.0,0.0,6.695,0.0,0.0,0.0,0.0,0.0,0.0,0.0,0.0,0.0,0.0,5.0228,5.2666,5.6088,5.989,6.3932,6.8254,7.2899,7.713,7.9515,8.0439,8.0823,8.1054,7.8977,7.6216,7.3552,6.9644,6.5904,0.0,0.0,0.0,7.0719,7.6301,0.0,8.4093,8.4478,0.0,0.0,0.0,8.2054,8.0592,8.0977,0.0,0.0,8.2054,8.2285,8.2285,8.2285,8.2285,8.2285,8.1516,8.1093,8.1093,8.1093,8.1093,8.1093,8.1093,8.1093,8.1093,8.1093,8.1093,8.1093,8.1093,8.0092,7.8477,7.8477,7.7515,7.5938,7.5284,7.4553,7.3707,7.286,7.1975,7.1206,0.0,0.0,0.0,0.0,0.0,0.0,0.0,0.0,0.0,0.0,0.0,0.0,0.0,0.0,0.0,0.0,0.0,0.0,0.0,0.0,0.0,0.0,0.0,0.0,0.0,0.0,0.0,0.0,0.0,0.0,0.0,0.0,0.0,0.0,0.0,0.0,0.0,0.0,0.0,0.0,0.0,0.0,0.0,0.0,0.0,0.0,0.0,0.0,0.0,0.0,0.0,5.1358,5.3072,5.59,5.9345,6.31,0.0,7.0441,7.4243,7.7954,8.0977,8.1939,8.19,8.1131,7.9315,7.6754,7.3428,6.8636,6.4622,0.0,0.0,0.0,0.0,0.0,0.0,0.0,8.3362,8.4632,8.517,0.0,8.5363,0.0,8.3439,8.3708,8.3824,0.0,8.3093,8.3054,8.3439,8.3093,8.3054,8.3439,8.1939,8.1093,8.1093,8.1093,8.1093,8.1093,8.1093,8.1093,8.1093,8.1093,8.1093,8.1093,8.1093,8.0092,7.8477,7.8477,7.7515,7.5938,7.5476,7.4553,7.3437,7.2937,7.1975,7.0898,0.0,0.0,0.0,0.0,0.0,0.0,0.0,0.0,0.0,0.0,0.0,0.0,0.0,0.0,0.0,0.0,0.0,0.0,0.0,0.0,0.0,0.0,0.0,0.0,0.0,0.0,0.0,0.0,0.0,0.0,0.0,0.0,0.0,0.0,0.0,0.0,0.0,0.0,0.0,0.0,0.0,0.0,0.0,0.0,0.0,0.0,0.0,0.0,0.0,0.0,5.3913,5.5705,5.8577,6.2362,6.6628,7.086,7.3745,7.6438,8.0516,8.2747,8.3901,8.3785,8.2862,8.0893,7.6717,7.3841,7.0076,6.2951,0.0,5.7263,5.4123,5.6011,5.9251,6.2978,0.0,7.4024,8.1131,8.2593,8.4209,8.7517,8.7132,8.6594,8.6594,8.6517,8.617,8.5478,8.4478,8.4209,8.4863,8.417,8.4016,8.4555,8.2401,8.1208,8.1093,8.1093,8.1093,8.1093,8.1093,8.1093,8.1093,8.1093,8.1093,8.1093,8.1093,8.0169,7.8669,7.8554,7.7592,7.6169,7.6053,7.5053,7.3668,7.3553,7.2476,7.1052,0.0,0.0,0.0,0.0,0.0,0.0,0.0,0.0,0.0,0.0,1.8173,0.0,0.0,0.0,0.0,0.0,0.0,0.0,0.0,0.0,0.0,0.0,0.0,0.0,0.0,0.0,0.0,0.0,0.0,0.0,0.0,0.0,0.0,0.0,0.0,0.0,0.0,0.0,0.0,0.0,0.0,0.0,0.0,0.0,0.0,0.0,0.0,0.0,0.0,0.0,5.7289,6.1196,6.5306,6.9075,7.2783,7.7015,7.9092,8.0592,8.3478,8.4939,8.5517,8.4863,8.2439,7.9131,7.4917,6.9805,0.0,0.0,0.0,5.4123,5.202,5.5484,0.0,6.6192,0.0,0.0,0.0,0.0,8.7517,0.0,0.0,0.0,0.0,0.0,0.0,0.0,0.0,8.544,8.4939,8.4747,8.4093,8.2785,8.2324,8.1785,8.1093,8.1093,8.1093,8.1093,8.1093,8.1093,8.1093,8.1093,8.1093,8.1093,8.1093,0.0,7.9515,7.8784,7.7938,7.6976,7.6284,7.5399,7.4399,7.3745,7.286,7.186,0.0,0.0,0.0,0.0,0.0,0.0,0.0,0.0,0.0,0.0,1.8543,1.8878,0.0,0.0,0.0,0.0,0.0,0.0,0.0,0.0,0.0,0.0,0.0,0.0,0.0,0.0,0.0,0.0,0.0,0.0,0.0,0.0,0.0,0.0,0.0,0.0,0.0,0.0,0.0,0.0,0.0,0.0,0.0,0.0,0.0,0.0,0.0,0.0,0.0,0.0,5.6905,6.3559,6.9739,7.4332,7.813,8.1477,8.3054,8.417,8.6286,8.7478,8.7671,8.594,8.2631,7.8207,7.2168,0.0,0.0,0.0,0.0,5.1992,5.0667,0.0,0.0,0.0,0.0,0.0,0.0,0.0,0.0,0.0,0.0,0.0,0.0,0.0,0.0,0.0,0.0,8.7517,8.6286,8.5363,8.4093,8.2362,8.2285,8.19,8.1093,8.1093,8.1093,8.1093,8.1093,8.1093,8.1093,8.1093,8.1093,8.1093,8.1093,8.0362,7.9092,7.8669,7.7746,7.6592,7.6169,7.5476,7.4668,7.4284,7.3591,7.2745,0.0,0.0,0.0,0.0,0.0,0.0,0.0,1.5738,1.7322,1.8356,1.9434,1.9708,1.863,1.8362,1.8274,0.0,0.0,0.0,0.0,0.0,0.0,0.0,0.0,0.0,0.0,0.0,0.0,3.1362,0.0,0.0,0.0,0.0,0.0,0.0,0.0,0.0,0.0,0.0,0.0,0.0,0.0,0.0,0.0,0.0,0.0,0.0,0.0,0.0,0.0,0.0,5.4303,6.1611,6.9414,7.534,7.9946,8.2484,8.4214,8.5791,8.8286,8.9825,9.0056,8.7325,8.3054,7.7485,6.9778,6.4036,0.0,0.0,5.0518,5.0071,4.9532,0.0,0.0,0.0,0.0,0.0,0.0,0.0,0.0,0.0,0.0,0.0,0.0,0.0,0.0,0.0,8.9863,8.8979,8.7478,8.5824,8.4209,8.2631,8.2401,8.19,8.1093,8.1093,8.1093,8.1093,8.1093,8.1093,8.1093,8.1093,8.1093,8.1093,8.1093,8.0208,7.8746,7.8592,7.763,7.6245,7.6053,7.5592,7.4976,7.4784,7.4322,7.363,0.0,0.0,0.0,0.0,0.0,0.0,0.0,1.595,1.7509,1.9395,2.101,2.1474,2.023,1.8972,1.8197,0.0,0.0,0.0,0.0,0.0,0.0,0.0,0.0,0.0,0.0,0.0,0.0,2.7609,2.7651,0.0,0.0,0.0,0.0,0.0,0.0,3.3259,0.0,0.0,0.0,0.0,0.0,0.0,0.0,0.0,0.0,0.0,0.0,0.0,0.0,0.0,0.0,5.2361,6.0246,6.7927,7.452,7.7054,0.0,0.0,8.8444,9.1518,9.2556,8.9286,8.3478,7.6592,6.8855,0.0,0.0,5.0059,4.8403,4.792,4.8596,0.0,0.0,0.0,0.0,0.0,0.0,0.0,0.0,0.0,0.0,0.0,0.0,0.0,0.0,0.0,8.9671,8.8402,8.744,8.5824,8.4478,8.3516,8.2708,8.19,8.1093,8.1093,8.1093,8.1093,8.1093,8.1093,8.1093,8.1093,8.1093,8.1093,8.1093,8.0554,0.0,7.8823,7.7977,7.7092,7.6322,7.5938,7.5784,7.4976,7.4668,7.4361,0.0,0.0,0.0,0.0,0.0,0.0,0.0,1.5911,1.7299,1.8992,2.0811,2.1336,1.9692,1.9522,1.912,0.0,0.0,0.0,0.0,0.0,0.0,0.0,0.0,0.0,0.0,0.0,0.0,2.6003,2.6118,0.0,0.0,0.0,0.0,0.0,0.0,2.9435,2.9193,0.0,0.0,0.0,0.0,0.0,0.0,0.0,0.0,0.0,0.0,0.0,0.0,0.0,0.0,0.0,4.8715,5.4438,0.0,0.0,7.8327,8.2655,8.8367,9.2133,9.3441,8.9017,8.2047,7.4361,6.6978,0.0,5.2141,4.8694,4.7682,4.7617,4.8352,0.0,0.0,0.0,0.0,0.0,0.0,0.0,0.0,0.0,0.0,0.0,0.0,0.0,0.0,9.121,8.9633,8.8325,8.744,8.5324,8.3939,8.3593,8.2285,8.14,8.1093,8.1093,8.1093,8.1093,8.1093,8.1093,8.1093,8.1093,8.1093,8.1093,8.1093,8.0592,0.0,7.8861,7.8015,7.7207,7.6322,7.6015,7.5976,7.563,7.5476,7.5245,0.0,0.0,0.0,0.0,0.0,0.0,1.4336,1.5714,1.7221,1.894,2.0729,2.1301,1.9863,2.0082,1.9624,1.7907,0.0,0.0,0.0,0.0,0.0,0.0,0.0,0.0,0.0,0.0,0.0,0.0,0.0,2.4856,0.0,0.0,2.5577,2.5744,0.0,0.0,0.0,0.0,0.0,0.0,0.0,0.0,0.0,0.0,0.0,0.0,0.0,0.0,0.0,0.0,0.0,0.0,0.0,0.0,0.0,0.0,7.3061,7.8793,8.5109,9.0098,9.2518,8.8402,8.0823,7.264,0.0,5.7621,5.035,4.7606,4.6821,4.6845,4.7569,4.84,4.9608,0.0,0.0,5.4591,6.2319,0.0,0.0,0.0,0.0,0.0,0.0,0.0,0.0,9.121,8.9633,8.8209,8.7094,8.4824,8.3478,8.3208,8.1823,8.1093,8.1093,8.1093,8.1093,8.1093,8.1093,8.1093,8.1093,8.1093,8.1093,8.1093,8.1093,8.0592,7.9746,7.8861,7.8015,7.7207,7.6322,7.6015,7.6015,7.6015,7.6015,7.5784,0.0,0.0,0.0,0.0,0.0,0.0,0.0,1.5319,1.7423,1.9697,2.1112,2.1766,2.1421,2.0651,1.9423,1.75,0.0,0.0,0.0,0.0,0.0,0.0,0.0,0.0,0.0,0.0,0.0,0.0,0.0,0.0,0.0,2.3919,2.4347,2.4548,0.0,0.0,0.0,0.0,0.0,0.0,0.0,0.0,2.6069,0.0,0.0,0.0,0.0,0.0,0.0,0.0,0.0,0.0,0.0,0.0,0.0,0.0,6.2582,7.0821,7.773,8.4652,8.9556,8.7825,8.0299,7.1957,0.0,5.7516,4.9365,4.6746,4.547,4.5054,4.587,4.6619,4.7956,5.0402,5.2326,5.561,6.1749,6.5779,0.0,0.0,0.0,0.0,0.0,0.0,9.2133,9.1248,8.9633,0.0,8.6209,8.4516,8.3208,8.2324,8.1516,8.1093,8.1093,8.1093,8.1093,8.1093,8.1093,8.1093,8.1093,8.1093,8.1093,8.1093,8.1093,8.0592,7.9746,7.8861,7.8015,7.7207,7.6322,7.6015,7.6015,7.6015,7.6015,7.5861,0.0,0.0,0.0,0.0,0.0,0.0,0.0,1.4659,1.5901,1.7179,1.9249,2.0084,1.866,1.8934,1.8215,1.5817,0.0,0.0,0.0,0.0,0.0,0.0,0.0,0.0,0.0,0.0,0.0,0.0,0.0,0.0,0.0,0.0,0.0,2.2583,2.2853,2.2716,0.0,0.0,0.0,0.0,0.0,2.4077,2.4585,0.0,0.0,0.0,0.0,0.0,0.0,0.0,0.0,0.0,0.0,0.0,0.0,4.5228,0.0,0.0,6.9954,7.49,7.7873,7.5545,6.9681,6.3444,5.9321,5.2361,4.6458,4.5458,4.46,4.4423,4.5757,4.6194,4.7146,4.9439,5.0823,5.3095,5.7497,0.0,0.0,0.0,0.0,0.0,0.0,0.0,9.0633,9.0325,8.8748,8.7055,8.5363,8.4209,8.3208,8.2324,8.1516,8.1093,8.1093,8.1093,8.1093,8.1093,8.1093,8.1093,8.1093,8.1093,8.1093,8.1093,8.1093,8.0939,8.0554,7.9092,7.8361,7.7977,7.6553,7.6015,7.6015,7.6015,7.6015,7.5861,0.0,0.0,0.0,0.0,0.0,0.0,0.0,1.3971,1.4778,1.566,1.7163,1.7809,1.6904,1.7033,1.6511,1.4811,0.0,0.0,0.0,0.0,0.0,0.0,0.0,0.0,0.0,0.0,0.0,0.0,0.0,0.0,0.0,0.0,0.0,0.0,0.0,0.0,0.0,0.0,0.0,0.0,2.1642,2.2105,2.2836,0.0,0.0,0.0,0.0,0.0,0.0,0.0,0.0,0.0,0.0,0.0,0.0,0.0,4.6676,5.5055,0.0,6.6192,6.9291,6.773,6.3102,0.0,5.4901,4.9442,4.4843,4.4056,4.3742,4.3831,4.4499,4.5658,4.6879,4.7859,4.9671,5.1949,5.4905,0.0,0.0,0.0,0.0,0.0,0.0,9.0133,9.0248,8.994,8.8363,8.6517,8.4516,8.3901,8.3054,8.1862,8.1362,8.1093,8.1093,8.1093,8.1093,8.1093,8.1093,8.1093,8.1093,8.1093,8.1093,8.1093,8.0746,8.0592,0.0,7.8746,7.8054,7.79,7.6553,7.6015,7.6015,7.6015,7.6015,7.5938,0.0,0.0,0.0,0.0,0.0,0.0,0.0,0.0,0.0,0.0,1.5068,1.5321,1.5999,1.5198,1.4542,0.0,0.0,0.0,0.0,0.0,0.0,0.0,0.0,0.0,0.0,0.0,0.0,0.0,2.0334,2.1357,2.261,0.0,0.0,0.0,0.0,0.0,0.0,0.0,0.0,0.0,1.9731,2.0217,0.0,0.0,0.0,0.0,0.0,0.0,0.0,0.0,0.0,0.0,0.0,0.0,0.0,0.0,0.0,0.0,0.0,0.0,0.0,0.0,0.0,0.0,5.2486,4.8074,0.0,4.2669,4.2862,4.3114,4.2484,4.5066,4.6999,4.6045,4.8916,5.1954,5.3958,5.987,0.0,0.0,0.0,0.0,8.7137,8.9479,9.0594,8.9787,8.8209,8.6209,8.3708,8.3593,8.2824,8.1131,8.1093,8.1093,8.1093,8.1093,8.1093,8.1093,8.1093,8.1093,8.1093,8.1054,8.1016,8.0977,8.0169,7.9746,7.9592,7.8015,7.7361,7.7207,7.6322,7.6015,7.6015,7.6015,7.6015,7.6015,0.0,0.0,0.0,0.0,0.0,0.0,0.0,0.0,0.0,0.0,1.4355,1.4683,1.4796,1.4059,1.3735,0.0,0.0,0.0,0.0,0.0,0.0,0.0,0.0,0.0,0.0,0.0,0.0,1.9171,2.0029,2.1279,2.2842,2.31,0.0,0.0,0.0,0.0,0.0,0.0,0.0,0.0,1.8318,1.9107,0.0,0.0,0.0,0.0,2.4587,2.5516,0.0,0.0,0.0,0.0,0.0,0.0,0.0,0.0,3.7738,3.9443,4.1957,0.0,4.907,4.9079,4.7748,0.0,0.0,0.0,0.0,0.0,0.0,4.192,4.2963,4.4461,4.5748,4.6457,4.8942,5.1752,5.4465,0.0,0.0,0.0,0.0,0.0,8.5577,8.7103,8.8209,8.8017,8.7017,8.5593,8.3708,8.3593,8.2824,8.1131,8.1093,8.1093,8.1093,8.1093,8.1093,8.1093,8.1093,8.1093,8.1093,8.04,8.0131,8.0092,7.99,7.9438,7.8746,7.8361,7.7861,7.7207,7.6322,7.6015,7.6015,7.6015,7.6015,7.6015,0.0,0.0,0.0,0.0,0.0,0.0,0.0,0.0,0.0,0.0,0.0,0.0,0.0,0.0,0.0,0.0,0.0,0.0,0.0,0.0,0.0,0.0,0.0,0.0,0.0,0.0,0.0,0.0,0.0,2.0872,0.0,0.0,0.0,0.0,0.0,0.0,0.0,0.0,0.0,1.7258,1.7295,0.0,0.0,0.0,0.0,0.0,2.3254,2.424,0.0,2.8433,2.9359,2.9678,0.0,0.0,0.0,0.0,3.5585,3.6883,3.6985,3.976,4.2707,4.3119,4.2967,4.2607,0.0,0.0,0.0,0.0,0.0,0.0,4.2083,0.0,0.0,4.5735,4.8796,5.3014,0.0,0.0,0.0,0.0,0.0,8.7401,0.0,8.6675,8.6786,8.6786,8.5632,8.4362,8.3054,8.2978,8.2401,8.1131,8.1093,8.1093,8.1093,8.1093,8.1093,8.1093,8.1093,8.1093,8.1093,8.0592,8.04,8.0362,7.9554,7.8938,7.8438,7.7669,7.7092,7.6669,7.6169,7.6015,7.6015,7.6015,7.6015,7.6015,0.0,0.0,0.0,0.0,0.0,0.0,0.0,0.0,0.0,0.0,0.0,0.0,0.0,0.0,0.0,0.0,0.0,0.0,0.0,0.0,0.0,0.0,0.0,0.0,0.0,0.0,0.0,0.0,0.0,0.0,0.0,0.0,0.0,0.0,0.0,0.0,0.0,0.0,0.0,1.6511,1.6601,0.0,0.0,0.0,0.0,0.0,0.0,0.0,0.0,2.7832,2.8667,2.8757,3.1066,0.0,0.0,0.0,0.0,0.0,3.5016,3.7456,4.0271,4.1026,4.1397,4.1365,0.0,0.0,0.0,0.0,0.0,0.0,0.0,0.0,0.0,0.0,0.0,0.0,0.0,0.0,0.0,0.0,8.2887,0.0,8.7445,8.6632,8.594,8.594,8.4478,8.3208,8.2362,8.2285,8.1939,8.1131,8.1093,8.1054,8.09,8.09,8.09,8.09,8.0785,8.0785,8.09,8.0631,8.0516,8.0439,7.8938,7.8246,7.8015,7.6746,7.613,7.6015,7.6015,7.6015,7.6015,7.6015,7.6015,7.6015,0.0,0.0,0.0,0.0,0.0,0.0,0.0,0.0,0.0,0.0,0.0,0.0,0.0,0.0,0.0,0.0,0.0,0.0,0.0,0.0,0.0,0.0,0.0,0.0,0.0,0.0,0.0,0.0,0.0,0.0,2.2861,2.4406,2.4337,0.0,0.0,0.0,0.0,0.0,0.0,1.6427,1.6499,0.0,0.0,0.0,0.0,0.0,0.0,0.0,0.0,2.6045,2.6823,2.7225,2.8953,0.0,0.0,0.0,0.0,0.0,3.4929,3.6999,3.8621,3.859,3.9226,3.984,0.0,0.0,0.0,0.0,0.0,0.0,0.0,0.0,0.0,0.0,0.0,0.0,0.0,0.0,0.0,7.955,0.0,8.5868,8.3351,8.4335,8.5093,8.5093,8.417,8.3208,8.2362,8.2285,8.1939,8.1131,8.1093,8.0746,8.0015,8.0015,8.0015,7.9977,7.9246,7.9285,7.9939,7.8515,7.7861,7.7861,7.7592,7.7053,7.6438,7.6899,7.6669,7.6015,7.6015,7.6015,7.6015,7.6015,7.6015,7.6015,0.0,0.0,0.0,0.0,0.0,0.0,0.0,0.0,0.0,0.0,0.0,0.0,0.0,0.0,0.0,0.0,0.0,0.0,0.0,0.0,0.0,0.0,0.0,0.0,0.0,0.0,0.0,0.0,0.0,2.1626,2.339,2.4182,2.3749,2.2266,0.0,0.0,0.0,0.0,0.0,1.6358,0.0,0.0,0.0,0.0,0.0,0.0,0.0,0.0,0.0,0.0,2.5253,2.6114,2.7331,0.0,0.0,0.0,0.0,0.0,3.3476,3.496,3.6318,3.7607,3.9687,0.0,0.0,0.0,0.0,0.0,0.0,0.0,0.0,0.0,0.0,0.0,0.0,0.0,0.0,0.0,7.6621,0.0,0.0,8.324,8.2918,8.3292,8.3516,8.3516,8.2708,8.2054,8.167,8.1631,8.1477,8.1093,8.1093,8.0477,7.9092,7.9092,7.9092,7.9092,7.8669,7.8707,7.9054,7.8284,7.7938,7.79,7.7476,7.7053,7.6707,7.663,7.6361,7.6015,7.6015,7.6015,7.6015,7.6015,7.6015,7.6015,0.0,0.0,0.0,0.0,0.0,0.0,0.0,0.0,0.0,0.0,0.0,0.0,0.0,0.0,0.0,0.0,0.0,0.0,0.0,0.0,0.0,0.0,0.0,0.0,0.0,0.0,0.0,1.9845,2.1054,2.2606,2.4481,2.415,2.3324,0.0,0.0,0.0,0.0,0.0,0.0,1.6422,0.0,0.0,0.0,0.0,0.0,0.0,0.0,0.0,0.0,0.0,0.0,0.0,0.0,0.0,0.0,2.9929,3.0462,3.1029,3.2368,3.359,3.5006,0.0,0.0,0.0,0.0,0.0,0.0,0.0,0.0,0.0,0.0,0.0,0.0,0.0,0.0,0.0,7.3185,7.4676,7.6409,7.9114,8.023,8.1501,8.3401,8.2824,8.2285,8.2285,8.1554,8.1093,8.1093,8.1093,8.1093,8.1093,8.09,8.0054,7.8515,7.8284,7.8207,7.8207,7.8015,7.8015,7.8207,7.8015,7.79,7.7861,7.7246,7.6976,7.6938,7.6284,7.6015,7.6015,7.6015,7.6015,7.6015,7.6015,7.6015,7.6015,0.0,0.0,0.0,0.0,0.0,0.0,0.0,0.0,0.0,0.0,0.0,0.0,0.0,0.0,0.0,0.0,0.0,0.0,0.0,0.0,0.0,0.0,0.0,0.0,0.0,1.7846,1.8799,1.9713,2.2083,2.4248,2.6185,2.494,2.3775,2.2599,0.0,0.0,0.0,0.0,0.0,1.6671,1.6825,0.0,0.0,0.0,0.0,0.0,0.0,0.0,0.0,0.0,0.0,0.0,0.0,0.0,2.7879,2.947,2.9499,2.9702,3.2651,3.4541,0.0,0.0,0.0,0.0,0.0,0.0,0.0,0.0,0.0,0.0,0.0,0.0,0.0,0.0,0.0,7.2246,7.7361,0.0,8.0939,8.19,8.2785,8.3401,8.3555,8.2824,8.2285,8.2285,8.1554,8.1093,8.1093,8.1093,8.1093,8.1093,8.0323,7.9438,7.8515,7.7746,7.74,7.7361,7.6553,7.6592,7.7361,7.6553,7.6169,7.6169,7.613,7.6092,7.6092,7.6015,7.6015,7.6015,7.6015,7.6015,7.6015,7.6015,7.6015,7.6015,0.0,0.0,0.0,0.0,0.0,0.0,0.0,0.0,0.0,0.0,0.0,0.0,0.0,0.0,0.0,0.0,0.0,0.0,0.0,0.0,0.0,0.0,0.0,1.6218,1.6637,1.7633,1.8898,2.0445,2.2539,2.4381,2.5879,2.3712,0.0,0.0,0.0,0.0,0.0,0.0,0.0,0.0,1.6805,1.7049,0.0,0.0,0.0,0.0,0.0,0.0,0.0,0.0,2.2406,2.4114,2.4921,2.6216,2.7716,2.9373,2.9269,2.9201,3.1776,3.3811,0.0,0.0,0.0,0.0,0.0,0.0,0.0,0.0,0.0,0.0,0.0,0.0,0.0,0.0,0.0,7.5225,7.8823,8.0785,8.1785,8.1593,8.2285,8.2593,8.2093,8.1747,8.1554,8.1554,8.0785,8.0285,8.0285,7.9785,7.9477,7.9477,7.9169,7.8592,7.7746,7.6899,7.6207,7.5707,7.5899,7.6169,7.6476,7.613,7.6015,7.6015,7.6015,7.6015,7.6015,7.6015,7.6015,7.6015,7.6015,7.6015,7.6015,7.6015,7.6015,7.6015,0.0,0.0,0.0,0.0,0.0,0.0,0.0,0.0,0.0,0.0,0.0,0.0,0.0,0.0,0.0,0.0,0.0,0.0,0.0,0.0,0.0,0.0,0.0,1.5886,1.645,1.7145,1.8745,2.1275,2.3521,2.4913,2.5379,0.0,0.0,0.0,0.0,0.0,0.0,0.0,0.0,0.0,0.0,1.6869,0.0,0.0,0.0,0.0,0.0,0.0,0.0,0.0,2.1407,2.3391,2.4264,2.5757,2.752,2.903,2.9301,2.9473,3.1185,3.279,3.4429,3.6386,0.0,0.0,0.0,0.0,0.0,0.0,0.0,0.0,0.0,0.0,0.0,0.0,7.3591,7.6899,7.9438,8.1016,8.1708,8.117,8.1593,8.1708,8.1131,8.1093,8.0977,8.0708,8.0131,7.9669,7.94,7.8823,7.8477,7.8477,7.8246,7.7707,7.6899,7.6015,7.5168,7.4322,7.4938,7.5361,7.5592,7.5592,7.5592,7.5592,7.5861,7.5822,7.563,7.5899,7.6015,7.6015,7.6015,7.6015,7.6015,7.6015,7.6015,7.6015,0.0,0.0,0.0,0.0,0.0,0.0,0.0,0.0,0.0,0.0,0.0,0.0,0.0,0.0,0.0,0.0,0.0,0.0,0.0,0.0,0.0,0.0,0.0,1.6166,1.6383,1.6413,1.8243,2.1977,2.5112,2.6084,2.4942,0.0,0.0,0.0,0.0,0.0,0.0,0.0,0.0,0.0,0.0,1.6791,1.6869,0.0,0.0,0.0,0.0,0.0,0.0,0.0,2.0603,2.2207,2.3938,2.5535,2.706,2.8404,2.9581,3.0538,3.1161,3.1653,3.285,0.0,0.0,0.0,0.0,0.0,0.0,0.0,0.0,0.0,0.0,0.0,0.0,6.9013,7.3245,7.6861,7.9438,8.0554,8.1093,8.1093,8.1093,8.1093,8.1093,8.1093,8.0746,7.9862,7.9785,7.94,7.8515,7.8477,7.8477,7.8438,7.7669,7.6861,7.5976,7.513,7.4284,7.3514,7.3476,7.3899,7.4707,7.4707,7.4707,7.4745,7.563,7.5515,7.4784,7.563,7.6015,7.6015,7.6015,7.5976,7.5976,7.5976,7.5976,7.5976,0.0,0.0,0.0,0.0,0.0,0.0,0.0,0.0,0.0,0.0,0.0,0.0,0.0,0.0,0.0,0.0,0.0,0.0,0.0,0.0,0.0,0.0,0.0,0.0,0.0,0.0,1.8531,2.0448,2.2508,2.3523,0.0,0.0,0.0,2.1068,0.0,0.0,0.0,0.0,0.0,0.0,1.6718,1.6596,1.6739,0.0,0.0,0.0,0.0,0.0,0.0,0.0,0.0,0.0,2.362,2.5277,2.7029,2.8798,2.9682,3.0328,3.1561,3.3315,0.0,0.0,0.0,0.0,0.0,0.0,0.0,0.0,0.0,0.0,0.0,0.0,0.0,6.9206,7.2245,7.5322,7.8438,7.9631,8.0208,8.0208,8.0746,8.0631,7.94,7.9823,7.9823,7.8938,7.8361,7.7938,7.7669,7.7053,7.6476,7.5861,7.5592,7.5091,7.4245,7.3399,7.2822,7.2591,7.1975,7.2437,7.386,7.386,7.386,7.3899,7.4745,7.4938,7.4784,7.563,7.6015,7.6015,7.6015,7.563,7.5091,7.5091,7.5091,7.5014,0.0,0.0,0.0,0.0,0.0,0.0,0.0,0.0,0.0,0.0,0.0,0.0,0.0,0.0,0.0,0.0,0.0,0.0,0.0,0.0,0.0,0.0,0.0,0.0,0.0,1.6964,1.8066,0.0,0.0,0.0,0.0,0.0,0.0,2.1753,0.0,2.1507,0.0,0.0,0.0,1.7056,1.6638,1.6517,1.6601,0.0,0.0,0.0,0.0,0.0,0.0,0.0,0.0,0.0,2.3025,2.4612,2.6184,2.8457,2.9752,3.0885,3.2699,0.0,0.0,0.0,0.0,0.0,0.0,0.0,0.0,0.0,0.0,0.0,0.0,0.0,0.0,6.8821,7.1898,7.4822,7.7169,7.8515,7.9285,7.9285,7.9746,7.9631,7.8592,7.8977,7.8784,7.7592,7.7053,7.6476,7.5822,7.5284,7.4784,7.4245,7.4207,7.3822,7.2976,7.2476,7.2014,7.1668,7.0821,7.0975,7.2014,7.2668,7.2976,7.3014,7.3514,7.4091,7.4745,7.5284,7.5476,7.5476,7.5476,7.4976,7.4207,7.4207,7.4207,7.4168,0.0,0.0,0.0,0.0,0.0,0.0,0.0,0.0,0.0,0.0,0.0,0.0,0.0,0.0,0.0,0.0,0.0,0.0,0.0,0.0,0.0,0.0,0.0,0.0,0.0,0.0,0.0,0.0,0.0,0.0,0.0,0.0,2.1777,2.3983,0.0,2.2801,0.0,2.1669,1.9756,1.7535,1.6714,1.6436,1.6512,1.657,0.0,0.0,0.0,0.0,0.0,0.0,0.0,0.0,2.2311,2.3694,2.4963,2.7502,2.968,3.1746,0.0,0.0,0.0,0.0,0.0,0.0,0.0,0.0,0.0,0.0,0.0,0.0,0.0,0.0,6.6667,6.8282,7.1822,7.4745,7.5822,7.7323,7.8246,7.8246,7.84,7.8361,7.8054,7.8169,7.7592,7.5899,7.5784,7.513,7.3591,7.3514,7.3476,7.3399,7.3399,7.2976,7.2091,7.2014,7.1552,7.0783,6.9975,6.959,6.9629,7.1245,7.2052,7.2206,7.2206,7.3091,7.4591,7.4591,7.4591,7.4591,7.4591,7.4091,7.3399,7.3399,7.3399,7.336,0.0,0.0,0.0,0.0,0.0,0.0,0.0,0.0,0.0,0.0,0.0,0.0,0.0,0.0,0.0,0.0,0.0,0.0,0.0,0.0,0.0,0.0,0.0,0.0,0.0,0.0,0.0,0.0,0.0,0.0,0.0,0.0,0.0,2.4909,0.0,2.4377,0.0,2.2209,1.9866,1.6945,1.6553,1.6463,1.657,1.6543,1.6409,0.0,0.0,0.0,0.0,0.0,0.0,0.0,2.2223,2.359,2.4608,2.677,2.9041,3.1284,0.0,0.0,0.0,0.0,0.0,0.0,0.0,0.0,0.0,0.0,0.0,0.0,0.0,6.6974,6.8205,6.9244,7.0706,7.2706,7.5592,7.6322,7.6553,7.6553,7.7707,7.7476,7.4822,7.5784,7.5822,7.4168,7.4053,7.3899,7.3514,7.3514,7.3206,7.2514,7.2476,7.2052,7.1206,7.0552,7.0129,6.9937,6.909,6.8667,6.8744,6.9744,7.0975,7.2206,7.2206,7.2783,7.3783,7.3783,7.3783,7.3783,7.3783,7.3245,7.2476,7.2476,7.2476,7.236,0.0,0.0,0.0,0.0,0.0,0.0,0.0,0.0,0.0,0.0,0.0,0.0,0.0,0.0,0.0,0.0,0.0,0.0,0.0,0.0,0.0,0.0,0.0,0.0,0.0,0.0,0.0,0.0,0.0,0.0,0.0,0.0,0.0,2.5648,0.0,2.4329,2.3055,2.1383,1.9535,1.7654,1.7089,1.7096,1.7402,1.7089,1.6853,1.674,1.6397,0.0,0.0,0.0,0.0,0.0,0.0,0.0,2.3724,2.599,2.7767,2.9799,0.0,0.0,0.0,0.0,0.0,0.0,0.0,0.0,0.0,0.0,0.0,0.0,6.6551,6.7205,6.7936,6.8398,6.9821,7.1514,7.3322,7.4284,7.4822,7.4822,7.5553,7.5438,7.3668,7.4284,7.4284,7.2976,7.2476,7.2091,7.1706,7.1283,7.086,7.0398,7.0398,7.0167,6.9706,6.9283,6.909,6.909,6.8205,6.7782,6.7821,6.9129,7.0167,7.1014,7.1398,7.2052,7.2899,7.2899,7.2899,7.2899,7.2899,7.2322,7.1591,7.1591,7.1591,7.1514,0.0,0.0,0.0,0.0,0.0,0.0,0.0,0.0,0.0,0.0,0.0,0.0,0.0,0.0,0.0,0.0,0.0,0.0,0.0,0.0,0.0,0.0,0.0,0.0,0.0,0.0,0.0,0.0,0.0,0.0,0.0,0.0,0.0,2.6652,0.0,0.0,2.3121,2.0974,1.9577,1.8704,1.7961,1.7999,1.8406,1.7844,1.7597,1.7508,1.6859,1.6782,1.7121,1.7911,0.0,0.0,0.0,0.0,2.2655,2.5026,2.6305,2.8073,0.0,0.0,0.0,0.0,0.0,0.0,0.0,0.0,0.0,0.0,0.0,6.6051,6.6551,6.6782,6.6936,6.709,6.8859,7.0398,7.0821,7.2129,7.3129,7.3283,7.3399,7.3322,7.2899,7.2976,7.2629,7.1629,7.086,7.0167,6.9513,6.8783,6.8398,6.8398,6.8398,6.8398,6.8398,6.8244,6.8167,6.8167,6.7282,6.6898,6.6936,6.8513,6.9436,6.9744,7.0398,7.1168,7.1975,7.1975,7.1975,7.1975,7.1975,7.1514,7.0898,7.0898,7.0898,7.0898,0.0,0.0,0.0,0.0,0.0,0.0,0.0,0.0,0.0,0.0,0.0,0.0,0.0,0.0,0.0,0.0,0.0,0.0,0.0,0.0,0.0,0.0,0.0,0.0,0.0,0.0,0.0,0.0,0.0,0.0,0.0,0.0,0.0,0.0,0.0,0.0,0.0,2.3536,2.1387,1.9115,1.8876,1.8731,1.8649,1.8584,1.8434,1.8252,1.8279,1.8068,1.8004,1.8966,1.9244,0.0,0.0,0.0,2.1713,2.3644,2.5037,0.0,0.0,0.0,0.0,0.0,0.0,0.0,0.0,0.0,0.0,0.0,6.4705,6.5705,6.5051,6.5551,6.6282,6.6974,6.7398,6.8359,7.0591,7.1091,7.1514,7.2283,7.3053,7.2629,7.0437,7.086,7.0591,6.9052,6.8821,6.8706,6.859,6.8475,6.8398,6.8398,6.8398,6.8398,6.8398,6.7667,6.7282,6.7244,6.6436,6.6051,6.609,6.7013,6.8282,6.9706,6.9821,7.0321,7.1052,7.1052,7.1052,7.1052,7.1052,7.1014,7.0898,7.0898,7.0898,7.0898,0.0,0.0,0.0,0.0,0.0,0.0,0.0,0.0,0.0,0.0,0.0,0.0,0.0,0.0,0.0,0.0,0.0,0.0,0.0,0.0,0.0,0.0,0.0,0.0,0.0,0.0,0.0,0.0,0.0,0.0,0.0,2.2483,2.5676,0.0,0.0,0.0,0.0,0.0,0.0,2.1012,2.0734,2.0972,2.1343,1.9907,1.9908,2.0607,2.0254,1.9309,1.8563,2.0416,2.0352,1.9653,2.0854,0.0,0.0,0.0,0.0,0.0,0.0,0.0,0.0,0.0,0.0,0.0,0.0,0.0,0.0,6.1281,6.2935,6.432,6.3935,6.4166,6.4705,6.5551,6.609,6.6974,6.8552,6.9206,6.9629,7.0014,7.0398,7.0206,6.909,6.9283,6.9206,6.8475,6.7552,6.7013,6.7013,6.609,6.5551,6.5551,6.6013,6.6051,6.5551,6.6128,6.6436,6.6397,6.6051,6.5897,6.5897,6.6282,6.7359,6.9013,6.9475,7.0167,7.0898,7.0898,7.0898,7.0898,7.0898,7.0898,7.0898,7.0898,7.0898,7.0898,0.0,0.0,0.0,0.0,0.0,0.0,0.0,0.0,0.0,0.0,0.0,0.0,0.0,0.0,0.0,0.0,0.0,0.0,0.0,0.0,0.0,0.0,0.0,0.0,0.0,0.0,0.0,0.0,0.0,0.0,1.9724,2.2359,2.6072,0.0,3.0959,0.0,0.0,0.0,0.0,0.0,0.0,2.3335,0.0,0.0,2.224,2.3289,2.2955,2.1849,2.0857,2.2476,0.0,0.0,2.1439,2.175,0.0,0.0,0.0,0.0,0.0,0.0,0.0,0.0,0.0,0.0,0.0,0.0,5.9781,0.0,6.1012,6.2397,6.2627,6.3012,6.3512,6.4166,6.5013,6.5859,6.6667,6.7513,6.8167,6.8359,6.8398,6.8321,6.809,6.809,6.7898,6.7475,6.6282,6.5474,6.5243,6.4012,6.332,6.332,6.3935,6.3974,6.332,6.4589,6.5243,6.5243,6.5474,6.5551,6.559,6.5782,6.6705,6.8129,6.8975,6.986,7.0591,7.0821,7.0898,7.0898,7.0898,7.0898,7.0898,7.0898,7.0898,7.0898,0.0,0.0,0.0,0.0,0.0,0.0,0.0,0.0,0.0,0.0,0.0,0.0,0.0,0.0,0.0,0.0,0.0,0.0,0.0,0.0,0.0,0.0,0.0,0.0,0.0,0.0,0.0,0.0,0.0,0.0,2.0133,2.2295,2.5282,2.8962,3.2152,3.1196,2.73,0.0,0.0,0.0,0.0,0.0,0.0,0.0,0.0,0.0,0.0,0.0,0.0,0.0,0.0,0.0,0.0,0.0,0.0,0.0,0.0,0.0,0.0,0.0,0.0,0.0,0.0,0.0,0.0,0.0,0.0,5.9165,5.9627,5.9935,6.0781,6.2243,6.332,6.3358,6.4089,6.4974,6.582,6.6667,6.7475,6.8321,6.8398,6.809,6.7244,6.7167,6.6513,6.4936,6.4705,6.432,6.3474,6.3358,6.332,6.332,6.3358,6.3358,6.332,6.3397,6.3435,6.3474,6.4282,6.4666,6.4705,6.5513,6.6359,6.7205,6.809,6.8975,6.9821,7.0591,7.0898,7.0898,7.0898,7.0898,7.0898,7.0898,7.0898,7.0898,0.0,0.0,0.0,0.0,0.0,0.0,0.0,0.0,0.0,0.0,0.0,0.0,0.0,0.0,0.0,1.4098,1.3031,0.0,0.0,0.0,0.0,0.0,0.0,0.0,0.0,0.0,0.0,0.0,0.0,1.4381,1.7406,1.9943,2.2525,2.5273,3.0598,3.1683,2.9638,3.1359,0.0,0.0,0.0,0.0,0.0,0.0,0.0,0.0,0.0,0.0,0.0,0.0,0.0,0.0,0.0,0.0,0.0,0.0,0.0,0.0,0.0,0.0,0.0,0.0,0.0,0.0,0.0,5.236,5.4618,5.6028,5.7588,5.8973,5.9819,6.0896,6.1897,6.2435,6.2781,6.3281,6.4128,6.4474,6.4782,6.5089,6.5128,6.5013,6.4705,6.4666,6.4397,6.382,6.3281,6.2858,6.2551,6.2012,6.1704,6.1704,6.2243,6.2781,6.3281,6.2781,6.2781,6.332,6.3628,6.4051,6.4628,6.4936,6.5513,6.6359,6.7205,6.8398,6.9667,6.9398,6.9629,7.0129,7.0129,7.0129,7.0206,7.0706,7.0898,7.0898,0.0,0.0,0.0,0.0,0.0,0.0,0.0,0.0,0.0,0.0,0.0,0.0,0.0,0.0,0.0,1.4218,1.3503,1.2939,1.2692,1.2071,0.0,0.0,0.0,0.0,0.0,0.0,0.0,0.0,0.0,0.0,0.0,0.0,2.0394,2.248,2.7803,0.0,0.0,0.0,0.0,2.8418,0.0,0.0,2.9196,0.0,0.0,0.0,0.0,0.0,0.0,0.0,0.0,0.0,0.0,0.0,0.0,0.0,0.0,0.0,0.0,0.0,0.0,0.0,0.0,0.0,0.0,0.0,5.1123,5.3398,5.5583,5.7434,5.8858,5.9588,6.0319,6.1473,6.1897,6.2281,6.282,6.3128,6.332,6.332,6.332,6.332,6.332,6.332,6.3205,6.2935,6.2397,6.1973,6.1666,6.1089,6.0781,6.0781,6.1358,6.1935,6.2474,6.1935,6.2089,6.2897,6.3166,6.3782,6.4628,6.4897,6.5359,6.5936,6.6474,6.7513,6.8821,6.8513,6.8744,6.9244,6.9244,6.9244,6.936,7.0206,7.0514,7.0552,0.0,0.0,0.0,0.0,0.0,0.0,0.0,0.0,0.0,0.0,0.0,0.0,0.0,0.0,0.0,1.4961,1.4648,1.4214,1.367,1.2862,0.0,0.0,0.0,0.0,0.0,0.0,0.0,0.0,0.0,0.0,0.0,0.0,1.9074,0.0,2.4069,2.6245,2.7713,0.0,2.998,2.9178,0.0,2.9127,3.1402,0.0,0.0,0.0,3.4752,3.4177,0.0,3.037,0.0,0.0,0.0,0.0,0.0,0.0,0.0,0.0,0.0,0.0,0.0,0.0,0.0,0.0,4.2693,0.0,4.7143,5.1558,5.3475,5.5126,5.7703,5.8242,5.8819,6.0473,6.1435,6.2012,6.2012,6.2704,6.3243,6.3243,6.3243,6.3243,6.3243,6.3243,6.2897,6.2127,6.205,6.1666,6.0858,6.0781,6.0781,6.0781,6.0781,6.0781,6.0781,6.0781,6.1204,6.205,6.2858,6.3666,6.4551,6.5436,6.582,6.5859,6.5897,6.632,6.7128,6.7975,6.8359,6.8359,6.8359,6.8398,6.8513,6.9398,6.9706,6.986,0.0,0.0,0.0,0.0,0.0,0.0,0.0,0.0,0.0,0.0,0.0,0.0,0.0,0.0,0.0,1.5898,1.5681,1.5102,1.4026,1.3712,1.3262,1.2647,1.2375,0.0,0.0,0.0,0.0,0.0,0.0,0.0,0.0,0.0,0.0,0.0,2.1942,2.3438,2.4297,2.77,0.0,0.0,2.8895,3.0309,0.0,0.0,0.0,0.0,0.0,3.6272,3.5824,0.0,3.3459,3.3327,0.0,0.0,0.0,0.0,0.0,0.0,2.7247,0.0,0.0,0.0,0.0,0.0,3.7848,4.008,4.2667,4.6187,4.8831,5.1535,5.4951,5.6549,5.7703,5.8819,5.9665,6.0204,6.0204,6.0935,6.1473,6.1473,6.1473,6.1473,6.1473,6.1473,6.1396,6.1166,6.1166,6.105,6.0819,6.0781,6.0781,6.0781,6.0781,6.0781,6.0781,6.0781,6.0935,6.1166,6.1396,6.1935,6.282,6.3628,6.4359,6.4974,6.5628,6.6013,6.6244,6.6474,6.6936,6.7475,6.7475,6.7859,6.8513,6.9398,7.0052,7.0591,0.0,0.0,0.0,0.0,0.0,0.0,0.0,0.0,0.0,0.0,0.0,0.0,0.0,0.0,0.0,0.0,1.6666,1.6102,1.5122,1.4657,1.4169,1.3487,1.2928,1.2809,0.0,0.0,0.0,0.0,0.0,0.0,0.0,0.0,0.0,0.0,0.0,0.0,0.0,0.0,0.0,0.0,2.9075,0.0,0.0,3.4196,3.5884,0.0,0.0,0.0,3.814,3.598,3.5198,0.0,0.0,0.0,0.0,0.0,0.0,0.0,0.0,0.0,0.0,0.0,0.0,0.0,3.4579,3.6303,3.8489,4.1487,4.4369,4.7486,5.1162,5.2933,5.4203,5.5434,5.6626,5.7896,5.9319,5.9935,6.0396,6.0742,6.0781,6.0781,6.0781,6.0781,6.0781,6.0781,6.0781,6.0781,6.0781,6.0781,6.0781,6.0781,6.0781,6.0781,6.0781,6.0781,6.0973,6.132,6.132,6.1781,6.2627,6.3089,6.3589,6.4128,6.4974,6.5359,6.5397,6.5743,6.6167,6.659,6.659,6.709,6.7975,6.8859,6.9667,7.0437,0.0,0.0,0.0,0.0,0.0,0.0,0.0,0.0,0.0,0.0,0.0,0.0,0.0,0.0,0.0,0.0,1.7759,1.7232,1.6596,1.5821,1.509,1.4486,1.3685,1.331,1.3475,0.0,0.0,0.0,0.0,0.0,0.0,0.0,0.0,0.0,0.0,0.0,0.0,0.0,0.0,2.9207,2.8948,3.211,0.0,0.0,3.8287,4.0876,4.0674,4.0607,4.0221,3.7467,3.5522,0.0,0.0,0.0,0.0,0.0,2.8767,0.0,0.0,0.0,0.0,0.0,3.1249,0.0,3.2533,3.3471,3.4971,3.7746,4.0414,4.3405,4.705,4.8529,4.972,5.1296,5.3046,5.5335,5.8627,5.9242,5.9665,6.0435,6.0512,6.055,6.0666,6.055,6.0589,6.0781,6.0781,6.0781,6.0781,6.0781,6.0781,6.0781,6.0781,6.0781,6.0781,6.0781,6.1166,6.1935,6.1935,6.232,6.3051,6.3128,6.3166,6.3243,6.4166,6.4589,6.4666,6.5551,6.5897,6.5897,6.5897,6.6436,6.7321,6.8129,6.9013,6.9937,1.6311,0.0,0.0,0.0,0.0,0.0,0.0,0.0,0.0,0.0,0.0,0.0,0.0,0.0,0.0,0.0,0.0,1.8929,1.7625,1.7223,1.6913,1.667,1.6194,1.5669,1.5114,1.52,0.0,0.0,0.0,0.0,0.0,0.0,0.0,0.0,0.0,0.0,0.0,0.0,0.0,2.8215,2.9312,0.0,3.7104,3.8079,4.0065,4.2359,4.2329,4.251,4.2435,4.0632,3.8328,3.5923,0.0,0.0,0.0,0.0,0.0,0.0,0.0,0.0,0.0,0.0,0.0,0.0,3.1511,3.2197,3.3609,3.6515,3.8488,4.0867,4.4673,4.6739,4.8205,4.9234,5.1002,5.3229,5.6028,5.7665,5.8588,5.8781,5.8781,5.905,5.9704,5.9165,5.9358,6.0704,6.0781,6.0781,6.0781,6.0781,6.0781,6.0781,6.0781,6.0781,6.0781,6.0781,6.0896,6.105,6.105,6.1127,6.132,6.2012,6.232,6.2397,6.3935,6.4589,6.4666,6.5551,6.5897,6.5897,6.5897,6.6821,6.8167,6.8359,6.936,7.0706,1.6347,0.0,0.0,0.0,0.0,0.0,0.0,0.0,0.0,0.0,0.0,0.0,0.0,0.0,0.0,0.0,0.0,0.0,0.0,0.0,1.9501,1.8056,1.7257,1.6667,1.6225,1.6221,1.5907,0.0,0.0,0.0,0.0,0.0,0.0,0.0,0.0,0.0,0.0,0.0,2.6314,2.984,3.1427,0.0,3.7962,3.9913,4.1669,4.3193,4.3577,4.3756,4.342,4.0998,3.9882,0.0,0.0,3.4872,3.511,0.0,3.1418,3.1351,0.0,0.0,0.0,3.0915,0.0,0.0,0.0,3.1322,3.2153,3.4098,3.5533,3.7441,4.089,4.2267,4.3672,4.587,4.7503,4.9379,5.1973,5.4693,5.6549,5.6973,5.7396,5.7819,5.8204,5.828,5.8819,6.005,6.0165,6.0319,6.0781,6.0781,6.0589,6.0165,6.055,6.0589,6.0165,6.0589,6.0781,6.0781,6.0781,6.0781,6.0819,6.1243,6.1435,6.155,6.3205,6.3935,6.4051,6.5359,6.5897,6.5897,6.5897,6.6667,6.7782,6.8244,6.9206,7.036,1.6409,0.0,0.0,0.0,0.0,0.0,0.0,0.0,0.0,0.0,0.0,0.0,0.0,0.0,0.0,0.0,0.0,0.0,0.0,0.0,0.0,2.0338,1.8614,1.7667,1.7644,1.7277,1.6859,0.0,0.0,0.0,0.0,0.0,0.0,0.0,0.0,0.0,0.0,0.0,0.0,3.1898,0.0,3.6271,3.8943,4.1325,4.2845,4.3781,4.4476,4.4658,4.4124,4.1344,4.1132,4.1237,3.6302,3.6807,0.0,0.0,0.0,0.0,0.0,0.0,0.0,0.0,0.0,3.1453,0.0,0.0,0.0,3.2227,3.3205,3.4666,3.7318,3.7976,3.9133,4.2092,4.3703,4.5322,4.7395,5.055,5.3196,5.4715,5.5259,5.5857,5.6643,5.7527,5.8296,5.8973,5.9011,5.9373,6.0281,6.0319,6.0012,5.9281,6.0089,6.0204,5.9511,6.0358,6.0781,6.0781,6.0781,6.0781,6.0781,6.0781,6.0781,6.0896,6.2397,6.3166,6.3435,6.5013,6.5743,6.5897,6.5897,6.6397,6.7205,6.809,6.8936,6.9821,1.6596,0.0,0.0,0.0,0.0,0.0,0.0,0.0,0.0,0.0,0.0,0.0,0.0,0.0,0.0,0.0,0.0,0.0,3.1162,0.0,0.0,2.5724,2.22,2.0348,2.0618,1.9317,1.8027,1.6739,0.0,0.0,0.0,0.0,0.0,0.0,2.068,0.0,0.0,0.0,2.8919,0.0,3.5426,3.7723,0.0,4.1188,4.291,4.4438,4.489,4.5245,4.532,0.0,4.2976,4.1054,0.0,3.7853,3.6196,3.4346,0.0,0.0,0.0,0.0,0.0,0.0,3.3883,0.0,3.3679,0.0,3.2054,3.3142,0.0,3.4443,3.5665,0.0,0.0,3.8312,4.0626,4.2486,4.291,4.4683,4.7495,5.1553,5.1024,5.17,5.5339,5.6537,5.712,5.728,5.7236,5.762,5.855,5.8588,5.855,5.8434,5.9204,5.9588,5.9511,6.0358,6.0781,6.0781,6.0781,6.0781,6.0781,6.0781,6.0781,6.0858,6.182,6.2627,6.3397,6.4359,6.5205,6.5897,6.5897,6.6397,6.7205,6.809,6.8936,6.9821,1.6811,0.0,0.0,0.0,0.0,0.0,0.0,0.0,0.0,0.0,0.0,0.0,0.0,0.0,0.0,0.0,0.0,3.4512,0.0,0.0,0.0,0.0,2.5417,2.3344,2.4151,2.1873,2.03,1.961,1.9304,0.0,0.0,0.0,0.0,0.0,2.2413,0.0,2.824,0.0,3.131,0.0,0.0,0.0,0.0,4.2342,4.3497,4.4587,4.4751,4.5159,4.5337,0.0,4.3191,0.0,0.0,0.0,0.0,0.0,0.0,0.0,0.0,0.0,0.0,0.0,0.0,0.0,3.354,0.0,3.2046,3.3068,0.0,0.0,0.0,0.0,0.0,0.0,3.8048,3.9489,4.1016,4.1203,4.2822,4.7266,4.7707,4.875,5.1557,5.2274,5.2951,5.3972,5.4489,5.5335,5.6703,5.7742,5.8088,5.755,5.8357,5.8819,5.8819,5.9627,6.0281,6.0781,6.0781,6.0781,6.0781,6.0781,6.0781,6.0858,6.1704,6.2281,6.2704,6.4051,6.482,6.5205,6.5705,6.609,6.6551,6.7898,6.8629,6.9129,0.0,0.0,0.0,0.0,0.0,0.0,0.0,0.0,0.0,0.0,0.0,0.0,3.4426,3.6242,0.0,0.0,4.0551,4.0085,0.0,0.0,3.3786,0.0,0.0,0.0,0.0,2.4766,2.2971,2.2504,0.0,0.0,0.0,0.0,0.0,0.0,0.0,2.6416,3.0705,0.0,0.0,3.8376,3.8278,3.9974,4.2711,4.3393,4.4035,4.4599,4.4599,4.5033,4.5355,4.3614,4.367,4.4066,4.2085,4.2025,4.2315,0.0,0.0,0.0,3.9074,0.0,0.0,0.0,0.0,0.0,0.0,0.0,0.0,3.2859,3.2932,0.0,0.0,0.0,0.0,0.0,0.0,3.7005,3.883,3.8428,3.9519,4.3663,4.5285,4.6641,4.8252,4.8527,4.9393,5.1334,5.1561,5.2619,5.4895,5.6137,5.6713,5.6626,5.7473,5.7934,5.7934,5.8973,5.9819,6.0435,6.0704,6.0781,6.0781,6.0781,6.0781,6.0819,6.1473,6.1858,6.2204,6.3666,6.4397,6.4705,6.5551,6.6013,6.6397,6.7859,6.8398,6.8629,1.8244,1.7513,0.0,0.0,0.0,0.0,0.0,0.0,0.0,0.0,0.0,0.0,0.0,0.0,0.0,0.0,0.0,4.6175,4.7438,0.0,3.696,0.0,0.0,3.0695,0.0,0.0,2.5921,2.4869,0.0,0.0,0.0,0.0,0.0,0.0,0.0,2.6916,3.2101,3.2529,3.5338,3.9617,4.0659,4.2049,4.3503,0.0,4.4251,4.4599,4.4599,0.0,4.5666,4.6042,4.5071,4.3764,4.3954,4.329,0.0,0.0,0.0,0.0,0.0,0.0,0.0,4.1794,0.0,0.0,0.0,3.4584,3.3176,3.2546,3.3209,3.3659,0.0,0.0,0.0,0.0,0.0,0.0,0.0,3.6155,3.8011,4.1668,4.3856,4.5375,4.6329,4.6517,4.7673,5.0243,4.8709,4.9328,5.3067,5.3024,5.3766,5.5665,5.6588,5.7049,5.7049,5.8665,5.9511,5.955,6.0396,6.0781,6.0781,6.0781,6.0781,6.0781,6.0819,6.132,6.2166,6.3012,6.3858,6.4705,6.5551,6.6359,6.7167,6.809,6.8398,6.8629,0.0,0.0,0.0,0.0,0.0,0.0,0.0,2.6878,0.0,0.0,0.0,0.0,0.0,4.9683,5.1617,0.0,0.0,5.1114,5.0435,4.5719,0.0,0.0,0.0,3.6146,0.0,0.0,0.0,0.0,0.0,0.0,0.0,0.0,0.0,0.0,0.0,2.7952,0.0,0.0,0.0,0.0,0.0,4.3132,4.4485,0.0,4.3915,4.4233,4.4482,4.4896,4.5321,4.5707,4.5625,4.536,4.5159,4.4973,4.4607,4.3558,4.3694,4.4129,4.3639,4.3966,4.4083,4.2723,4.1317,3.9909,3.8502,3.7648,3.6825,3.5567,3.7018,3.758,0.0,0.0,0.0,0.0,0.0,0.0,0.0,3.4149,3.4772,3.6621,3.9502,4.1264,4.1206,4.1892,4.3177,4.5285,4.5381,4.6607,4.9341,5.1727,5.3245,5.369,5.527,5.6703,5.7857,5.8434,5.9281,6.0358,6.0666,6.0781,6.0781,6.0781,6.0781,6.0781,6.0781,6.0973,6.1358,6.2743,6.3474,6.3897,6.532,6.6051,6.6474,6.7898,6.8783,6.9436,2.2716,0.0,0.0,0.0,0.0,0.0,0.0,0.0,0.0,0.0,4.1527,0.0,5.2915,0.0,5.5884,0.0,5.6978,5.5395,5.3105,5.0315,0.0,4.7016,4.3551,0.0,0.0,0.0,0.0,0.0,0.0,2.9146,0.0,0.0,0.0,0.0,0.0,0.0,3.1452,0.0,3.6468,0.0,0.0,4.3613,0.0,0.0,4.4026,4.4766,4.4616,4.4896,4.5303,4.5532,4.5784,4.601,4.5686,4.5706,4.5726,4.5131,4.5112,4.5277,4.5132,4.5468,4.5409,4.3697,4.2725,4.1809,4.0294,3.9955,3.9552,3.8266,3.989,4.0394,3.6838,0.0,0.0,0.0,0.0,0.0,0.0,3.2952,3.2932,3.3611,3.6037,3.785,3.8455,3.8854,3.9852,4.1838,4.2374,4.3807,4.6549,4.986,5.1989,5.2665,5.4649,5.6395,5.7819,5.8165,5.8973,6.0319,6.0666,6.0781,6.0781,6.0781,6.0781,6.0781,6.0781,6.0781,6.0935,6.2627,6.332,6.3474,6.5205,6.6051,6.6513,6.7898,6.9129,7.0206,0.0,0.0,0.0,0.0,2.4197,0.0,0.0,0.0,3.8312,0.0,4.7371,5.1031,5.6426,5.9127,6.0567,6.0604,6.0628,5.9187,5.5769,5.4646,0.0,0.0,4.7904,4.6669,4.4633,0.0,0.0,0.0,0.0,0.0,0.0,0.0,0.0,0.0,2.8118,0.0,3.2773,3.5487,3.8243,4.0877,4.2741,4.3534,4.3573,4.3534,4.4617,4.6041,4.4992,4.5011,4.5568,4.5586,4.5586,4.5586,4.5586,4.5586,4.5432,4.4624,4.4932,4.555,4.5281,4.5934,4.6275,4.4801,4.3983,4.319,4.1791,4.1593,4.1427,4.0561,4.1667,4.2106,3.9877,0.0,0.0,0.0,0.0,0.0,0.0,0.0,3.2423,3.2724,3.3621,3.531,3.7928,3.7431,3.7835,3.9966,3.9726,4.1101,4.469,4.7327,4.9907,5.2412,5.4572,5.6126,5.7049,5.7934,5.8781,5.9588,6.0396,6.0781,6.0781,6.0781,6.0781,6.0781,6.0781,6.0819,6.0973,6.2627,6.332,6.3551,6.5243,6.6397,6.7282,6.8129,6.9513,7.0898,2.5636,2.4717,2.4223,0.0,2.6619,2.8356,0.0,0.0,0.0,0.0,5.2826,5.734,6.3291,6.4002,6.4259,6.4846,6.4383,0.0,0.0,0.0,0.0,5.4679,5.2963,5.1048,4.894,4.5989,0.0,4.3116,0.0,0.0,3.5547,0.0,0.0,0.0,0.0,0.0,3.1477,3.3743,3.699,4.0836,4.2741,4.398,4.4592,4.3796,4.4412,4.5651,4.4909,4.4726,4.4943,4.5438,4.5586,4.5586,4.5586,4.5586,4.5547,4.5316,4.5432,4.5586,4.5532,4.5686,4.586,4.5856,4.5712,4.5437,4.5004,4.5394,4.5268,4.3213,4.4221,4.4448,4.1213,4.0828,0.0,0.0,0.0,0.0,0.0,0.0,3.038,3.1727,3.212,3.3006,3.4995,3.5822,3.6675,3.7709,3.8039,3.9195,4.148,4.4852,4.758,4.944,5.3226,5.6151,5.7934,5.8781,5.9627,6.0473,6.0704,6.0781,6.0781,6.0781,6.0781,6.0781,6.0781,6.1166,6.1858,6.2897,6.3666,6.4397,6.5474,6.6782,6.8167,6.9052,7.0014,7.0898,2.746,0.0,0.0,2.6749,0.0,0.0,3.4758,3.8999,0.0,5.1711,5.5045,0.0,6.3847,6.5791,6.675,6.7043,6.6292,0.0,6.3313,0.0,0.0,5.7821,5.6327,5.4346,5.1736,4.8472,0.0,4.5233,0.0,0.0,3.7292,0.0,0.0,0.0,0.0,3.1512,0.0,3.4539,3.7836,4.1466,4.2559,4.3577,0.0,4.3722,4.3975,4.4702,4.4618,4.4701,4.4896,4.5419,4.5586,4.5586,4.5586,4.5586,4.5586,4.5586,4.5586,4.5586,4.5586,4.5586,4.5683,4.5975,4.6013,4.6087,4.6358,4.6778,4.6702,4.529,4.6031,4.6008,4.3018,4.2633,0.0,0.0,0.0,0.0,0.0,0.0,3.006,3.1407,3.1887,3.2588,3.3869,3.466,3.5192,3.5399,3.6288,3.7586,3.935,4.2938,4.6051,4.8401,5.2844,5.6154,5.828,5.9473,6.0319,6.0781,6.0781,6.0781,6.0781,6.0781,6.0781,6.0819,6.1204,6.1627,6.2166,6.3397,6.4166,6.4705,6.5551,6.6936,6.8475,6.8936,6.9898,7.0898,0.0,0.0,0.0,0.0,0.0,0.0,0.0,4.321,0.0,5.4307,0.0,5.9078,6.2392,6.6202,6.8308,6.7863,0.0,6.5893,6.4197,6.4207,6.2778,5.9469,5.871,5.6859,5.3739,5.0277,4.7667,0.0,4.1721,3.9165,3.8188,0.0,0.0,0.0,0.0,0.0,0.0,3.6689,3.9545,4.1995,4.2338,4.2873,4.3497,4.3497,4.3532,4.3664,4.4355,4.48,4.5077,4.5457,4.5586,4.5586,4.5586,4.5586,4.5586,4.5586,4.5586,4.5586,4.5586,4.5586,4.5624,4.574,4.5855,4.6106,4.6743,4.6877,4.6839,4.6762,4.6985,4.6598,4.4802,4.3861,4.1803,0.0,0.0,0.0,3.0991,3.0877,0.0,0.0,3.2686,0.0,3.3744,3.3917,3.3844,3.3541,3.4755,3.6241,3.7879,4.1229,4.4751,4.8289,5.2691,5.6091,5.8434,6.0012,6.0858,6.0973,6.0858,6.0781,6.0781,6.0781,6.0781,6.0858,6.1704,6.2166,6.2358,6.3935,6.4666,6.4859,6.5705,6.7013,6.8398,6.8552,6.9552,7.0898,0.0,0.0,0.0,0.0,0.0,4.6009,4.8605,5.3051,5.7043,5.9682,6.4091,6.7228,6.7898,6.8302,6.8464,6.8368,6.7871,0.0,0.0,0.0,0.0,6.2205,6.0738,5.8767,5.6235,5.2175,4.9976,4.9728,4.3616,4.0836,4.1173,3.7939,0.0,0.0,0.0,0.0,3.5341,3.7986,0.0,4.0817,4.2591,4.3351,4.3497,4.3497,4.366,4.3974,4.4428,4.465,4.48,4.54,4.5586,4.5586,4.5586,4.5586,4.5586,4.5586,4.5586,4.5586,4.5586,4.5586,4.5778,4.6509,4.7163,4.7702,4.7837,4.7857,4.7664,4.7011,4.5801,4.4938,4.5225,4.3846,4.2167,4.0545,3.7948,3.5857,3.5107,3.4429,0.0,0.0,3.483,3.4802,3.3324,3.3902,3.4213,3.3783,3.4298,3.5216,3.6629,3.9201,4.2735,4.7288,5.1509,5.55,5.9242,6.0281,6.1166,6.1858,6.1127,6.0781,6.0781,6.0781,6.0781,6.0858,6.1704,6.2474,6.3166,6.4166,6.5013,6.5743,6.6551,6.7513,6.8513,6.9206,7.009,7.0898,0.0,0.0,0.0,0.0,0.0,0.0,0.0,6.0501,6.3878,6.192,6.4064,6.5947,6.6144,6.7827,6.884,6.8558,6.8033,6.7357,6.6549,6.5742,6.4383,6.2254,6.1043,5.9281,5.6859,5.2333,5.0387,5.1229,4.5059,4.2358,4.2834,4.0102,3.7785,3.582,0.0,3.5712,0.0,0.0,3.9218,4.0777,4.23,4.313,4.3497,4.3497,4.3693,4.4058,4.4455,4.4726,4.4943,4.5438,4.5586,4.5586,4.5586,4.5893,4.6201,4.574,4.5932,4.6163,4.5701,4.5586,4.5817,4.6701,4.7201,4.7586,4.8009,4.8086,4.7855,4.7086,4.624,4.5607,4.5532,4.358,4.1876,4.1434,3.9447,3.7637,3.6783,3.5969,3.5437,0.0,0.0,0.0,3.3867,3.4097,3.403,3.3349,3.3894,3.4933,3.6407,3.8005,4.1184,4.6204,5.0563,5.4438,5.7876,6.0248,6.1435,6.1396,6.1012,6.0781,6.0781,6.0781,6.0781,6.0858,6.2166,6.2935,6.3397,6.4743,6.5513,6.5974,6.6782,6.7628,6.8513,6.9398,7.0206,7.0898,0.0,3.8627,0.0,0.0,5.0287,5.5949,5.9337,6.5444,6.8206,6.4111,6.4,6.4505,6.4866,6.7655,6.9272,6.8705,6.8161,6.7405,6.6329,6.5668,6.4273,6.1961,6.0933,5.9428,5.7373,5.2798,5.0812,5.1605,4.6764,4.409,4.3599,4.2011,4.0029,3.7701,0.0,0.0,3.9242,3.8451,3.937,4.1357,4.2227,4.291,4.3497,4.3497,4.3758,4.4175,4.4519,4.4872,4.5281,4.5724,4.574,4.5586,4.5586,4.6201,4.674,4.5855,4.6201,4.6701,4.5817,4.574,4.6086,4.6932,4.7278,4.7663,4.8471,4.8509,4.8202,4.7548,4.7278,4.6876,4.5955,4.4095,4.2564,4.2087,4.0807,3.9566,3.867,3.8004,3.7376,0.0,0.0,0.0,3.4689,3.472,3.4386,3.3167,3.371,3.4847,3.6461,3.7322,4.0179,4.55,4.9504,5.3262,5.6728,5.9881,6.131,6.105,6.0896,6.0781,6.0781,6.0781,6.0781,6.0896,6.2589,6.3512,6.3974,6.532,6.5897,6.5974,6.6782,6.7628,6.8513,6.9398,7.0206,7.0898,0.0,0.0,0.0,0.0,0.0,6.3061,6.2442,6.6556,6.9337,6.8406,6.9374,7.0151,7.0162,7.0101,6.9811,6.9272,6.875,6.758,6.5573,6.5338,6.453,6.2768,6.1227,5.9942,5.9024,5.5303,5.2754,5.1414,4.9437,4.6669,4.3351,4.3687,4.189,3.8373,3.9329,3.9428,3.9048,4.0305,4.1324,4.2221,4.3059,4.3424,4.3497,4.3497,4.3912,4.4572,4.4599,4.5011,4.5683,4.6491,4.624,4.5586,4.5586,4.6201,4.674,4.5855,4.6201,4.6701,4.5817,4.6163,4.6971,4.7778,4.8586,4.9394,5.024,4.9856,4.924,4.9163,4.8548,4.7722,4.682,4.6531,4.5896,4.4267,4.388,4.3475,4.265,4.2497,4.1541,3.9099,0.0,0.0,3.5286,3.6312,3.6384,3.4223,3.3956,3.4639,3.6334,3.7182,4.0114,4.559,4.8206,5.2218,5.7973,5.8807,6.0123,6.1973,6.1166,6.0781,6.0781,6.0781,6.0781,6.0896,6.2589,6.4205,6.5667,6.582,6.5897,6.5974,6.6782,6.7628,6.8513,6.9398,7.0206,7.0898,0.0,0.0,0.0,0.0,0.0,0.0,0.0,6.8982,7.022,6.9666,7.0363,7.0898,7.0898,7.0891,7.0872,7.0788,6.9851,6.8568,6.6859,6.5852,6.4683,6.3336,6.2197,6.1113,6.0105,5.7227,5.5153,5.4025,5.2306,5.0085,4.7478,4.6026,4.3506,4.0229,3.9367,3.9839,4.1324,4.1214,4.1606,4.2359,4.3167,4.3791,4.4158,4.3681,4.4278,4.5278,4.4749,4.5376,4.6432,4.6778,4.6663,4.6471,4.6932,4.7355,4.7471,4.6624,4.6971,4.7432,4.6624,4.7009,4.7817,4.8663,4.9125,4.9625,5.051,5.0433,5.001,4.951,4.8702,4.7991,4.7626,4.7222,4.6645,4.5973,4.5414,4.4778,4.3932,4.3393,4.2146,3.9522,0.0,3.8776,3.5463,3.6539,3.705,3.6184,3.4974,3.4599,3.5402,3.636,3.8744,4.2767,4.6719,5.0885,5.5282,5.7953,5.9931,6.132,6.0973,6.0781,6.0781,6.0781,6.1358,6.2358,6.3012,6.4551,6.659,6.609,6.6167,6.6628,6.6974,6.7628,6.8513,6.9398,7.0206,7.0975,5.8706,0.0,6.0043,6.4813,6.5876,6.7228,7.0592,7.1419,7.1545,7.1127,7.1189,7.1283,7.1283,7.1513,7.1662,7.1811,7.0705,6.9415,6.8018,6.6639,6.5334,6.422,6.3177,6.2142,6.1085,5.8987,5.727,5.5981,5.4746,5.2666,4.9746,4.7033,4.4416,4.1977,4.0345,4.0813,4.2741,4.1818,4.1919,4.269,4.3277,4.3828,4.4305,4.3975,4.4687,4.5741,4.5429,4.6138,4.7278,4.7548,4.7625,4.7702,4.8009,4.8279,4.8317,4.7509,4.7855,4.8317,4.7471,4.7855,4.8625,4.924,4.9586,4.9933,5.0548,5.0702,5.051,4.9894,4.9279,4.8779,4.8548,4.8009,4.7394,4.6624,4.6201,4.5509,4.4124,4.3662,4.2508,3.9954,3.9989,3.9116,3.632,3.7181,3.7871,3.7775,3.6222,3.5515,3.6057,3.672,3.87,4.2128,4.6321,5.0342,5.42,5.7489,5.9664,6.0781,6.0781,6.0781,6.0819,6.105,6.2089,6.3666,6.3666,6.4859,6.6705,6.6397,6.6436,6.6782,6.7282,6.7859,6.8513,6.9398,7.0206,7.1014,6.3847,6.5705,6.8052,7.1475,7.2822,7.3399,7.3476,7.3476,7.3476,7.3476,7.2706,7.2168,7.2168,7.2206,7.2071,7.1852,7.101,6.9928,6.8595,6.7682,6.6724,6.5653,6.3955,6.271,6.1917,6.0691,5.8845,5.63,5.6537,5.3913,4.8568,4.6029,4.4299,4.3358,4.3286,4.2917,4.2323,4.2286,4.2763,4.3497,4.3497,4.3497,4.3608,4.4378,4.517,4.5908,4.6674,4.7448,4.824,4.9086,4.9356,4.9202,4.8355,4.8702,4.9202,4.8355,4.8702,4.9202,4.8317,4.8702,4.9394,4.9394,5.0048,5.0702,5.0702,5.0702,5.0702,5.0702,5.0664,5.0394,4.9548,4.9394,4.8548,4.6009,4.6317,4.6009,4.347,4.3778,4.3338,4.079,4.1975,4.1684,3.8201,3.8708,3.9106,3.8709,3.7688,3.7685,3.9085,3.8905,4.0732,4.4989,4.735,5.0996,5.6216,5.7548,5.9117,6.0781,6.0781,6.0781,6.0819,6.1666,6.3012,6.4589,6.4589,6.5089,6.5974,6.6744,6.6628,6.609,6.7744,6.8398,6.8513,6.9398,7.0206,7.1014,6.9563,7.064,7.1822,7.2899,7.3783,7.4004,7.3035,7.3684,7.3966,7.2997,7.3453,7.3899,7.3899,7.286,7.2464,7.3155,7.2433,7.1597,7.0799,6.9439,6.8181,6.7037,6.5931,6.4845,6.3743,6.2782,6.1058,5.8462,5.8426,5.5632,5.0252,4.8521,4.6652,4.467,4.441,4.4453,4.4745,4.4745,4.4599,4.4378,4.4929,4.5149,4.5149,4.5406,4.6322,4.7391,4.7089,4.7867,4.9048,4.9317,4.9779,5.024,4.9971,4.9663,4.9356,4.9086,4.9163,4.9356,4.9048,4.9625,5.0279,5.0279,5.0894,5.151,5.151,5.1972,5.2241,5.1625,5.151,5.1279,5.0433,4.9317,4.824,4.7432,4.6086,4.4662,4.3278,4.2816,4.1893,3.9915,4.0662,4.0431,3.8185,3.98,4.0905,4.069,4.0131,3.9359,3.8308,3.9844,4.1519,4.3118,4.7644,5.1688,5.511,5.7468,5.9349,6.0819,6.1396,6.1973,6.2512,6.2781,6.3512,6.4589,6.4589,6.5397,6.6744,6.6974,6.6936,6.6821,6.7975,6.8398,6.8513,6.9398,7.0206,7.1129,7.2706,7.336,7.3976,7.3976,7.463,7.4888,7.3986,7.4635,7.4849,7.3986,7.4367,7.4707,7.4707,7.3514,7.3138,7.4249,7.3565,7.281,7.2128,7.0877,6.9431,6.7959,6.711,6.6001,6.4628,6.3743,6.2358,6.0473,5.9048,5.6397,5.2536,5.0781,4.895,4.7122,4.6527,4.6505,4.6764,4.6471,4.6067,4.5626,4.581,4.5883,4.5956,4.6393,4.7271,4.8249,4.8196,4.89,4.9933,5.024,5.0702,5.1202,5.1548,5.1279,5.0702,5.0048,5.0087,5.0356,5.0356,5.0971,5.1625,5.1625,5.201,5.2395,5.2395,5.2818,5.3049,5.251,5.2125,5.1741,5.1241,4.974,4.8471,4.8163,4.624,4.4393,4.3278,4.2354,4.1377,4.0338,4.0969,4.1046,3.9992,4.1607,4.2706,4.2616,4.2619,4.1882,4.0177,4.175,4.3178,4.4217,4.9235,5.3075,5.5486,5.7832,5.9626,6.0819,6.1666,6.2704,6.3782,6.3782,6.4282,6.5089,6.5089,6.5667,6.6667,6.6974,6.6898,6.6744,6.759,6.8129,6.8475,6.9013,6.9937,7.1168,7.386,7.4399,7.4899,7.4938,7.5668,7.6207,7.6092,7.613,7.613,7.6015,7.5284,7.4784,7.4784,7.413,7.4098,7.5083,7.4364,7.3524,7.2723,7.1849,7.0483,6.8487,6.7628,6.6397,6.4743,6.3782,6.2897,6.2012,5.8781,5.6491,5.5186,5.278,5.1196,5.0318,4.9538,4.8895,4.8454,4.7682,4.7352,4.7241,4.6507,4.6214,4.6287,4.7482,4.8197,4.872,4.986,5.055,5.0971,5.1741,5.201,5.2125,5.2933,5.3203,5.2895,5.1318,5.1395,5.201,5.201,5.2587,5.3203,5.3203,5.3241,5.3318,5.3356,5.3356,5.3356,5.3318,5.2664,5.2049,5.1933,5.0548,4.9125,4.824,4.6586,4.4893,4.3393,4.2393,4.18,4.1805,4.2607,4.3145,4.3111,4.3876,4.4432,4.4547,4.49,4.4908,4.4378,4.4726,4.5827,4.7793,5.1782,5.4945,5.7111,5.8631,5.9924,6.0973,6.1858,6.3128,6.4705,6.4705,6.5128,6.5897,6.5897,6.5897,6.5974,6.6782,6.6628,6.5974,6.6898,6.7744,6.8398,6.8552,6.9552,7.1168,7.7207,7.6976,7.6861,7.7476,7.8323,7.8477,7.7169,7.7515,7.7438,7.6169,7.5822,7.5707,7.5707,7.5515,7.5524,7.578,7.4443,7.3522,7.3292,7.2485,7.0902,6.8513,6.8205,6.7321,6.5628,6.4089,6.2589,6.1089,5.9627,5.8104,5.6537,5.4956,5.3415,5.2009,5.119,5.0743,5.06,5.0115,4.9554,4.904,4.9481,4.926,4.886,5.0079,5.0783,5.1185,5.1801,5.2273,5.2626,5.2818,5.2895,5.2933,5.3126,5.3203,5.3126,5.2702,5.2741,5.2895,5.2895,5.3049,5.3203,5.3203,5.3703,5.4357,5.4972,5.5126,5.4934,5.4318,5.4049,5.3472,5.2164,5.0548,4.9125,4.824,4.5624,4.3778,4.397,4.2739,4.2047,4.2684,4.3508,4.4008,4.3991,4.4778,4.5799,4.7012,4.6013,4.6393,4.883,4.958,4.9721,4.9181,5.308,5.6215,5.8453,5.91,6.0532,6.2704,6.3589,6.4551,6.559,6.559,6.5705,6.5897,6.5897,6.5897,6.5974,6.6782,6.6628,6.609,6.8244,6.8821,6.8552,6.986,7.0552,7.1168,7.84,7.813,7.7977,7.84,7.89,7.89,7.7977,7.79,7.763,7.6707,7.6245,7.6015,7.6015,7.6015,7.6015,7.6015,7.5168,7.4322,7.3553,7.3053,7.1475,6.8552,6.8398,6.7628,6.5936,6.4589,6.3089,6.1396,6.0512,5.9435,5.8127,5.7043,5.5785,5.4306,5.3459,5.2869,5.2454,5.1899,5.1378,5.0971,5.1082,5.0935,5.0775,5.1619,5.2076,5.2341,5.2714,5.2998,5.328,5.3664,5.378,5.3933,5.4703,5.4664,5.4511,5.5318,5.4703,5.378,5.378,5.4049,5.4357,5.4357,5.4703,5.5164,5.5588,5.5703,5.5588,5.5126,5.4741,5.4087,5.2741,5.0818,4.8971,4.774,4.5376,4.3684,4.3739,4.2953,4.2975,4.4662,4.524,4.5932,4.7124,4.7971,4.8529,4.8625,4.8835,4.9258,4.9969,5.2235,5.29,5.1554,5.4925,5.7338,5.857,5.9722,6.1514,6.3897,6.4359,6.5051,6.5897,6.5897,6.5897,6.5897,6.5897,6.609,6.6474,6.6898,6.709,6.7167,6.859,6.9052,6.909,7.0014,7.0591,7.1168,7.8861,7.8784,7.8746,7.8861,7.89,7.8861,7.8707,7.7977,7.7438,7.7323,7.6553,7.6015,7.6015,7.6015,7.5938,7.5822,7.5784,7.5168,7.3591,7.3245,7.1783,6.8744,6.8475,6.7667,6.6128,6.4974,6.3666,6.2089,6.1243,6.0358,5.9473,5.8819,5.7834,5.6664,5.5706,5.489,5.4125,5.3232,5.2895,5.2858,5.2148,5.2086,5.2424,5.2829,5.2959,5.3047,5.3404,5.3587,5.3703,5.4587,5.4895,5.5164,5.6703,5.6703,5.6395,5.7857,5.678,5.5049,5.4895,5.5395,5.5857,5.5742,5.578,5.5857,5.5742,5.578,5.5895,5.5895,5.5357,5.4587,5.3587,5.1318,4.9125,4.7702,4.5666,4.4205,4.3893,4.359,4.4303,4.6799,4.7432,4.8548,5.0856,5.1818,5.1818,5.0625,5.2318,5.2626,5.0856,5.4126,5.5669,5.469,5.696,5.8358,5.8694,6.0715,6.271,6.4589,6.4743,6.5166,6.5897,6.5897,6.5897,6.5897,6.5897,6.6359,6.709,6.709,6.7628,6.8398,6.8552,6.9052,6.9706,6.986,7.0398,7.1321,8.0592,8.0092,7.9823,8.0554,8.0708,8.0439,7.9708,7.8861,7.8054,7.74,7.6553,7.6015,7.6015,7.6015,7.5707,7.4976,7.4899,7.4514,7.3553,7.2129,7.0744,6.9552,6.8783,6.7936,6.6936,6.4666,6.3051,6.2089,6.1243,6.0358,5.9511,5.9358,5.8835,5.7958,5.6754,5.612,5.5931,5.4698,5.4199,5.4199,5.4048,5.4043,5.417,5.4552,5.4688,5.474,5.517,5.5318,5.5434,5.6319,5.6588,5.678,5.778,5.8011,5.7934,5.8204,5.8011,5.755,5.6819,5.6703,5.6626,5.5857,5.6242,5.6588,5.5857,5.628,5.678,5.678,5.6703,5.6126,5.4587,5.2202,5.0414,5.0162,4.6852,4.5026,4.7118,4.6121,4.5893,4.7702,4.9817,5.1587,5.2702,5.3587,5.4587,5.5742,5.4857,5.5088,5.6819,5.755,5.8104,5.8596,5.8689,5.9405,6.0883,6.259,6.382,6.4628,6.5359,6.5782,6.5897,6.5897,6.5897,6.5897,6.5897,6.6359,6.709,6.709,6.7628,6.8475,6.9206,6.959,6.9783,7.0475,7.1245,7.2129,8.1054,8.0785,8.0631,8.1016,8.1093,8.0977,8.0554,7.9361,7.8361,7.7977,7.6823,7.6015,7.6015,7.6015,7.5822,7.5438,7.4591,7.3899,7.3514,7.2322,7.1014,6.9744,6.9321,6.8475,6.7128,6.4589,6.3128,6.2743,6.1435,6.0589,6.0204,5.9704,5.9319,5.8896,5.7872,5.7277,5.6976,5.5969,5.5502,5.5464,5.5009,5.4933,5.516,5.5375,5.5423,5.5446,5.5621,5.6011,5.6472,5.6857,5.7319,5.7857,5.8665,5.8665,5.8473,5.9396,5.9011,5.8204,5.7819,5.7703,5.7588,5.7203,5.7396,5.7588,5.7203,5.7396,5.7703,5.7703,5.7319,5.6626,5.5395,5.2702,5.0721,5.0702,4.7471,4.5683,4.7853,4.7471,4.7914,5.0548,5.2318,5.401,5.578,5.6319,5.6665,5.6973,5.6703,5.6857,5.755,5.8473,5.9127,5.9473,5.9693,6.0735,6.2727,6.3688,6.4718,6.5974,6.6821,6.7013,6.6551,6.7013,6.6744,6.5936,6.6859,6.7475,6.7859,6.8321,6.8975,6.9783,7.0206,7.036,7.0398,7.0744,7.1437,7.2322,8.1208,8.1131,8.1093,8.1093,8.1093,8.1093,8.1093,7.9785,7.8707,7.8515,7.7207,7.6245,7.6015,7.6015,7.5938,7.5707,7.4361,7.3399,7.3206,7.2399,7.1321,7.0052,6.9629,6.8667,6.7128,6.4589,6.332,6.332,6.1627,6.0781,6.0781,6.0127,5.9819,5.9781,5.8934,5.8371,5.7989,5.7187,5.6843,5.6766,5.5887,5.5844,5.628,5.6088,5.6126,5.628,5.628,5.6742,5.7319,5.7511,5.8011,5.8704,5.955,5.9396,5.9127,6.0435,5.9896,5.8858,5.8627,5.8588,5.855,5.8357,5.8434,5.855,5.8357,5.8434,5.8588,5.8588,5.805,5.7319,5.6472,5.3703,5.1645,5.1838,4.8952,4.7357,4.9336,4.9413,5.0394,5.3433,5.4741,5.6242,5.8357,5.8781,5.8588,5.7934,5.8511,5.8588,5.7896,5.9088,5.9973,6.0358,6.0822,6.2032,6.4029,6.4571,6.5645,6.709,6.7975,6.8052,6.7398,6.809,6.7705,6.6551,6.7859,6.8513,6.8744,6.9436,7.0167,7.0898,7.0898,7.0898,7.0898,7.0898,7.1591,7.2591,8.14,8.1208,8.1093,8.1093,8.1093,8.1093,8.1093,8.0323,7.94,7.8592,7.7746,7.6899,7.6092,7.6015,7.5668,7.4861,7.4014,7.3168,7.236,7.1475,7.0937,7.0821,6.9321,6.8052,6.7128,6.4589,6.332,6.332,6.1627,6.0781,6.0781,6.0742,6.0704,6.0666,5.9819,5.9373,5.9335,5.8527,5.8181,5.8081,5.722,5.7335,5.8011,5.7203,5.7396,5.8127,5.8127,5.8165,5.8319,5.905,5.9358,5.955,6.0435,6.0666,6.0627,6.0742,6.0704,6.0435,5.9627,5.9396,5.9242,5.8511,5.8858,5.9204,5.8473,5.8896,5.9396,5.9396,5.9358,5.9088,5.828,5.5972,5.4493,5.5286,5.255,5.1183,5.3706,5.3338,5.351,5.528,5.7011,5.8396,5.9319,6.0127,6.0589,6.0512,6.0589,6.0589,6.0512,6.0627,6.1435,6.2974,6.2653,6.315,6.4501,6.5673,6.6544,6.709,6.7975,6.8359,6.8321,6.8359,6.8321,6.8244,6.8359,6.8859,6.9629,6.9667,7.0167,7.0898,7.0898,7.0898,7.0898,7.0898,7.1975,7.3399,8.1456,8.1323,8.1246,8.1131,8.1093,8.1093,8.1093,8.0362,7.9669,7.9361,7.813,7.7169,7.6823,7.6322,7.5861,7.5553,7.4284,7.336,7.3014,7.1668,7.0667,7.0167,6.9052,6.7975,6.7128,6.5128,6.3858,6.332,6.2166,6.132,6.0781,6.0781,6.0781,6.0781,6.0435,6.0319,6.0242,5.9396,5.905,5.8973,5.8127,5.8011,5.828,5.7934,5.8011,5.8319,5.8319,5.8627,5.9088,5.9396,5.9858,6.0358,6.0704,6.0781,6.0781,6.0781,6.0781,6.0858,6.105,6.0704,6.0242,5.9935,6.0089,6.0242,5.9935,6.0089,6.0319,6.0319,5.9896,5.9396,5.9088,5.6973,5.5703,5.711,5.4493,5.3126,5.5686,5.5301,5.5395,5.7126,5.8357,5.9396,6.0204,6.1089,6.1589,6.1589,6.205,6.2358,6.2358,6.2358,6.2627,6.3281,6.4193,6.5114,6.6128,6.734,6.822,6.8706,6.9552,6.9706,6.9206,6.9706,6.9398,6.8475,6.9513,6.986,6.9744,7.0244,7.0629,7.0898,7.0898,7.1245,7.1629,7.1091,7.2322,7.4168,8.1621,8.1516,8.1362,8.1208,8.1131,8.1093,8.1093,8.0592,8.0131,7.9862,7.8784,7.7861,7.7361,7.6784,7.6284,7.6015,7.4476,7.3514,7.3514,7.186,7.0667,7.009,6.9013,6.8129,6.7513,6.559,6.432,6.3705,6.2627,6.1781,6.1204,6.0935,6.0781,6.0781,6.0781,6.0781,6.0742,6.0165,5.9896,5.9858,5.9011,5.8858,5.905,5.8781,5.8858,5.9088,5.9088,5.9435,5.9896,5.9896,6.0319,6.0781,6.0781,6.0973,6.1243,6.1512,6.1589,6.1704,6.232,6.205,6.1512,6.1281,6.1204,6.1127,6.0858,6.0781,6.0781,6.0781,6.0319,5.9896,5.9896,5.8242,5.7319,5.855,5.6549,5.5549,5.7588,5.7357,5.7511,5.8934,5.9588,6.0242,6.1127,6.1743,6.2204,6.2474,6.2974,6.332,6.332,6.3551,6.3705,6.3705,6.5628,6.6936,6.7513,6.8608,6.9336,6.9706,7.0514,7.0591,7.009,7.0667,7.0283,6.9244,7.0398,7.0591,7.0129,7.0975,7.1168,7.0937,7.1514,7.1898,7.2168,7.1822,7.2976,7.463,8.1992,8.167,8.1393,8.14,8.1208,8.1093,8.1093,8.1093,8.0785,7.9939,7.9823,7.9169,7.7476,7.7284,7.6938,7.6092,7.4476,7.3514,7.3514,7.186,7.0898,7.0898,6.9321,6.8398,6.8398,6.5897,6.4628,6.4589,6.2935,6.2089,6.2089,6.1204,6.0819,6.0781,6.0781,6.0781,6.0781,6.0781,6.0781,6.0704,5.9858,6.0012,6.0704,5.9858,6.005,6.0781,6.0781,6.0781,6.0781,6.0819,6.0819,6.0781,6.0819,6.1396,6.2281,6.3089,6.332,6.332,6.332,6.332,6.3128,6.232,6.2089,6.1858,6.1012,6.0819,6.0819,6.0819,6.0819,6.0819,6.0819,6.0127,5.9588,5.9804,5.9111,5.8803,5.9688,5.9804,6.0073,6.0742,6.0819,6.1166,6.2012,6.2127,6.2435,6.3243,6.332,6.332,6.332,6.4128,6.4628,6.4628,6.709,6.8398,6.8398,6.9283,6.9706,6.9706,7.0514,7.0898,7.0898,7.0898,7.0898,7.0898,7.0898,7.0898,7.0975,7.1822,7.1668,7.1091,7.2822,7.2976,7.2322,7.3168,7.4014,7.4707,8.2031,8.1881,8.1739,8.1456,8.1323,8.1246,8.1131,8.1093,8.1016,8.0746,8.0169,7.94,7.8246,7.763,7.7015,7.6245,7.5053,7.386,7.2668,7.1514,7.0898,7.0898,6.9898,6.8744,6.7513,6.6744,6.5782,6.4589,6.4089,6.3243,6.2089,6.182,6.1396,6.0781,6.0781,6.0781,6.0781,6.0781,6.0781,6.0781,6.0512,6.055,6.0781,6.0512,6.055,6.0781,6.0781,6.0781,6.0896,6.1512,6.132,6.0896,6.1512,6.2281,6.2974,6.3243,6.332,6.3435,6.4051,6.4205,6.4012,6.3166,6.2935,6.2858,6.2627,6.2551,6.2551,6.2551,6.2551,6.2551,6.2551,6.2358,6.2204,6.2243,6.1627,6.1204,6.1381,6.1473,6.1589,6.1704,6.2204,6.2666,6.2935,6.3512,6.3935,6.4205,6.4782,6.4859,6.4243,6.5051,6.5513,6.5513,6.7398,6.8706,6.9321,7.0129,7.0552,7.0552,7.0783,7.1206,7.1822,7.1822,7.1822,7.1822,7.1822,7.1475,7.0937,7.1168,7.1475,7.186,7.236,7.3168,7.3937,7.363,7.4399,7.5515,8.2148,8.2031,8.1933,8.167,8.1491,8.1362,8.1246,8.1131,8.1093,8.1093,8.0631,8.0015,7.9208,7.8323,7.7553,7.6967,7.5707,7.4361,7.2927,7.2349,7.186,7.1437,7.0937,6.9898,6.8167,6.7782,6.6936,6.559,6.5282,6.4436,6.3051,6.2397,6.182,6.1281,6.0935,6.0781,6.0781,6.0781,6.0781,6.0781,6.0781,6.0781,6.0781,6.0781,6.0781,6.0858,6.1166,6.132,6.1435,6.2281,6.2204,6.1935,6.282,6.3435,6.3974,6.4705,6.4922,6.5114,6.5999,6.623,6.5974,6.5051,6.432,6.3743,6.3397,6.332,6.332,6.332,6.332,6.332,6.332,6.332,6.332,6.3435,6.3128,6.2858,6.2781,6.282,6.282,6.2704,6.3051,6.3435,6.3782,6.4282,6.4743,6.5089,6.559,6.582,6.559,6.609,6.6513,6.6898,6.8205,6.9167,6.9706,7.0514,7.0898,7.0898,7.1245,7.1668,7.2206,7.2552,7.2706,7.2706,7.236,7.1898,7.1437,7.1783,7.2052,7.2283,7.3322,7.4091,7.4668,7.4553,7.513,7.5938,8.2304,8.2148,8.2031,8.1992,8.1719,8.1466,8.1431,8.1246,8.1131,8.1131,8.1093,8.0823,8.0161,7.9131,7.8353,7.7959,7.6349,7.495,7.3971,7.384,7.335,7.236,7.2245,7.1475,6.9975,6.9013,6.809,6.7244,6.6436,6.559,6.4705,6.3089,6.2281,6.2166,6.1281,6.0973,6.1012,6.0858,6.0819,6.0896,6.0819,6.0858,6.0935,6.0935,6.0973,6.1127,6.1897,6.2204,6.232,6.3051,6.3397,6.3666,6.4359,6.4705,6.5166,6.691,6.746,6.7677,6.85,6.8681,6.8462,6.7436,6.6051,6.4705,6.3858,6.3705,6.3782,6.3782,6.3782,6.3782,6.3782,6.3705,6.3705,6.3897,6.3897,6.3897,6.3897,6.3897,6.382,6.3743,6.3589,6.3858,6.4628,6.4705,6.5089,6.5936,6.6013,6.6359,6.7167,6.7205,6.7628,6.8513,6.9283,6.9783,6.9937,7.0667,7.1014,7.1014,7.1822,7.2283,7.2437,7.3245,7.363,7.3553,7.2783,7.236,7.236,7.3168,7.3091,7.2629,7.4976,7.5438,7.4899,7.5707,7.6015,7.6015,8.2304,8.2265,8.2187,8.2031,8.1933,8.1831,8.1649,8.1439,8.1323,8.1323,8.1208,8.0823,8.0161,7.9285,7.8554,7.8151,7.6552,7.5318,7.4749,7.4154,7.363,7.3245,7.2552,7.2014,7.1668,7.0206,6.9052,6.8347,6.7475,6.6628,6.5743,6.4705,6.3795,6.3012,6.2166,6.2166,6.2666,6.1358,6.1166,6.1743,6.105,6.1204,6.182,6.182,6.2204,6.2781,6.2974,6.3051,6.3089,6.3243,6.4205,6.5243,6.4743,6.5615,6.6871,6.7295,6.7947,6.859,6.8684,6.8706,6.8629,6.8205,6.7859,6.7359,6.6474,6.6821,6.7282,6.7282,6.7282,6.7282,6.7282,6.6744,6.6282,6.632,6.5359,6.4564,6.4576,6.4589,6.4564,6.4512,6.5013,6.5397,6.559,6.5628,6.5974,6.6782,6.6821,6.7205,6.809,6.8129,6.8513,6.9398,6.959,7.0321,7.1629,7.1822,7.1898,7.1898,7.2091,7.2899,7.4168,7.4361,7.4437,7.4437,7.4245,7.3822,7.3245,7.3437,7.3783,7.4207,7.4784,7.5284,7.5745,7.5938,7.6015,7.6207,8.2304,8.2304,8.2265,8.2148,8.207,8.1976,8.1881,8.1677,8.1517,8.1424,8.1285,8.1093,8.0746,7.9939,7.9084,7.8267,7.705,7.6238,7.5923,7.5421,7.4861,7.4216,7.3707,7.3206,7.2822,7.1552,7.036,6.9271,6.8398,6.7586,6.6826,6.5465,6.4526,6.3988,6.3089,6.2897,6.3243,6.2358,6.2243,6.2627,6.2166,6.2281,6.2666,6.2666,6.2935,6.3358,6.3782,6.4436,6.5051,6.4666,6.5667,6.6936,6.6051,6.6808,6.8115,6.8586,6.9188,6.9729,6.995,7.0036,6.986,6.9206,6.9321,6.9244,6.8013,6.809,6.8398,6.8398,6.8398,6.8398,6.8398,6.8013,6.7705,6.7705,6.709,6.6474,6.6153,6.6474,6.6474,6.5653,6.6538,6.7231,6.709,6.709,6.7282,6.7705,6.7705,6.809,6.8975,6.9013,6.9398,7.0244,7.0667,7.1321,7.2168,7.2591,7.3014,7.3399,7.3399,7.386,7.4707,7.513,7.5322,7.5284,7.4899,7.4476,7.4091,7.4091,7.4322,7.4745,7.5168,7.5592,7.6015,7.6015,7.6015,7.6169,8.2304,8.2304,8.2304,8.2304,8.2148,8.2031,8.2031,8.1883,8.167,8.149,8.1415,8.14,8.14,8.0674,7.9674,7.8346,7.7736,7.7265,7.6914,7.6721,7.6195,7.5255,7.4899,7.4399,7.3745,7.2899,7.1811,7.0387,6.9348,6.8626,6.8143,6.6206,6.5303,6.518,6.4051,6.3589,6.3743,6.3435,6.3397,6.3512,6.3358,6.3397,6.3512,6.3512,6.3705,6.4051,6.4782,6.5936,6.6974,6.6167,6.6898,6.8052,6.7359,6.7962,6.9128,6.9955,7.0464,7.0873,7.1331,7.1584,7.1398,7.0206,7.0514,7.0744,6.936,6.8936,6.8821,6.8821,6.8821,6.8821,6.8821,6.8706,6.8629,6.8629,6.859,6.8385,6.7872,6.8385,6.8321,6.6936,6.7885,6.8578,6.8436,6.8398,6.8475,6.8629,6.8629,6.9052,7.0052,7.0129,7.0514,7.1321,7.2052,7.2476,7.2629,7.336,7.413,7.4938,7.4938,7.4938,7.4938,7.5668,7.6015,7.5976,7.5245,7.4938,7.4938,7.4938,7.4938,7.4976,7.5707,7.6015,7.6015,7.6015,7.6015,7.613,8.2304,8.2304,8.2304,8.2304,8.2265,8.2265,8.2265,8.2107,8.187,8.1687,8.1517,8.14,8.14,8.0917,8.0055,7.8571,7.8395,7.793,7.6953,7.6731,7.6457,7.6121,7.5207,7.4668,7.4553,7.3927,7.3157,7.2338,7.0738,7.0024,7.0072,6.8193,6.7211,6.6962,6.5205,6.4859,6.5436,6.3935,6.3743,6.4359,6.3589,6.3743,6.4436,6.4436,6.532,6.659,6.6705,6.6898,6.6974,6.6167,6.6513,6.7282,6.7346,6.8565,6.999,7.0169,7.0975,7.1735,7.1352,7.1876,7.2255,7.1052,7.1398,7.1937,7.1745,7.1091,7.0552,7.0552,7.0552,7.0552,7.0552,6.9975,6.9513,6.9513,6.8898,6.8436,6.8475,6.8616,6.8616,6.8359,6.8398,6.8436,6.8398,6.8398,6.8706,6.9475,6.9513,7.0206,7.1783,7.186,7.2245,7.3129,7.3283,7.3668,7.4361,7.4476,7.4976,7.5822,7.5822,7.5822,7.5822,7.5938,7.6015,7.5976,7.5861,7.5822,7.5822,7.5822,7.5822,7.5822,7.5938,7.6015,7.6015,7.6015,7.6015,7.613,8.2304,8.2304,8.2304,8.2304,8.2304,8.2304,8.2304,8.2226,8.2104,8.1863,8.1793,8.1662,8.14,8.088,8.0374,7.9921,7.9453,7.8789,7.7851,7.7595,7.7183,7.6496,7.5899,7.5553,7.5438,7.4812,7.4115,7.3452,7.182,7.0887,7.0586,6.9195,6.819,6.7526,6.6577,6.6076,6.5859,6.5089,6.4974,6.5282,6.4897,6.5243,6.6013,6.6013,6.6744,6.7821,6.7821,6.8129,6.8436,6.759,6.8167,6.9167,6.8886,7.012,7.1647,7.1609,7.2413,7.3159,7.2714,7.2909,7.3101,7.2514,7.2629,7.2783,7.2322,7.2283,7.2206,7.1745,7.1629,7.1629,7.1629,7.1321,7.1091,7.1091,7.036,6.9706,6.9371,6.9783,7.0117,7.0052,6.9898,6.9821,6.9821,7.0244,7.0475,7.0398,7.0821,7.1398,7.2168,7.2668,7.3091,7.3514,7.3937,7.4361,7.4707,7.5168,7.563,7.6015,7.6015,7.6015,7.6015,7.6015,7.6015,7.6015,7.6015,7.6015,7.6015,7.6015,7.6015,7.6015,7.6015,7.6015,7.6015,7.6015,7.6015,7.6053]},{"header":{"parameterUnit":"m.s-1","parameterCategory":1,"la1":30.6,"la2":28.766,"lo1":-90.7593,"lo2":-88.6598,"dy":0.0162,"dx":0.0183,"nx":116,"ny":114,"refTime":"2023-10-16T18:00:00:Z","depth":0,"parameterNumber":3,"parameterNumberName":"V-component_of_WINDS"},"data":[0.0,0.0,0.0,0.0,0.0,0.0,0.0,0.0,0.0,0.0,0.0,0.0,0.0,0.0,0.0,0.0,0.0,0.0,0.0,0.0,0.0,0.0,0.0,0.0,0.0,0.0,0.0,0.0,0.0,0.0,0.0,0.0,0.0,0.0,0.0,0.0,0.0,0.0,0.0,0.0,0.0,0.0,0.0,0.0,0.0,0.0,0.0,0.0,0.0,0.0,0.0,0.0,0.0,0.0,0.0,0.0,0.0,0.0,0.0,0.0,0.0,0.0,0.0,0.0,0.0,0.0,0.0,0.0,0.0,0.0,0.0,0.0,0.0,0.0,0.0,0.0,0.0,0.0,0.0,0.0,0.0,0.0,0.0,0.0,0.0,0.0,0.0,0.0,0.0,0.0,0.0,0.0,0.0,0.0,0.0,0.0,0.0,0.0,0.0,0.0,0.0,0.0,0.0,0.0,0.0,0.0,0.0,0.0,0.0,0.0,0.0,0.0,0.0,0.0,0.0,0.0,0.0,0.0,0.0,0.0,0.0,0.0,0.0,0.0,0.0,0.0,0.0,0.0,0.0,0.0,0.0,0.0,0.0,0.0,0.0,0.0,0.0,0.0,0.0,0.0,0.0,0.0,0.0,0.0,0.0,0.0,0.0,0.0,0.0,0.0,0.0,0.0,0.0,0.0,0.0,0.0,0.0,0.0,0.0,0.0,0.0,0.0,0.0,0.0,0.0,0.0,0.0,0.0,0.0,0.0,0.0,0.0,0.0,0.0,0.0,0.0,0.0,0.0,0.0,0.0,0.0,0.0,0.0,0.0,0.0,0.0,0.0,0.0,0.0,0.0,0.0,0.0,0.0,0.0,0.0,0.0,0.0,0.0,0.0,0.0,0.0,0.0,0.0,0.0,0.0,0.0,0.0,0.0,0.0,0.0,0.0,0.0,0.0,0.0,0.0,0.0,0.0,0.0,0.0,0.0,0.0,0.0,0.0,0.0,0.0,0.0,0.0,0.0,0.0,0.0,0.0,0.0,0.0,0.0,0.0,0.0,0.0,0.0,0.0,0.0,0.0,0.0,0.0,0.0,0.0,0.0,0.0,0.0,0.0,0.0,0.0,0.0,0.0,0.0,0.0,0.0,0.0,0.0,0.0,0.0,0.0,0.0,0.0,0.0,0.0,0.0,0.0,0.0,0.0,0.0,0.0,0.0,0.0,0.0,0.0,0.0,0.0,0.0,0.0,0.0,0.0,0.0,0.0,0.0,0.0,0.0,0.0,0.0,0.0,0.0,0.0,0.0,0.0,0.0,0.0,0.0,0.0,0.0,0.0,0.0,0.0,0.0,0.0,0.0,0.0,0.0,0.0,0.0,0.0,0.0,0.0,0.0,0.0,0.0,0.0,0.0,0.0,0.0,0.0,0.0,0.0,0.0,0.0,0.0,0.0,0.0,0.0,0.0,0.0,0.0,0.0,0.0,0.0,0.0,0.0,0.0,0.0,0.0,0.0,0.0,0.0,0.0,0.0,0.0,0.0,0.0,0.0,0.0,0.0,0.0,0.0,0.0,0.0,0.0,0.0,0.0,0.0,0.0,0.0,0.0,0.0,0.0,0.0,0.0,0.0,0.0,0.0,0.0,0.0,0.0,0.0,0.0,0.0,0.0,0.0,0.0,0.0,0.0,0.0,0.0,0.0,0.0,0.0,0.0,0.0,0.0,0.0,0.0,0.0,0.0,0.0,0.0,0.0,0.0,0.0,0.0,0.0,0.0,0.0,0.0,0.0,0.0,0.0,0.0,0.0,0.0,0.0,0.0,0.0,0.0,0.0,0.0,0.0,0.0,0.0,0.0,0.0,0.0,0.0,0.0,0.0,0.0,0.0,0.0,0.0,0.0,0.0,0.0,0.0,0.0,0.0,0.0,0.0,0.0,0.0,0.0,0.0,0.0,0.0,0.0,0.0,0.0,0.0,0.0,0.0,0.0,0.0,0.0,0.0,0.0,0.0,0.0,0.0,0.0,0.0,0.0,0.0,0.0,0.0,0.0,0.0,0.0,0.0,0.0,0.0,0.0,0.0,0.0,0.0,0.0,0.0,0.0,0.0,0.0,0.0,0.0,0.0,0.0,0.0,0.0,0.0,0.0,0.0,0.0,0.0,0.0,0.0,0.0,0.0,0.0,0.0,0.0,0.0,0.0,0.0,0.0,0.0,0.0,0.0,0.0,0.0,0.0,0.0,0.0,0.0,0.0,0.0,0.0,0.0,0.0,0.0,0.0,0.0,0.0,0.0,0.0,0.0,0.0,0.0,0.0,0.0,0.0,0.0,0.0,0.0,0.0,0.0,0.0,0.0,0.0,0.0,0.0,0.0,0.0,0.0,0.0,0.0,0.0,0.0,0.0,0.0,0.0,0.0,0.0,0.0,0.0,0.0,0.0,0.0,0.0,0.0,0.0,0.0,0.0,0.0,0.0,0.0,0.0,0.0,0.0,0.0,0.0,0.0,0.0,0.0,0.0,0.0,0.0,0.0,0.0,0.0,0.0,0.0,0.0,0.0,0.0,0.0,0.0,0.0,0.0,0.0,0.0,0.0,0.0,0.0,0.0,0.0,0.0,0.0,0.0,0.0,0.0,0.0,0.0,0.0,0.0,0.0,0.0,0.0,0.0,0.0,0.0,0.0,0.0,0.0,0.0,0.0,0.0,0.0,0.0,0.0,0.0,0.0,0.0,0.0,0.0,0.0,0.0,0.0,0.0,0.0,0.0,0.0,0.0,0.0,0.0,0.0,0.0,0.0,0.0,0.0,0.0,0.0,0.0,0.0,0.0,0.0,0.0,0.0,0.0,0.0,0.0,0.0,0.0,0.0,0.0,0.0,0.0,0.0,0.0,0.0,0.0,0.0,0.0,0.0,0.0,0.0,0.0,0.0,0.0,0.0,0.0,0.0,0.0,0.0,0.0,0.0,0.0,0.0,0.0,0.0,0.0,0.0,0.0,0.0,0.0,0.0,0.0,0.0,0.0,0.0,0.0,0.0,0.0,0.0,0.0,0.0,0.0,0.0,0.0,0.0,0.0,0.0,0.0,0.0,0.0,0.0,0.0,0.0,0.0,0.0,0.0,0.0,0.0,0.0,0.0,0.0,0.0,0.0,0.0,0.0,0.0,0.0,0.0,0.0,0.0,0.0,0.0,0.0,0.0,0.0,0.0,0.0,0.0,0.0,0.0,0.0,0.0,0.0,0.0,0.0,0.0,0.0,0.0,0.0,0.0,0.0,0.0,0.0,0.0,0.0,0.0,0.0,0.0,0.0,0.0,0.0,0.0,0.0,0.0,0.0,0.0,0.0,0.0,0.0,0.0,0.0,0.0,0.0,0.0,0.0,0.0,0.0,0.0,0.0,0.0,0.0,0.0,0.0,0.0,0.0,0.0,0.0,0.0,0.0,0.0,0.0,0.0,0.0,0.0,0.0,0.0,0.0,0.0,0.0,0.0,0.0,0.0,0.0,0.0,0.0,0.0,0.0,0.0,0.0,0.0,0.0,0.0,0.0,0.0,0.0,0.0,0.0,0.0,0.0,0.0,0.0,0.0,0.0,0.0,0.0,0.0,0.0,0.0,0.0,0.0,0.0,0.0,0.0,0.0,0.0,0.0,0.0,0.0,0.0,0.0,0.0,0.0,0.0,0.0,0.0,0.0,0.0,0.0,0.0,0.0,0.0,0.0,0.0,0.0,0.0,0.0,0.0,0.0,0.0,0.0,0.0,0.0,0.0,0.0,0.0,0.0,0.0,0.0,0.0,0.0,0.0,0.0,0.0,0.0,0.0,0.0,0.0,0.0,0.0,0.0,0.0,0.0,0.0,0.0,0.0,0.0,0.0,0.0,0.0,0.0,0.0,0.0,0.0,0.0,0.0,0.0,0.0,0.0,0.0,0.0,0.0,0.0,0.0,0.0,0.0,0.0,0.0,0.0,0.0,0.0,0.0,0.0,0.0,0.0,0.0,0.0,0.0,0.0,0.0,0.0,0.0,0.0,0.0,0.0,0.0,0.0,0.0,0.0,0.0,0.0,0.0,0.0,0.0,0.0,0.0,0.0,0.0,0.0,0.0,0.0,0.0,0.0,0.0,0.0,0.0,0.0,0.0,0.0,0.0,0.0,0.0,0.0,0.0,0.0,0.0,0.0,0.0,0.0,0.0,0.0,0.0,0.0,0.0,0.0,0.0,0.0,0.0,0.0,0.0,0.0,0.0,0.0,0.0,0.0,0.0,0.0,0.0,0.0,0.0,0.0,0.0,0.0,0.0,0.0,0.0,0.0,0.0,0.0,0.0,0.0,0.0,0.0,0.0,0.0,0.0,0.0,0.0,0.0,0.0,0.0,0.0,0.0,0.0,0.0,0.0,0.0,0.0,0.0,0.0,0.0,0.0,0.0,0.0,0.0,0.0,0.0,0.0,0.0,0.0,0.0,0.0,0.0,0.0,0.0,0.0,0.0,0.0,0.0,0.0,0.0,0.0,0.0,0.0,0.0,0.0,0.0,0.0,0.0,0.0,0.0,0.0,0.0,0.0,0.0,0.0,0.0,0.0,0.0,0.0,0.0,0.0,0.0,0.0,0.0,0.0,0.0,0.0,0.0,0.0,0.0,0.0,0.0,0.0,0.0,0.0,0.0,0.0,0.0,0.0,0.0,0.0,0.0,0.0,0.0,0.0,0.0,0.0,0.0,0.0,0.0,0.0,0.0,0.0,0.0,0.0,0.0,0.0,0.0,0.0,0.0,0.0,0.0,0.0,0.0,0.0,0.0,0.0,0.0,0.0,0.0,0.0,0.0,0.0,0.0,0.0,0.0,0.0,0.0,0.0,0.0,0.0,0.0,0.0,0.0,0.0,0.0,0.0,0.0,0.0,0.0,0.0,0.0,0.0,0.0,0.0,0.0,0.0,0.0,0.0,0.0,0.0,0.0,0.0,0.0,0.0,0.0,0.0,0.0,0.0,0.0,0.0,0.0,0.0,0.0,0.0,0.0,0.0,0.0,0.0,0.0,0.0,0.0,0.0,0.0,0.0,0.0,0.0,0.0,0.0,0.0,0.0,0.0,0.0,0.0,0.0,0.0,0.0,0.0,0.0,0.0,0.0,0.0,0.0,0.0,0.0,0.0,0.0,0.0,0.0,0.0,0.0,0.0,0.0,0.0,0.0,0.0,0.0,0.0,0.0,0.0,0.0,0.0,0.0,0.0,0.0,0.0,0.0,0.0,0.0,0.0,0.0,0.0,0.0,0.0,0.0,0.0,0.0,0.0,0.0,0.0,0.0,0.0,0.0,0.0,0.0,0.0,0.0,0.0,0.0,0.0,0.0,0.0,0.0,0.0,0.0,0.0,0.0,0.0,0.0,0.0,0.0,0.0,0.0,0.0,0.0,0.0,0.0,0.0,0.0,0.0,0.0,0.0,0.0,0.0,0.0,0.0,0.0,0.0,0.0,0.0,0.0,0.0,0.0,0.0,0.0,0.0,0.0,0.0,0.0,0.0,0.0,0.0,0.0,0.0,0.0,0.0,0.0,0.0,0.0,0.0,0.0,0.0,0.0,0.0,0.0,0.0,0.0,0.0,0.0,0.0,0.0,0.0,0.0,0.0,0.0,0.0,0.0,0.0,0.0,0.0,0.0,0.0,0.0,0.0,0.0,0.0,0.0,0.0,0.0,0.0,0.0,0.0,0.0,0.0,0.0,0.0,0.0,0.0,0.0,0.0,0.0,0.0,0.0,0.0,0.0,0.0,0.0,0.0,0.0,0.0,0.0,0.0,0.0,0.0,0.0,0.0,0.0,0.0,0.0,0.0,0.0,0.0,0.0,0.0,0.0,0.0,0.0,0.0,0.0,0.0,0.0,0.0,0.0,0.0,0.0,0.0,0.0,0.0,0.0,0.0,0.0,0.0,0.0,0.0,0.0,0.0,0.0,0.0,0.0,0.0,0.0,0.0,0.0,0.0,0.0,0.0,0.0,0.0,0.0,0.0,0.0,0.0,0.0,0.0,0.0,0.0,0.0,0.0,0.0,0.0,0.0,0.0,0.0,0.0,0.0,0.0,0.0,0.0,0.0,0.0,0.0,0.0,0.0,0.0,-1.0953,0.0,0.0,0.0,0.0,0.0,0.0,0.0,0.0,0.0,0.0,0.0,0.0,0.0,0.0,0.0,0.0,0.0,0.0,0.0,0.0,0.0,0.0,0.0,0.0,0.0,0.0,0.0,0.0,0.0,0.0,0.0,0.0,0.0,0.0,0.0,0.0,0.0,0.0,0.0,0.0,0.0,0.0,0.0,0.0,0.0,0.0,0.0,0.0,0.0,0.0,0.0,0.0,0.0,0.0,0.0,0.0,0.0,0.0,0.0,0.0,0.0,0.0,0.0,0.0,0.0,0.0,0.0,0.0,0.0,0.0,0.0,0.0,0.0,0.0,0.0,0.0,0.0,0.0,0.0,0.0,0.0,0.0,0.0,0.0,0.0,0.0,0.0,0.0,0.0,0.0,0.0,0.0,0.0,0.0,0.0,0.0,0.0,0.0,0.0,0.0,0.0,0.0,0.0,0.0,0.0,0.0,0.0,0.0,0.0,0.0,0.0,0.0,0.0,0.0,0.0,0.0,-1.1623,0.0,0.0,0.0,0.0,0.0,0.0,0.0,0.0,0.0,0.0,0.0,0.0,0.0,0.0,0.0,0.0,0.0,0.0,0.0,0.0,0.0,0.0,0.0,0.0,0.0,0.0,0.0,0.0,0.0,0.0,0.0,0.0,0.0,0.0,0.0,0.0,0.0,0.0,0.0,0.0,0.0,0.0,0.0,0.0,0.0,0.0,0.0,0.0,0.0,0.0,0.0,0.0,0.0,0.0,0.0,0.0,0.0,0.0,0.0,0.0,0.0,0.0,0.0,0.0,0.0,0.0,0.0,0.0,0.0,0.0,0.0,0.0,0.0,0.0,0.0,0.0,0.0,0.0,0.0,0.0,0.0,0.0,0.0,0.0,0.0,0.0,0.0,0.0,0.0,0.0,0.0,0.0,0.0,0.0,0.0,0.0,0.0,0.0,0.0,0.0,0.0,0.0,0.0,0.0,0.0,0.0,0.0,0.0,-1.6908,-1.7298,-1.7701,-1.7486,-1.7238,-1.6935,-1.5259,-1.4243,-1.3561,-1.3094,0.0,0.0,0.0,0.0,0.0,0.0,0.0,0.0,0.0,0.0,0.0,0.0,0.0,0.0,0.0,0.0,0.0,0.0,0.0,0.0,0.0,0.0,0.0,0.0,0.0,0.0,0.0,0.0,0.0,0.0,0.0,0.0,0.0,0.0,0.0,0.0,0.0,0.0,0.0,0.0,0.0,0.0,0.0,0.0,0.0,0.0,0.0,0.0,0.0,0.0,0.0,0.0,0.0,0.0,0.0,0.0,0.0,0.0,0.0,0.0,0.0,0.0,0.0,0.0,0.0,0.0,0.0,0.0,0.0,0.0,0.0,0.0,0.0,0.0,0.0,0.0,0.0,0.0,0.0,0.0,0.0,0.0,0.0,0.0,0.0,0.0,-1.1182,-1.1692,0.0,0.0,0.0,0.0,0.0,0.0,0.0,0.0,0.0,0.0,0.0,0.0,0.0,-1.6757,-1.7074,-1.7688,-1.8144,-1.8198,-1.8789,-1.9025,-1.9132,-1.9132,-1.911,-1.9372,-1.9105,0.0,-1.4825,-1.4255,0.0,0.0,0.0,0.0,0.0,0.0,0.0,0.0,0.0,0.0,0.0,0.0,0.0,0.0,0.0,0.0,0.0,0.0,0.0,0.0,0.0,0.0,0.0,0.0,0.0,0.0,0.0,0.0,0.0,0.0,0.0,0.0,0.0,0.0,0.0,0.0,0.0,0.0,0.0,0.0,0.0,0.0,0.0,0.0,0.0,0.0,0.0,0.0,0.0,0.0,0.0,0.0,0.0,0.0,0.0,0.0,0.0,0.0,0.0,0.0,0.0,0.0,0.0,0.0,0.0,0.0,0.0,0.0,0.0,0.0,0.0,0.0,0.0,0.0,0.0,0.0,0.0,0.0,0.0,0.0,0.0,0.0,0.0,0.0,0.0,-1.2351,-1.3341,-1.2913,-1.3755,-1.4097,0.0,0.0,0.0,0.0,0.0,0.0,0.0,0.0,0.0,-1.6879,-1.7582,-1.8204,-1.8768,-1.9408,-1.996,-2.0454,-2.0882,-2.1176,-2.1336,-2.1336,-2.1403,-2.1523,-2.1523,-2.0508,-1.8619,-1.7078,-1.5673,-1.433,0.0,0.0,0.0,0.0,-1.1693,-1.2308,0.0,0.0,0.0,0.0,0.0,0.0,0.0,0.0,0.0,0.0,0.0,0.0,0.0,0.0,0.0,0.0,0.0,0.0,0.0,0.0,0.0,0.0,0.0,0.0,0.0,0.0,0.0,0.0,0.0,0.0,0.0,0.0,0.0,0.0,0.0,0.0,0.0,0.0,0.0,0.0,0.0,0.0,0.0,0.0,0.0,0.0,0.0,0.0,0.0,0.0,0.0,0.0,0.0,0.0,0.0,0.0,0.0,0.0,0.0,0.0,0.0,0.0,0.0,0.0,0.0,0.0,0.0,0.0,0.0,0.0,0.0,0.0,0.0,0.0,0.0,0.0,0.0,-1.3893,-1.4874,-1.3931,-1.5106,-1.5531,0.0,0.0,0.0,0.0,0.0,0.0,-1.6206,-1.6961,-1.7806,-1.8658,-1.9104,-1.9733,-2.0695,-2.1136,-2.1764,-2.2552,-2.2779,-2.3033,-2.3313,-2.3233,-2.3207,-2.3207,-2.3126,-2.2686,-2.1844,-1.9457,-1.7642,-1.6214,-1.5178,-1.4369,-1.3711,-1.329,-1.3477,-1.409,0.0,0.0,0.0,0.0,0.0,0.0,0.0,0.0,0.0,0.0,0.0,0.0,0.0,0.0,0.0,0.0,0.0,0.0,0.0,0.0,0.0,0.0,0.0,0.0,0.0,0.0,0.0,0.0,0.0,0.0,0.0,0.0,0.0,0.0,0.0,0.0,0.0,0.0,0.0,0.0,0.0,0.0,0.0,0.0,0.0,0.0,0.0,0.0,0.0,0.0,0.0,0.0,0.0,0.0,0.0,0.0,0.0,0.0,0.0,0.0,0.0,0.0,0.0,0.0,0.0,0.0,0.0,0.0,0.0,0.0,0.0,0.0,0.0,0.0,0.0,0.0,0.0,0.0,0.0,-1.4545,-1.6188,0.0,0.0,0.0,0.0,-1.554,-1.6648,-1.7495,-1.7991,-1.8977,-1.9987,-2.0882,-2.1229,-2.1964,-2.314,-2.318,-2.35,-2.4088,-2.4102,-2.4262,-2.4543,-2.4262,-2.4128,-2.4115,-2.3848,-2.3541,-2.306,-2.0708,-1.9127,-1.7953,-1.6433,-1.6036,-1.6278,-1.5699,-1.5869,-1.65,0.0,0.0,0.0,0.0,0.0,0.0,0.0,0.0,0.0,0.0,0.0,0.0,0.0,0.0,0.0,0.0,0.0,0.0,0.0,0.0,0.0,0.0,0.0,0.0,0.0,0.0,0.0,0.0,0.0,0.0,0.0,0.0,0.0,0.0,0.0,0.0,0.0,0.0,0.0,0.0,0.0,0.0,0.0,0.0,0.0,0.0,0.0,0.0,0.0,0.0,0.0,0.0,0.0,0.0,0.0,0.0,0.0,0.0,0.0,0.0,0.0,0.0,0.0,0.0,0.0,0.0,0.0,0.0,0.0,0.0,0.0,0.0,0.0,0.0,0.0,0.0,0.0,0.0,0.0,-1.7329,-1.8727,0.0,-1.7623,-1.7585,-1.7633,-1.753,-1.8397,-1.9239,-2.0,-2.1002,-2.1897,-2.2792,-2.3113,-2.3647,-2.4449,-2.4449,-2.4649,-2.505,-2.505,-2.5104,-2.5197,-2.509,-2.4943,-2.4756,-2.4663,-2.4342,-2.3808,-2.2779,-2.1421,-1.9971,-1.8889,-1.8308,-1.8031,-1.7635,-1.7769,-1.8116,0.0,0.0,0.0,0.0,0.0,0.0,0.0,0.0,0.0,0.0,0.0,0.0,0.0,0.0,0.0,0.0,0.0,0.0,0.0,0.0,0.0,0.0,0.0,0.0,0.0,0.0,0.0,0.0,0.0,0.0,0.0,0.0,0.0,0.0,0.0,0.0,0.0,0.0,0.0,0.0,0.0,0.0,-0.8413,0.0,0.0,0.0,0.0,0.0,0.0,0.0,0.0,0.0,0.0,0.0,0.0,0.0,0.0,0.0,0.0,0.0,0.0,0.0,0.0,0.0,0.0,0.0,0.0,0.0,0.0,0.0,0.0,0.0,0.0,0.0,0.0,0.0,0.0,0.0,-1.9458,-1.9264,-2.0079,-2.0462,-1.9955,-1.9179,-1.9101,-1.9971,-2.0584,-2.1336,-2.2111,-2.2792,-2.3487,-2.4195,-2.4396,-2.4823,-2.5518,-2.5424,-2.5625,-2.6106,-2.5905,-2.5865,-2.5945,-2.5745,-2.5085,-2.4278,-2.4961,-2.4547,-2.3561,-2.3931,-2.3313,-2.2044,-2.0962,-2.0241,-1.976,-1.9372,-1.9345,-1.9506,0.0,0.0,0.0,0.0,0.0,0.0,0.0,0.0,0.0,0.0,0.0,0.0,0.0,0.0,0.0,0.0,0.0,0.0,0.0,0.0,0.0,0.0,0.0,0.0,0.0,0.0,0.0,0.0,0.0,0.0,0.0,0.0,0.0,0.0,0.0,0.0,0.0,0.0,0.0,0.0,0.0,0.0,-0.8806,0.0,0.0,0.0,0.0,0.0,0.0,0.0,0.0,0.0,0.0,0.0,0.0,0.0,0.0,0.0,0.0,0.0,0.0,0.0,0.0,0.0,0.0,0.0,0.0,0.0,0.0,0.0,0.0,0.0,0.0,0.0,0.0,0.0,-1.6285,-1.8702,-2.0351,-1.9986,-1.9931,-2.0347,-2.1486,-1.9808,-1.982,-2.2709,-2.3207,-2.3634,-2.4195,-2.4529,-2.4836,-2.5117,-2.5144,-2.5558,-2.6413,-2.6132,-2.6426,-2.7255,-2.652,-2.6401,-2.6653,-2.6095,-2.4697,-2.2753,-2.4559,-2.4111,-2.2341,-2.3817,-2.4329,-2.3931,-2.2592,-2.183,-2.151,-2.0922,-2.0695,-2.0641,0.0,0.0,0.0,0.0,0.0,0.0,0.0,0.0,0.0,0.0,0.0,0.0,0.0,0.0,0.0,0.0,0.0,0.0,0.0,0.0,0.0,0.0,0.0,0.0,0.0,0.0,0.0,0.0,0.0,0.0,0.0,0.0,0.0,0.0,0.0,0.0,0.0,0.0,0.0,0.0,0.0,0.0,-0.8925,0.0,0.0,0.0,0.0,0.0,0.0,0.0,0.0,0.0,0.0,0.0,0.0,0.0,0.0,0.0,0.0,0.0,0.0,0.0,0.0,0.0,0.0,0.0,0.0,0.0,0.0,0.0,0.0,0.0,0.0,0.0,0.0,-1.8094,-1.8033,-2.0047,-2.18,-2.2593,-2.1795,-2.1402,-2.1714,-2.1002,-2.0932,-2.174,-2.3709,-2.489,-2.4836,-2.5718,-2.6159,-2.6039,-2.644,-2.6787,-2.7028,-2.5288,-2.4535,-2.4754,-2.4608,-2.3739,-2.2135,-2.3669,-2.3063,-2.0611,-2.1028,-2.1603,-2.2198,-2.0944,-2.1117,-2.2288,-2.2545,-2.2445,-2.2111,-2.1523,-2.1176,-2.0949,0.0,0.0,0.0,0.0,0.0,0.0,0.0,0.0,0.0,0.0,0.0,0.0,0.0,0.0,0.0,0.0,0.0,0.0,0.0,0.0,0.0,0.0,0.0,0.0,0.0,0.0,0.0,0.0,0.0,0.0,0.0,0.0,0.0,0.0,0.0,0.0,0.0,0.0,0.0,0.0,0.0,0.0,-0.9778,-0.914,-0.894,-0.9153,-0.8742,-0.8674,-0.864,-0.8007,0.0,0.0,0.0,0.0,0.0,0.0,0.0,0.0,0.0,0.0,0.0,0.0,0.0,0.0,0.0,0.0,0.0,0.0,0.0,0.0,0.0,0.0,0.0,0.0,-1.8714,-2.0307,-2.1061,-2.2124,-2.3021,-2.3012,-2.1907,-2.0976,-2.1173,-2.0095,-1.9824,-2.0808,-2.3224,-2.4604,-2.4566,-2.5173,-2.5937,-2.676,-2.525,-2.4967,-2.5931,-2.3631,-2.251,-2.2708,-2.2499,-2.162,-2.0527,-2.1776,-2.0921,-1.8697,-1.9522,-1.9978,-1.9964,-1.9411,-1.9761,-2.0743,0.0,0.0,0.0,0.0,-2.155,-2.1129,0.0,0.0,0.0,0.0,0.0,0.0,0.0,0.0,0.0,0.0,0.0,0.0,0.0,0.0,0.0,0.0,0.0,0.0,0.0,0.0,0.0,0.0,0.0,0.0,0.0,0.0,0.0,0.0,0.0,0.0,0.0,0.0,0.0,0.0,0.0,0.0,0.0,0.0,0.0,0.0,0.0,0.0,-1.0907,-1.0322,-1.0172,-1.0165,-0.9766,-0.9319,-0.8802,-0.8547,0.0,0.0,0.0,0.0,0.0,0.0,0.0,0.0,0.0,0.0,0.0,0.0,0.0,0.0,0.0,0.0,0.0,0.0,0.0,0.0,0.0,0.0,0.0,0.0,-2.0695,-2.2159,-2.4061,-2.4005,-2.3254,-2.2245,-2.0847,-1.9965,-2.0022,-1.7897,-1.7513,-1.9696,-2.1904,-2.3211,-2.3407,0.0,0.0,0.0,0.0,-2.1579,-2.3833,-2.1242,-2.0327,-2.0865,-2.0308,-2.006,-2.0075,-2.005,-1.8772,-1.6916,-1.8753,-1.8624,-1.7084,-1.8356,-1.8964,-1.8922,-2.0014,-2.0221,-2.0028,-2.1104,-2.1175,-2.076,0.0,0.0,0.0,0.0,0.0,0.0,0.0,0.0,0.0,0.0,0.0,0.0,0.0,0.0,0.0,0.0,0.0,0.0,0.0,0.0,0.0,0.0,0.0,0.0,0.0,0.0,0.0,0.0,0.0,0.0,0.0,0.0,0.0,0.0,0.0,0.0,0.0,0.0,0.0,0.0,0.0,0.0,-1.126,-1.0846,-1.048,-1.0239,-0.9628,-0.9566,-0.9655,-0.8939,-0.8953,-0.9006,-0.7785,0.0,0.0,0.0,0.0,0.0,0.0,0.0,0.0,0.0,0.0,0.0,0.0,0.0,0.0,0.0,0.0,0.0,0.0,0.0,0.0,-2.0577,-2.1034,-2.171,-2.2698,-2.1726,-2.1351,-2.2947,-2.1588,-1.9805,-1.7882,-1.7323,-1.7138,-1.7713,-2.0021,-2.1211,-2.1066,-2.1408,-2.1863,-2.2022,-2.134,-2.1282,-2.1849,-1.9395,-1.8383,-1.8453,0.0,0.0,-1.5645,-1.7505,-1.6893,-1.4714,-1.5053,-1.5903,-1.6751,-1.5262,-1.5152,-1.6221,-1.7812,-1.8093,-1.7689,-1.7781,-1.7652,-1.7315,0.0,0.0,0.0,0.0,0.0,0.0,0.0,0.0,0.0,0.0,0.0,0.0,0.0,0.0,0.0,0.0,0.0,0.0,0.0,0.0,0.0,0.0,0.0,0.0,0.0,0.0,0.0,0.0,0.0,0.0,0.0,0.0,0.0,0.0,0.0,0.0,0.0,0.0,0.0,0.0,0.0,0.0,-1.2454,-1.1925,-1.145,-1.0995,-1.0548,-1.029,-1.0086,-0.9557,-0.9346,-0.9293,-0.8414,-0.8014,-0.7714,0.0,0.0,0.0,0.0,0.0,0.0,0.0,0.0,0.0,0.0,0.0,0.0,0.0,0.0,-1.325,0.0,0.0,-1.7884,-1.9526,-2.0175,-2.058,-2.1611,-2.0921,-2.0396,-2.0386,-1.9475,-1.8058,-1.5956,-1.5617,-1.5617,-1.5617,-1.7914,-1.9293,-1.902,-1.9377,-1.9962,-2.0888,-1.8931,-1.8287,-1.9488,-1.7247,-1.6034,-1.6034,-1.6034,-1.5513,-1.4299,-1.5513,-1.5293,-1.4183,-1.4183,-1.4743,-1.5338,-1.402,-1.3661,-1.4365,-1.499,-1.6057,-1.7265,-1.7188,-1.6957,-1.6619,0.0,0.0,0.0,0.0,0.0,0.0,0.0,0.0,0.0,0.0,0.0,0.0,0.0,0.0,0.0,0.0,0.0,0.0,0.0,0.0,0.0,0.0,0.0,0.0,0.0,0.0,0.0,0.0,0.0,0.0,0.0,0.0,0.0,0.0,0.0,0.0,0.0,0.0,0.0,0.0,0.0,0.0,-1.3648,-1.3003,-1.2447,-1.1959,-1.1572,-1.0975,-1.0344,-1.0188,-0.9754,-0.9266,-0.915,-0.8716,-0.8234,-0.8151,-0.7891,0.0,0.0,0.0,0.0,0.0,0.0,0.0,0.0,0.0,-1.0228,-1.0706,-1.1526,-1.2474,-1.4059,-1.5104,-1.6453,-1.8416,-1.8979,-1.9288,-1.9968,-1.9733,-1.8913,-1.7025,-1.7198,-1.657,-1.4462,-1.4299,-1.4299,-1.4299,-1.6034,-1.7071,-1.7071,-1.7071,-1.7938,-1.9836,-1.621,-1.5168,-1.7071,-1.5168,-1.4299,-1.4299,-1.4299,-1.4299,-1.4299,-1.4299,-1.4299,-1.4299,-1.4272,-1.417,-1.4,-1.3607,-1.3336,-1.3132,-1.2745,-1.4236,-1.6739,-1.6458,-1.6215,-1.5726,0.0,0.0,0.0,0.0,0.0,0.0,0.0,0.0,0.0,0.0,0.0,0.0,0.0,0.0,0.0,0.0,0.0,0.0,0.0,0.0,0.0,0.0,0.0,0.0,0.0,0.0,0.0,0.0,0.0,0.0,0.0,0.0,0.0,0.0,0.0,0.0,0.0,0.0,0.0,0.0,0.0,0.0,-1.4,-1.3777,-1.3247,-1.2535,-1.1843,-1.1199,-1.0649,-1.0493,-1.0134,-0.9741,-0.9727,-0.9401,-0.9106,-0.9152,0.0,-0.8359,-0.911,-0.9046,-0.8897,-0.939,-0.9332,-0.9846,0.0,0.0,-1.3104,-1.4416,-1.5422,-1.6206,-1.6235,-1.7548,-1.8798,-1.9292,-1.8375,-1.7579,-1.7639,-1.6087,-1.497,-1.4625,-1.6522,-1.6872,-1.4469,-1.4299,-1.4299,-1.4299,-1.4469,-1.4646,-1.4646,-1.4646,-1.4822,-1.4992,-1.4653,-1.4476,-1.4646,-1.4476,-1.4299,-1.4299,-1.4299,-1.4299,-1.4299,-1.4299,-1.4299,-1.4292,-1.4156,-1.4007,-1.3851,-1.3675,-1.3431,-1.3152,-1.2976,-1.3116,-1.3219,-1.2785,-1.2522,-1.2379,0.0,0.0,0.0,0.0,0.0,0.0,0.0,0.0,0.0,0.0,0.0,0.0,0.0,0.0,0.0,0.0,0.0,0.0,0.0,0.0,0.0,0.0,0.0,0.0,0.0,0.0,0.0,0.0,0.0,0.0,0.0,0.0,0.0,0.0,0.0,0.0,0.0,0.0,0.0,0.0,0.0,0.0,-1.417,-1.3844,-1.3308,-1.2657,-1.223,-1.1797,0.0,0.0,-1.0685,-1.0667,-0.9971,-0.9634,-0.9398,-0.9414,-0.9253,0.0,-1.1131,-1.1199,0.0,0.0,-1.1568,-1.1618,-1.1965,-1.2265,-1.2647,-1.3444,-1.4129,-1.4672,-1.4877,-1.5599,-1.6253,0.0,-1.604,-1.569,-1.56,-1.485,-1.4292,-1.3953,-1.4995,-1.5337,-1.4476,-1.4299,-1.4299,-1.4299,-1.4299,-1.4299,-1.4299,-1.4299,-1.4299,-1.4299,-1.4299,-1.4299,-1.4299,-1.4299,-1.4299,-1.4299,-1.4299,-1.4299,-1.4299,-1.4299,-1.4299,-1.4299,-1.4231,-1.4116,-1.3966,-1.3817,-1.3627,-1.3403,-1.3085,-1.2922,-1.282,-1.2454,-1.2223,-1.2088,0.0,0.0,0.0,0.0,0.0,0.0,0.0,0.0,0.0,0.0,0.0,0.0,0.0,0.0,0.0,0.0,0.0,0.0,0.0,0.0,0.0,0.0,0.0,0.0,0.0,0.0,0.0,0.0,0.0,0.0,0.0,0.0,0.0,0.0,0.0,0.0,0.0,0.0,0.0,0.0,0.0,0.0,-1.4177,-1.3648,-1.3253,-1.2852,-1.2543,-1.2109,0.0,0.0,-1.1287,-1.1224,-1.0644,-1.0259,-1.0107,-1.0093,-0.9998,-1.0351,-1.2092,0.0,0.0,-1.2763,-1.2888,-1.2649,-1.1895,-1.2011,-1.2414,-1.2569,-1.303,-1.3437,-1.3702,-1.396,-1.4183,-1.4333,-1.4441,-1.4475,-1.4373,-1.4373,-1.4217,-1.3743,-1.3905,-1.4082,-1.4163,-1.4251,-1.4299,-1.4299,-1.4299,-1.4299,-1.4299,-1.4299,-1.4299,-1.4299,-1.4299,-1.4299,-1.4299,-1.4299,-1.4299,-1.4299,-1.4299,-1.4299,-1.4299,-1.4299,-1.4299,-1.4299,-1.4299,-1.419,-1.4,-1.3885,-1.3729,-1.3532,-1.3166,-1.3017,-1.2983,-1.2678,-1.2447,-1.2277,0.0,0.0,0.0,0.0,0.0,0.0,0.0,0.0,0.0,0.0,0.0,0.0,0.0,0.0,0.0,0.0,0.0,0.0,0.0,0.0,0.0,0.0,0.0,0.0,0.0,0.0,0.0,0.0,0.0,0.0,0.0,0.0,0.0,0.0,0.0,0.0,0.0,0.0,0.0,0.0,0.0,0.0,-1.4,-1.3261,-1.3162,-1.3288,-1.2809,0.0,0.0,0.0,-1.1765,-1.1207,-1.1855,-1.1776,0.0,-1.1388,-1.1143,0.0,0.0,0.0,-1.0732,-1.1366,-1.1561,-1.1775,-1.2508,-1.28,-1.3051,-1.3498,-1.3709,-1.3871,-1.4027,-1.419,-1.434,-1.4482,-1.4509,-1.4509,-1.4509,-1.4265,-1.4021,-1.3858,-1.3593,-1.3539,0.0,-1.4122,-1.4299,-1.4299,-1.4299,-1.4299,-1.4299,-1.4299,-1.4299,-1.4299,-1.4299,-1.4299,-1.4299,-1.4299,-1.4299,-1.4299,-1.4299,-1.4299,-1.4299,-1.4299,-1.4299,-1.4299,-1.4299,-1.4129,-1.3844,-1.3844,-1.3668,-1.339,-1.3227,-1.3166,-1.3132,-1.2834,-1.2542,-1.2291,0.0,0.0,0.0,0.0,0.0,0.0,0.0,0.0,0.0,0.0,0.0,0.0,0.0,0.0,0.0,0.0,0.0,0.0,0.0,0.0,0.0,0.0,0.0,0.0,0.0,0.0,0.0,0.0,0.0,0.0,0.0,0.0,0.0,0.0,0.0,0.0,0.0,0.0,0.0,0.0,0.0,0.0,-1.3844,-1.3853,-1.356,-1.3207,0.0,0.0,0.0,0.0,-1.1973,-1.1921,-1.1344,0.0,0.0,-1.1735,-1.1597,-1.1494,0.0,0.0,-1.1709,-1.2882,-1.2835,-1.2793,-1.3342,-1.3587,-1.3743,-1.3892,-1.3722,-1.3532,-1.3485,-1.36,-1.3749,-1.3899,-1.434,-1.4624,-1.4523,-1.4604,-1.4353,-1.3498,-1.3749,0.0,0.0,0.0,0.0,-1.4285,-1.4299,-1.4299,-1.4299,-1.4299,-1.4299,-1.4299,-1.4299,-1.4299,-1.4299,-1.4299,-1.4299,-1.4299,-1.4299,-1.4299,-1.4299,-1.4299,-1.4299,-1.4299,-1.4299,-1.4183,-1.3987,-1.3885,-1.3729,-1.3519,-1.3166,-1.303,-1.2996,-1.2691,-1.2515,-1.242,0.0,0.0,0.0,0.0,0.0,0.0,0.0,0.0,0.0,0.0,0.0,0.0,0.0,0.0,0.0,0.0,0.0,0.0,0.0,0.0,0.0,0.0,0.0,0.0,0.0,0.0,0.0,0.0,0.0,0.0,0.0,0.0,0.0,0.0,0.0,0.0,0.0,0.0,0.0,0.0,0.0,0.0,-1.3865,-1.3596,-1.3552,0.0,0.0,0.0,0.0,0.0,0.0,0.0,-1.1531,-1.1021,-1.0981,-1.1634,-1.1639,-1.1693,-1.3066,-1.2893,-1.2525,-1.3524,-1.3696,-1.358,-1.3926,-1.4041,-1.4027,-1.3865,-1.3686,-1.3329,-1.3061,-1.3006,-1.3102,-1.3418,-1.3661,-1.4034,-1.4319,-1.4387,-1.4183,-1.3566,-1.3783,-1.3797,0.0,0.0,0.0,-1.4197,-1.4319,-1.4373,-1.4373,-1.4373,-1.4373,-1.4373,-1.4326,-1.4299,-1.4299,-1.4299,-1.4299,-1.4299,-1.4299,-1.4299,-1.4299,-1.4299,-1.4299,-1.4299,-1.4299,-1.4183,-1.398,-1.3878,-1.3722,-1.3519,-1.3227,-1.3085,-1.301,-1.2759,-1.263,-1.2562,0.0,0.0,0.0,0.0,0.0,0.0,0.0,0.0,0.0,0.0,0.0,0.0,0.0,0.0,0.0,0.0,0.0,0.0,0.0,0.0,0.0,0.0,0.0,0.0,0.0,0.0,0.0,0.0,0.0,0.0,0.0,0.0,0.0,0.0,0.0,0.0,0.0,0.0,0.0,0.0,0.0,0.0,-1.3989,-1.2857,0.0,0.0,0.0,0.0,0.0,0.0,0.0,0.0,0.0,-1.1206,-1.0414,-1.1262,-1.1318,-1.1298,-1.2594,-1.2849,-1.3061,-1.3478,-1.3878,-1.4122,-1.4265,-1.4163,-1.3912,-1.3458,-1.3429,-1.3211,0.0,0.0,-1.248,-1.3092,-1.2814,-1.2969,-1.3987,-1.377,-1.3654,0.0,0.0,0.0,0.0,0.0,0.0,-1.4082,0.0,-1.4509,-1.4509,-1.4509,-1.4509,-1.4509,-1.4373,-1.4299,-1.4299,-1.4299,-1.4299,-1.4299,-1.4299,-1.4299,-1.4299,-1.4299,-1.4299,-1.4299,-1.4299,-1.4122,-1.3838,-1.3838,-1.3668,-1.3403,-1.339,-1.3295,-1.3146,-1.3003,-1.2854,-1.2698,0.0,0.0,0.0,0.0,0.0,0.0,0.0,0.0,0.0,0.0,0.0,0.0,0.0,0.0,0.0,0.0,0.0,0.0,0.0,0.0,0.0,0.0,0.0,0.0,0.0,0.0,0.0,0.0,0.0,0.0,0.0,0.0,0.0,0.0,0.0,0.0,0.0,0.0,0.0,0.0,0.0,0.0,-1.3014,0.0,0.0,0.0,0.0,0.0,0.0,0.0,0.0,0.0,0.0,-1.1481,-1.1676,-1.2306,-1.2457,-1.2572,-1.3267,-1.3511,-1.36,-1.4021,-1.4183,-1.4251,-1.4292,-1.3926,-1.361,-1.3632,-1.3065,-1.2661,0.0,0.0,0.0,-1.3267,-1.3798,0.0,-1.4828,-1.4896,0.0,0.0,0.0,-1.4468,-1.4211,-1.4278,0.0,0.0,-1.4468,-1.4509,-1.4509,-1.4509,-1.4509,-1.4509,-1.4373,-1.4299,-1.4299,-1.4299,-1.4299,-1.4299,-1.4299,-1.4299,-1.4299,-1.4299,-1.4299,-1.4299,-1.4299,-1.4122,-1.3838,-1.3838,-1.3668,-1.339,-1.3275,-1.3146,-1.2996,-1.2847,-1.2691,-1.2556,0.0,0.0,0.0,0.0,0.0,0.0,0.0,0.0,0.0,0.0,0.0,0.0,0.0,0.0,0.0,0.0,0.0,0.0,0.0,0.0,0.0,0.0,0.0,0.0,0.0,0.0,0.0,0.0,0.0,0.0,0.0,0.0,0.0,0.0,0.0,0.0,0.0,0.0,0.0,0.0,0.0,0.0,0.0,0.0,0.0,0.0,0.0,0.0,0.0,0.0,0.0,-1.1621,-1.1281,-1.15,-1.1804,-1.2551,0.0,-1.3055,-1.376,-1.4096,-1.4278,-1.4448,-1.4441,-1.4306,-1.3807,-1.3707,-1.3443,-1.2721,-1.2708,0.0,0.0,0.0,0.0,0.0,0.0,0.0,-1.4699,-1.4923,-1.5018,0.0,-1.5052,0.0,-1.4713,-1.476,-1.478,0.0,-1.4652,-1.4645,-1.4713,-1.4652,-1.4645,-1.4713,-1.4448,-1.4299,-1.4299,-1.4299,-1.4299,-1.4299,-1.4299,-1.4299,-1.4299,-1.4299,-1.4299,-1.4299,-1.4299,-1.4122,-1.3838,-1.3838,-1.3668,-1.339,-1.3308,-1.3146,-1.2949,-1.2861,-1.2691,-1.2501,0.0,0.0,0.0,0.0,0.0,0.0,0.0,0.0,0.0,0.0,0.0,0.0,0.0,0.0,0.0,0.0,0.0,0.0,0.0,0.0,0.0,0.0,0.0,0.0,0.0,0.0,0.0,0.0,0.0,0.0,0.0,0.0,0.0,0.0,0.0,0.0,0.0,0.0,0.0,0.0,0.0,0.0,0.0,0.0,0.0,0.0,0.0,0.0,0.0,0.0,-1.1459,-1.108,-1.1254,-1.1417,-1.1748,-1.2494,-1.3003,-1.3478,-1.4197,-1.459,-1.4794,-1.4774,-1.4611,-1.4082,-1.301,-1.3353,-1.3304,-1.1667,0.0,-1.2957,-1.2495,-1.2289,-1.2459,-1.2956,0.0,-1.3219,-1.4306,-1.4563,-1.4848,-1.5432,-1.5364,-1.5269,-1.5269,-1.5255,-1.5194,-1.5072,-1.4896,-1.4848,-1.4964,-1.4841,-1.4814,-1.4909,-1.4529,-1.4319,-1.4299,-1.4299,-1.4299,-1.4299,-1.4299,-1.4299,-1.4299,-1.4299,-1.4299,-1.4299,-1.4299,-1.4136,-1.3871,-1.3851,-1.3682,-1.3431,-1.341,-1.3234,-1.299,-1.2969,-1.2779,-1.2528,0.0,0.0,0.0,0.0,0.0,0.0,0.0,0.0,0.0,0.0,-0.9918,0.0,0.0,0.0,0.0,0.0,0.0,0.0,0.0,0.0,0.0,0.0,0.0,0.0,0.0,0.0,0.0,0.0,0.0,0.0,0.0,0.0,0.0,0.0,0.0,0.0,0.0,0.0,0.0,0.0,0.0,0.0,0.0,0.0,0.0,0.0,0.0,0.0,0.0,0.0,-1.1916,-1.2311,-1.2251,-1.2491,-1.2834,-1.358,-1.3946,-1.4211,-1.4719,-1.4977,-1.5079,-1.4964,-1.4536,-1.3953,-1.2873,-1.2623,0.0,0.0,0.0,-1.2495,-1.2729,-1.3193,0.0,-1.3617,0.0,0.0,0.0,0.0,-1.5432,0.0,0.0,0.0,0.0,0.0,0.0,0.0,0.0,-1.5065,-1.4977,-1.4943,-1.4828,-1.4597,-1.4516,-1.4421,-1.4299,-1.4299,-1.4299,-1.4299,-1.4299,-1.4299,-1.4299,-1.4299,-1.4299,-1.4299,-1.4299,0.0,-1.4021,-1.3892,-1.3743,-1.3573,-1.3451,-1.3295,-1.3119,-1.3003,-1.2847,-1.2671,0.0,0.0,0.0,0.0,0.0,0.0,0.0,0.0,0.0,0.0,-0.9807,-0.9671,0.0,0.0,0.0,0.0,0.0,0.0,0.0,0.0,0.0,0.0,0.0,0.0,0.0,0.0,0.0,0.0,0.0,0.0,0.0,0.0,0.0,0.0,0.0,0.0,0.0,0.0,0.0,0.0,0.0,0.0,0.0,0.0,0.0,0.0,0.0,0.0,0.0,0.0,-1.2225,-1.2643,-1.2768,-1.3274,-1.3777,-1.4367,-1.4645,-1.4841,-1.5215,-1.5425,-1.5459,-1.5153,-1.457,-1.379,-1.2725,0.0,0.0,0.0,0.0,-1.2843,-1.2986,0.0,0.0,0.0,0.0,0.0,0.0,0.0,0.0,0.0,0.0,0.0,0.0,0.0,0.0,0.0,0.0,-1.5432,-1.5215,-1.5052,-1.4828,-1.4523,-1.4509,-1.4441,-1.4299,-1.4299,-1.4299,-1.4299,-1.4299,-1.4299,-1.4299,-1.4299,-1.4299,-1.4299,-1.4299,-1.417,-1.3946,-1.3871,-1.3709,-1.3505,-1.3431,-1.3308,-1.3166,-1.3098,-1.2976,-1.2827,0.0,0.0,0.0,0.0,0.0,0.0,0.0,-0.9224,-0.9356,-1.0071,-0.9956,-0.9934,-1.0221,-0.9815,-0.9563,0.0,0.0,0.0,0.0,0.0,0.0,0.0,0.0,0.0,0.0,0.0,0.0,-1.2039,0.0,0.0,0.0,0.0,0.0,0.0,0.0,0.0,0.0,0.0,0.0,0.0,0.0,0.0,0.0,0.0,0.0,0.0,0.0,0.0,0.0,0.0,-1.2412,-1.2815,-1.3022,-1.3624,-1.4277,-1.473,-1.5039,-1.532,-1.5567,-1.5839,-1.5879,-1.5398,-1.4645,-1.3837,-1.2775,-1.2447,0.0,0.0,-1.2128,-1.2949,-1.3156,0.0,0.0,0.0,0.0,0.0,0.0,0.0,0.0,0.0,0.0,0.0,0.0,0.0,0.0,0.0,-1.5845,-1.5689,-1.5425,-1.5133,-1.4848,-1.457,-1.4529,-1.4441,-1.4299,-1.4299,-1.4299,-1.4299,-1.4299,-1.4299,-1.4299,-1.4299,-1.4299,-1.4299,-1.4299,-1.4143,-1.3885,-1.3858,-1.3688,-1.3444,-1.341,-1.3329,-1.322,-1.3186,-1.3105,-1.2983,0.0,0.0,0.0,0.0,0.0,0.0,0.0,-0.9631,-0.9906,-1.1482,-1.0821,-1.0416,-1.1041,-1.0247,-0.9625,0.0,0.0,0.0,0.0,0.0,0.0,0.0,0.0,0.0,0.0,0.0,0.0,-1.1933,-1.1737,0.0,0.0,0.0,0.0,0.0,0.0,-1.0646,0.0,0.0,0.0,0.0,0.0,0.0,0.0,0.0,0.0,0.0,0.0,0.0,0.0,0.0,0.0,-1.2813,-1.3218,-1.3511,-1.398,-1.4455,0.0,0.0,-1.5794,-1.6137,-1.632,-1.5744,-1.4719,-1.3505,-1.2606,0.0,0.0,-1.0983,-1.1397,-1.2059,-1.2568,0.0,0.0,0.0,0.0,0.0,0.0,0.0,0.0,0.0,0.0,0.0,0.0,0.0,0.0,0.0,-1.5811,-1.5588,-1.5418,-1.5133,-1.4896,-1.4726,-1.4584,-1.4441,-1.4299,-1.4299,-1.4299,-1.4299,-1.4299,-1.4299,-1.4299,-1.4299,-1.4299,-1.4299,-1.4299,-1.4204,0.0,-1.3899,-1.3749,-1.3593,-1.3458,-1.339,-1.3363,-1.322,-1.3166,-1.3112,0.0,0.0,0.0,0.0,0.0,0.0,0.0,-0.9846,-1.0038,-1.1243,-1.0949,-1.0696,-1.0803,-1.0544,-1.022,0.0,0.0,0.0,0.0,0.0,0.0,0.0,0.0,0.0,0.0,0.0,0.0,-1.2264,-1.211,0.0,0.0,0.0,0.0,0.0,0.0,-1.0496,-1.0123,0.0,0.0,0.0,0.0,0.0,0.0,0.0,0.0,0.0,0.0,0.0,0.0,0.0,0.0,0.0,-1.2259,-1.2693,0.0,0.0,-1.4871,-1.5319,-1.578,-1.6246,-1.6476,-1.5696,-1.4283,-1.3112,-1.2868,0.0,-1.0964,-1.1354,-1.1557,-1.1983,-1.273,0.0,0.0,0.0,0.0,0.0,0.0,0.0,0.0,0.0,0.0,0.0,0.0,0.0,0.0,-1.6083,-1.5805,-1.5574,-1.5418,-1.5045,-1.4801,-1.474,-1.4509,-1.4353,-1.4299,-1.4299,-1.4299,-1.4299,-1.4299,-1.4299,-1.4299,-1.4299,-1.4299,-1.4299,-1.4299,-1.4211,0.0,-1.3905,-1.3756,-1.3614,-1.3458,-1.3403,-1.3397,-1.3336,-1.3308,-1.3268,0.0,0.0,0.0,0.0,0.0,0.0,-0.9899,-0.9867,-1.0093,-1.1101,-1.1022,-1.0853,-1.0897,-1.0904,-1.0766,-1.0391,0.0,0.0,0.0,0.0,0.0,0.0,0.0,0.0,0.0,0.0,0.0,0.0,0.0,-1.1856,0.0,0.0,-1.1121,-1.0729,0.0,0.0,0.0,0.0,0.0,0.0,0.0,0.0,0.0,0.0,0.0,0.0,0.0,0.0,0.0,0.0,0.0,0.0,0.0,0.0,0.0,0.0,-1.4533,-1.5138,-1.5582,-1.6089,-1.6313,-1.5588,-1.4251,-1.2972,0.0,-1.1854,-1.0932,-1.1539,-1.1782,-1.2006,-1.2635,-1.2856,-1.3176,0.0,0.0,-1.3232,-1.4674,0.0,0.0,0.0,0.0,0.0,0.0,0.0,0.0,-1.6083,-1.5805,-1.5554,-1.5357,-1.4957,-1.4719,-1.4672,-1.4428,-1.4299,-1.4299,-1.4299,-1.4299,-1.4299,-1.4299,-1.4299,-1.4299,-1.4299,-1.4299,-1.4299,-1.4299,-1.4211,-1.4061,-1.3905,-1.3756,-1.3614,-1.3458,-1.3403,-1.3403,-1.3403,-1.3403,-1.3363,0.0,0.0,0.0,0.0,0.0,0.0,0.0,-0.976,-1.0212,-1.143,-1.1049,-1.0971,-1.1631,-1.133,-1.1045,-1.0988,0.0,0.0,0.0,0.0,0.0,0.0,0.0,0.0,0.0,0.0,0.0,0.0,0.0,0.0,0.0,-1.1731,-1.1744,-1.1317,0.0,0.0,0.0,0.0,0.0,0.0,0.0,0.0,-1.1066,0.0,0.0,0.0,0.0,0.0,0.0,0.0,0.0,0.0,0.0,0.0,0.0,0.0,-1.3874,-1.457,-1.5285,-1.5689,-1.5791,-1.5486,-1.452,-1.3661,0.0,-1.2357,-1.1397,-1.1439,-1.1548,-1.1757,-1.2184,-1.271,-1.3299,-1.3978,-1.3898,-1.3994,-1.454,-1.3682,0.0,0.0,0.0,0.0,0.0,0.0,-1.6246,-1.609,-1.5805,0.0,-1.5201,-1.4903,-1.4672,-1.4516,-1.4373,-1.4299,-1.4299,-1.4299,-1.4299,-1.4299,-1.4299,-1.4299,-1.4299,-1.4299,-1.4299,-1.4299,-1.4299,-1.4211,-1.4061,-1.3905,-1.3756,-1.3614,-1.3458,-1.3403,-1.3403,-1.3403,-1.3403,-1.3376,0.0,0.0,0.0,0.0,0.0,0.0,0.0,-0.9841,-1.0228,-1.0839,-1.1113,-1.1305,-1.1491,-1.1264,-1.0945,-1.0569,0.0,0.0,0.0,0.0,0.0,0.0,0.0,0.0,0.0,0.0,0.0,0.0,0.0,0.0,0.0,0.0,0.0,-1.1259,-1.1332,-1.1079,0.0,0.0,0.0,0.0,0.0,-1.1939,-1.2057,0.0,0.0,0.0,0.0,0.0,0.0,0.0,0.0,0.0,0.0,0.0,0.0,-1.2756,0.0,0.0,-1.471,-1.4898,-1.4961,-1.4856,-1.3702,-1.262,-1.288,-1.1608,-1.0619,-1.1439,-1.1327,-1.1385,-1.2154,-1.2486,-1.2854,-1.3943,-1.4214,-1.4351,-1.4336,0.0,0.0,0.0,0.0,0.0,0.0,0.0,-1.5981,-1.5927,-1.5649,-1.535,-1.5052,-1.4848,-1.4672,-1.4516,-1.4373,-1.4299,-1.4299,-1.4299,-1.4299,-1.4299,-1.4299,-1.4299,-1.4299,-1.4299,-1.4299,-1.4299,-1.4299,-1.4272,-1.4204,-1.3946,-1.3817,-1.3749,-1.3498,-1.3403,-1.3403,-1.3403,-1.3403,-1.3376,0.0,0.0,0.0,0.0,0.0,0.0,0.0,-0.9602,-0.9874,-1.0169,-1.0569,-1.086,-1.0978,-1.0851,-1.0723,-1.0516,0.0,0.0,0.0,0.0,0.0,0.0,0.0,0.0,0.0,0.0,0.0,0.0,0.0,0.0,0.0,0.0,0.0,0.0,0.0,0.0,0.0,0.0,0.0,0.0,-1.212,-1.2253,-1.2463,0.0,0.0,0.0,0.0,0.0,0.0,0.0,0.0,0.0,0.0,0.0,0.0,0.0,-1.2944,-1.3472,0.0,-1.4372,-1.4255,-1.4088,-1.3125,0.0,-1.2423,-1.1414,-1.0663,-1.1087,-1.1211,-1.1336,-1.1716,-1.1914,-1.2342,-1.3498,-1.3542,-1.3798,-1.484,0.0,0.0,0.0,0.0,0.0,0.0,-1.5893,-1.5913,-1.5859,-1.5581,-1.5255,-1.4903,-1.4794,-1.4645,-1.4434,-1.4346,-1.4299,-1.4299,-1.4299,-1.4299,-1.4299,-1.4299,-1.4299,-1.4299,-1.4299,-1.4299,-1.4299,-1.4238,-1.4211,0.0,-1.3885,-1.3763,-1.3736,-1.3498,-1.3403,-1.3403,-1.3403,-1.3403,-1.339,0.0,0.0,0.0,0.0,0.0,0.0,0.0,0.0,0.0,0.0,-0.9645,-0.9902,-1.0291,-1.03,-1.0421,0.0,0.0,0.0,0.0,0.0,0.0,0.0,0.0,0.0,0.0,0.0,0.0,0.0,-1.2645,-1.2769,-1.2469,0.0,0.0,0.0,0.0,0.0,0.0,0.0,0.0,0.0,-1.1681,-1.2087,0.0,0.0,0.0,0.0,0.0,0.0,0.0,0.0,0.0,0.0,0.0,0.0,0.0,0.0,0.0,0.0,0.0,0.0,0.0,0.0,0.0,0.0,-1.2117,-1.1764,0.0,-1.0836,-1.1185,-1.1452,-1.1086,-1.1236,-1.1718,-1.2878,-1.2423,-1.2833,-1.5472,-1.3822,0.0,0.0,0.0,0.0,-1.5561,-1.5778,-1.5974,-1.5832,-1.5554,-1.5201,-1.476,-1.474,-1.4604,-1.4306,-1.4299,-1.4299,-1.4299,-1.4299,-1.4299,-1.4299,-1.4299,-1.4299,-1.4299,-1.4292,-1.4285,-1.4278,-1.4136,-1.4061,-1.4034,-1.3756,-1.3641,-1.3614,-1.3458,-1.3403,-1.3403,-1.3403,-1.3403,-1.3403,0.0,0.0,0.0,0.0,0.0,0.0,0.0,0.0,0.0,0.0,-1.0145,-1.0425,-1.0603,-1.0355,-1.0397,0.0,0.0,0.0,0.0,0.0,0.0,0.0,0.0,0.0,0.0,0.0,0.0,-1.2931,-1.3194,-1.3491,-1.3861,-1.3811,0.0,0.0,0.0,0.0,0.0,0.0,0.0,0.0,-1.224,-1.2888,0.0,0.0,0.0,0.0,-1.2663,-1.2376,0.0,0.0,0.0,0.0,0.0,0.0,0.0,0.0,-1.2902,-1.3102,-1.333,0.0,-1.2919,-1.3036,-1.2571,0.0,0.0,0.0,0.0,0.0,0.0,-1.1232,-1.1713,-1.1395,-1.1725,-1.3431,-1.3688,-1.3625,-1.358,0.0,0.0,0.0,0.0,0.0,-1.6054,-1.5751,-1.5554,-1.552,-1.5343,-1.5092,-1.476,-1.474,-1.4604,-1.4306,-1.4299,-1.4299,-1.4299,-1.4299,-1.4299,-1.4299,-1.4299,-1.4299,-1.4299,-1.4177,-1.4129,-1.4122,-1.4089,-1.4007,-1.3885,-1.3817,-1.3729,-1.3614,-1.3458,-1.3403,-1.3403,-1.3403,-1.3403,-1.3403,0.0,0.0,0.0,0.0,0.0,0.0,0.0,0.0,0.0,0.0,0.0,0.0,0.0,0.0,0.0,0.0,0.0,0.0,0.0,0.0,0.0,0.0,0.0,0.0,0.0,0.0,0.0,0.0,0.0,-1.3619,0.0,0.0,0.0,0.0,0.0,0.0,0.0,0.0,0.0,-1.2197,-1.228,0.0,0.0,0.0,0.0,0.0,-1.2757,-1.2484,0.0,-1.2585,-1.2311,-1.184,0.0,0.0,0.0,0.0,-1.3128,-1.3333,-1.3279,-1.3015,-1.2752,-1.2875,-1.2422,-1.2117,0.0,0.0,0.0,0.0,0.0,0.0,-1.1671,0.0,0.0,-1.2683,-1.2733,-1.2605,0.0,0.0,0.0,0.0,0.0,-1.5411,0.0,-1.5478,-1.5303,-1.5303,-1.5099,-1.4875,-1.4645,-1.4631,-1.4529,-1.4306,-1.4299,-1.4299,-1.4299,-1.4299,-1.4299,-1.4299,-1.4299,-1.4299,-1.4299,-1.4211,-1.4177,-1.417,-1.4027,-1.3919,-1.3831,-1.3695,-1.3593,-1.3519,-1.3431,-1.3403,-1.3403,-1.3403,-1.3403,-1.3403,0.0,0.0,0.0,0.0,0.0,0.0,0.0,0.0,0.0,0.0,0.0,0.0,0.0,0.0,0.0,0.0,0.0,0.0,0.0,0.0,0.0,0.0,0.0,0.0,0.0,0.0,0.0,0.0,0.0,0.0,0.0,0.0,0.0,0.0,0.0,0.0,0.0,0.0,0.0,-1.2555,-1.2173,0.0,0.0,0.0,0.0,0.0,0.0,0.0,0.0,-1.2684,-1.2242,-1.1619,-1.2473,0.0,0.0,0.0,0.0,0.0,-1.3529,-1.3356,-1.3085,-1.2641,-1.2361,-1.2057,0.0,0.0,0.0,0.0,0.0,0.0,0.0,0.0,0.0,0.0,0.0,0.0,0.0,0.0,0.0,0.0,-1.4243,0.0,-1.5616,-1.5276,-1.5153,-1.5153,-1.4896,-1.4672,-1.4523,-1.4509,-1.4448,-1.4306,-1.4299,-1.4292,-1.4265,-1.4265,-1.4265,-1.4265,-1.4245,-1.4245,-1.4265,-1.4217,-1.4197,-1.4183,-1.3919,-1.3797,-1.3756,-1.3532,-1.3424,-1.3403,-1.3403,-1.3403,-1.3403,-1.3403,-1.3403,-1.3403,0.0,0.0,0.0,0.0,0.0,0.0,0.0,0.0,0.0,0.0,0.0,0.0,0.0,0.0,0.0,0.0,0.0,0.0,0.0,0.0,0.0,0.0,0.0,0.0,0.0,0.0,0.0,0.0,0.0,0.0,-1.4424,-1.452,-1.4407,0.0,0.0,0.0,0.0,0.0,0.0,-1.2211,-1.2376,0.0,0.0,0.0,0.0,0.0,0.0,0.0,0.0,-1.3414,-1.3083,-1.2695,-1.3424,0.0,0.0,0.0,0.0,0.0,-1.4379,-1.4574,-1.4153,-1.2445,-1.1712,-1.1424,0.0,0.0,0.0,0.0,0.0,0.0,0.0,0.0,0.0,0.0,0.0,0.0,0.0,0.0,0.0,-1.4923,0.0,-1.5334,-1.5636,-1.525,-1.5004,-1.5004,-1.4841,-1.4672,-1.4523,-1.4509,-1.4448,-1.4306,-1.4299,-1.4238,-1.4109,-1.4109,-1.4109,-1.4102,-1.3973,-1.398,-1.4095,-1.3844,-1.3729,-1.3729,-1.3682,-1.3587,-1.3478,-1.3559,-1.3519,-1.3403,-1.3403,-1.3403,-1.3403,-1.3403,-1.3403,-1.3403,0.0,0.0,0.0,0.0,0.0,0.0,0.0,0.0,0.0,0.0,0.0,0.0,0.0,0.0,0.0,0.0,0.0,0.0,0.0,0.0,0.0,0.0,0.0,0.0,0.0,0.0,0.0,0.0,0.0,-1.4178,-1.483,-1.4964,-1.4625,-1.4049,0.0,0.0,0.0,0.0,0.0,-1.1776,0.0,0.0,0.0,0.0,0.0,0.0,0.0,0.0,0.0,0.0,-1.3076,-1.2666,-1.3109,0.0,0.0,0.0,0.0,0.0,-1.4992,-1.511,-1.4489,-1.231,-1.1944,0.0,0.0,0.0,0.0,0.0,0.0,0.0,0.0,0.0,0.0,0.0,0.0,0.0,0.0,0.0,-1.3338,0.0,0.0,-1.449,-1.5181,-1.4874,-1.4726,-1.4726,-1.4584,-1.4468,-1.4401,-1.4394,-1.4367,-1.4299,-1.4299,-1.419,-1.3946,-1.3946,-1.3946,-1.3946,-1.3871,-1.3878,-1.3939,-1.3804,-1.3743,-1.3736,-1.3661,-1.3587,-1.3526,-1.3512,-1.3464,-1.3403,-1.3403,-1.3403,-1.3403,-1.3403,-1.3403,-1.3403,0.0,0.0,0.0,0.0,0.0,0.0,0.0,0.0,0.0,0.0,0.0,0.0,0.0,0.0,0.0,0.0,0.0,0.0,0.0,0.0,0.0,0.0,0.0,0.0,0.0,0.0,0.0,-1.4685,-1.4811,-1.4963,-1.5149,-1.5164,-1.4716,0.0,0.0,0.0,0.0,0.0,0.0,-1.1552,0.0,0.0,0.0,0.0,0.0,0.0,0.0,0.0,0.0,0.0,0.0,0.0,0.0,0.0,0.0,-1.4195,-1.453,-1.4883,-1.5525,-1.5308,-1.45,0.0,0.0,0.0,0.0,0.0,0.0,0.0,0.0,0.0,0.0,0.0,0.0,0.0,0.0,0.0,-1.2575,-1.2664,-1.2958,-1.3594,-1.3786,-1.4004,-1.4706,-1.4604,-1.4509,-1.4509,-1.438,-1.4299,-1.4299,-1.4299,-1.4299,-1.4299,-1.4265,-1.4116,-1.3844,-1.3804,-1.379,-1.379,-1.3756,-1.3756,-1.379,-1.3756,-1.3736,-1.3729,-1.362,-1.3573,-1.3566,-1.3451,-1.3403,-1.3403,-1.3403,-1.3403,-1.3403,-1.3403,-1.3403,-1.3403,0.0,0.0,0.0,0.0,0.0,0.0,0.0,0.0,0.0,0.0,0.0,0.0,0.0,0.0,0.0,0.0,0.0,0.0,0.0,0.0,0.0,0.0,0.0,0.0,0.0,-1.4646,-1.502,-1.499,-1.5248,-1.5373,-1.5347,-1.4691,-1.4356,-1.4328,0.0,0.0,0.0,0.0,0.0,-1.1673,-1.1726,0.0,0.0,0.0,0.0,0.0,0.0,0.0,0.0,0.0,0.0,0.0,0.0,0.0,-1.4205,-1.4693,-1.4547,-1.4487,-1.5837,-1.5288,0.0,0.0,0.0,0.0,0.0,0.0,0.0,0.0,0.0,0.0,0.0,0.0,0.0,0.0,0.0,-1.339,-1.3641,0.0,-1.4272,-1.4441,-1.4597,-1.4706,-1.4733,-1.4604,-1.4509,-1.4509,-1.438,-1.4299,-1.4299,-1.4299,-1.4299,-1.4299,-1.4163,-1.4007,-1.3844,-1.3709,-1.3648,-1.3641,-1.3498,-1.3505,-1.3641,-1.3498,-1.3431,-1.3431,-1.3424,-1.3417,-1.3417,-1.3403,-1.3403,-1.3403,-1.3403,-1.3403,-1.3403,-1.3403,-1.3403,-1.3403,0.0,0.0,0.0,0.0,0.0,0.0,0.0,0.0,0.0,0.0,0.0,0.0,0.0,0.0,0.0,0.0,0.0,0.0,0.0,0.0,0.0,0.0,0.0,-1.3791,-1.4022,-1.4535,-1.4832,-1.4991,-1.5274,-1.5235,-1.4941,-1.446,0.0,0.0,0.0,0.0,0.0,0.0,0.0,0.0,-1.1822,-1.1882,0.0,0.0,0.0,0.0,0.0,0.0,0.0,0.0,-1.4412,-1.4777,-1.4099,-1.4013,-1.4351,-1.4886,-1.4833,-1.4879,-1.6278,-1.6037,0.0,0.0,0.0,0.0,0.0,0.0,0.0,0.0,0.0,0.0,0.0,0.0,0.0,0.0,0.0,-1.3603,-1.3899,-1.4245,-1.4421,-1.4387,-1.4509,-1.4563,-1.4475,-1.4414,-1.438,-1.438,-1.4245,-1.4156,-1.4156,-1.4068,-1.4014,-1.4014,-1.396,-1.3858,-1.3709,-1.3559,-1.3437,-1.3349,-1.3383,-1.3431,-1.3485,-1.3424,-1.3403,-1.3403,-1.3403,-1.3403,-1.3403,-1.3403,-1.3403,-1.3403,-1.3403,-1.3403,-1.3403,-1.3403,-1.3403,-1.3403,0.0,0.0,0.0,0.0,0.0,0.0,0.0,0.0,0.0,0.0,0.0,0.0,0.0,0.0,0.0,0.0,0.0,0.0,0.0,0.0,0.0,0.0,0.0,-1.4055,-1.43,-1.445,-1.4711,-1.5175,-1.5348,-1.5267,-1.5024,0.0,0.0,0.0,0.0,0.0,0.0,0.0,0.0,0.0,0.0,-1.1867,0.0,0.0,0.0,0.0,0.0,0.0,0.0,0.0,-1.4576,-1.5118,-1.4222,-1.4204,-1.4556,-1.4871,-1.4769,-1.4775,-1.5975,-1.5728,-1.5059,-1.4424,0.0,0.0,0.0,0.0,0.0,0.0,0.0,0.0,0.0,0.0,0.0,0.0,-1.2976,-1.3559,-1.4007,-1.4285,-1.4407,-1.4312,-1.4387,-1.4407,-1.4306,-1.4299,-1.4278,-1.4231,-1.4129,-1.4048,-1.4,-1.3899,-1.3838,-1.3838,-1.3797,-1.3702,-1.3559,-1.3403,-1.3254,-1.3105,-1.3214,-1.3288,-1.3329,-1.3329,-1.3329,-1.3329,-1.3376,-1.337,-1.3336,-1.3383,-1.3403,-1.3403,-1.3403,-1.3403,-1.3403,-1.3403,-1.3403,-1.3403,0.0,0.0,0.0,0.0,0.0,0.0,0.0,0.0,0.0,0.0,0.0,0.0,0.0,0.0,0.0,0.0,0.0,0.0,0.0,0.0,0.0,0.0,0.0,-1.462,-1.4495,-1.4521,-1.4839,-1.5604,-1.5464,-1.5519,-1.5737,0.0,0.0,0.0,0.0,0.0,0.0,0.0,0.0,0.0,0.0,-1.1977,-1.1867,0.0,0.0,0.0,0.0,0.0,0.0,0.0,-1.5038,-1.5549,-1.4313,-1.4521,-1.5077,-1.4551,-1.4109,-1.3998,-1.4697,-1.4093,-1.3272,0.0,0.0,0.0,0.0,0.0,0.0,0.0,0.0,0.0,0.0,0.0,0.0,-1.2169,-1.2915,-1.3553,-1.4007,-1.4204,-1.4299,-1.4299,-1.4299,-1.4299,-1.4299,-1.4299,-1.4238,-1.4082,-1.4068,-1.4,-1.3844,-1.3838,-1.3838,-1.3831,-1.3695,-1.3553,-1.3397,-1.3247,-1.3098,-1.2963,-1.2956,-1.303,-1.3173,-1.3173,-1.3173,-1.318,-1.3336,-1.3315,-1.3186,-1.3336,-1.3403,-1.3403,-1.3403,-1.3397,-1.3397,-1.3397,-1.3397,-1.3397,0.0,0.0,0.0,0.0,0.0,0.0,0.0,0.0,0.0,0.0,0.0,0.0,0.0,0.0,0.0,0.0,0.0,0.0,0.0,0.0,0.0,0.0,0.0,0.0,0.0,0.0,-1.4413,-1.4451,-1.5039,-1.513,0.0,0.0,0.0,-1.3747,0.0,0.0,0.0,0.0,0.0,0.0,-1.2146,-1.2113,-1.205,0.0,0.0,0.0,0.0,0.0,0.0,0.0,0.0,0.0,-1.4831,-1.4889,-1.5292,-1.5232,-1.488,-1.4629,-1.5308,-1.4486,0.0,0.0,0.0,0.0,0.0,0.0,0.0,0.0,0.0,0.0,0.0,0.0,0.0,-1.2203,-1.2739,-1.3281,-1.3831,-1.4041,-1.4143,-1.4143,-1.4238,-1.4217,-1.4,-1.4075,-1.4075,-1.3919,-1.3817,-1.3743,-1.3695,-1.3587,-1.3485,-1.3376,-1.3329,-1.3241,-1.3091,-1.2942,-1.284,-1.28,-1.2691,-1.2773,-1.3024,-1.3024,-1.3024,-1.303,-1.318,-1.3214,-1.3186,-1.3336,-1.3403,-1.3403,-1.3403,-1.3336,-1.3241,-1.3241,-1.3241,-1.3227,0.0,0.0,0.0,0.0,0.0,0.0,0.0,0.0,0.0,0.0,0.0,0.0,0.0,0.0,0.0,0.0,0.0,0.0,0.0,0.0,0.0,0.0,0.0,0.0,0.0,-1.4361,-1.4435,0.0,0.0,0.0,0.0,0.0,0.0,-1.4127,0.0,-1.2669,0.0,0.0,0.0,-1.2278,-1.2255,-1.2222,-1.2173,0.0,0.0,0.0,0.0,0.0,0.0,0.0,0.0,0.0,-1.5531,-1.5529,-1.5733,-1.529,-1.4915,-1.4732,-1.4816,0.0,0.0,0.0,0.0,0.0,0.0,0.0,0.0,0.0,0.0,0.0,0.0,0.0,0.0,-1.2135,-1.2678,-1.3193,-1.3607,-1.3844,-1.398,-1.398,-1.4061,-1.4041,-1.3858,-1.3926,-1.3892,-1.3682,-1.3587,-1.3485,-1.337,-1.3275,-1.3186,-1.3091,-1.3085,-1.3017,-1.2868,-1.2779,-1.2698,-1.2637,-1.2488,-1.2515,-1.2698,-1.2813,-1.2868,-1.2874,-1.2963,-1.3064,-1.318,-1.3275,-1.3308,-1.3308,-1.3308,-1.322,-1.3085,-1.3085,-1.3085,-1.3078,0.0,0.0,0.0,0.0,0.0,0.0,0.0,0.0,0.0,0.0,0.0,0.0,0.0,0.0,0.0,0.0,0.0,0.0,0.0,0.0,0.0,0.0,0.0,0.0,0.0,0.0,0.0,0.0,0.0,0.0,0.0,0.0,-1.3873,-1.4914,0.0,-1.3164,0.0,-1.2701,-1.2465,-1.2682,-1.2481,-1.233,-1.2162,-1.215,0.0,0.0,0.0,0.0,0.0,0.0,0.0,0.0,-1.621,-1.6284,-1.6211,-1.5166,-1.4798,-1.4551,0.0,0.0,0.0,0.0,0.0,0.0,0.0,0.0,0.0,0.0,0.0,0.0,0.0,0.0,-1.1755,-1.204,-1.2664,-1.318,-1.337,-1.3634,-1.3797,-1.3797,-1.3824,-1.3817,-1.3763,-1.3783,-1.3682,-1.3383,-1.3363,-1.3247,-1.2976,-1.2963,-1.2956,-1.2942,-1.2942,-1.2868,-1.2712,-1.2698,-1.2617,-1.2481,-1.2338,-1.2271,-1.2277,-1.2562,-1.2705,-1.2732,-1.2732,-1.2888,-1.3152,-1.3152,-1.3152,-1.3152,-1.3152,-1.3064,-1.2942,-1.2942,-1.2942,-1.2935,0.0,0.0,0.0,0.0,0.0,0.0,0.0,0.0,0.0,0.0,0.0,0.0,0.0,0.0,0.0,0.0,0.0,0.0,0.0,0.0,0.0,0.0,0.0,0.0,0.0,0.0,0.0,0.0,0.0,0.0,0.0,0.0,0.0,-1.4819,0.0,-1.3792,0.0,-1.3017,-1.2656,-1.2031,-1.2304,-1.2294,-1.215,-1.2186,-1.2365,0.0,0.0,0.0,0.0,0.0,0.0,0.0,-1.5998,-1.6365,-1.6677,-1.6646,-1.6015,-1.5343,0.0,0.0,0.0,0.0,0.0,0.0,0.0,0.0,0.0,0.0,0.0,0.0,0.0,-1.1809,-1.2026,-1.221,-1.2467,-1.282,-1.3329,-1.3458,-1.3498,-1.3498,-1.3702,-1.3661,-1.3193,-1.3363,-1.337,-1.3078,-1.3057,-1.303,-1.2963,-1.2963,-1.2908,-1.2786,-1.2779,-1.2705,-1.2556,-1.244,-1.2366,-1.2332,-1.2182,-1.2108,-1.2121,-1.2298,-1.2515,-1.2732,-1.2732,-1.2834,-1.301,-1.301,-1.301,-1.301,-1.301,-1.2915,-1.2779,-1.2779,-1.2779,-1.2759,0.0,0.0,0.0,0.0,0.0,0.0,0.0,0.0,0.0,0.0,0.0,0.0,0.0,0.0,0.0,0.0,0.0,0.0,0.0,0.0,0.0,0.0,0.0,0.0,0.0,0.0,0.0,0.0,0.0,0.0,0.0,0.0,0.0,-1.5411,0.0,-1.4188,-1.3581,-1.3103,-1.2808,-1.2651,-1.2761,-1.2883,-1.2995,-1.2761,-1.2815,-1.2962,-1.2639,0.0,0.0,0.0,0.0,0.0,0.0,0.0,-1.6922,-1.6637,-1.6356,-1.6011,0.0,0.0,0.0,0.0,0.0,0.0,0.0,0.0,0.0,0.0,0.0,0.0,-1.1735,-1.185,-1.1979,-1.206,-1.2311,-1.261,-1.2929,-1.3098,-1.3193,-1.3193,-1.3322,-1.3302,-1.299,-1.3098,-1.3098,-1.2868,-1.2779,-1.2712,-1.2644,-1.2569,-1.2494,-1.2413,-1.2413,-1.2372,-1.2291,-1.2216,-1.2182,-1.2182,-1.2026,-1.1952,-1.1959,-1.2189,-1.2372,-1.2522,-1.2589,-1.2705,-1.2854,-1.2854,-1.2854,-1.2854,-1.2854,-1.2752,-1.2623,-1.2623,-1.2623,-1.261,0.0,0.0,0.0,0.0,0.0,0.0,0.0,0.0,0.0,0.0,0.0,0.0,0.0,0.0,0.0,0.0,0.0,0.0,0.0,0.0,0.0,0.0,0.0,0.0,0.0,0.0,0.0,0.0,0.0,0.0,0.0,0.0,0.0,-1.6014,0.0,0.0,-1.4377,-1.317,-1.2958,-1.3465,-1.3291,-1.3502,-1.387,-1.3447,-1.3321,-1.3374,-1.2936,-1.3289,-1.4051,-1.4504,0.0,0.0,0.0,0.0,-1.6994,-1.633,-1.6358,-1.6454,0.0,0.0,0.0,0.0,0.0,0.0,0.0,0.0,0.0,0.0,0.0,-1.1647,-1.1735,-1.1775,-1.1803,-1.183,-1.2142,-1.2413,-1.2488,-1.2718,-1.2895,-1.2922,-1.2942,-1.2929,-1.2854,-1.2868,-1.2807,-1.263,-1.2494,-1.2372,-1.2257,-1.2128,-1.206,-1.206,-1.206,-1.206,-1.206,-1.2033,-1.202,-1.202,-1.1864,-1.1796,-1.1803,-1.2081,-1.2244,-1.2298,-1.2413,-1.2549,-1.2691,-1.2691,-1.2691,-1.2691,-1.2691,-1.261,-1.2501,-1.2501,-1.2501,-1.2501,0.0,0.0,0.0,0.0,0.0,0.0,0.0,0.0,0.0,0.0,0.0,0.0,0.0,0.0,0.0,0.0,0.0,0.0,0.0,0.0,0.0,0.0,0.0,0.0,0.0,0.0,0.0,0.0,0.0,0.0,0.0,0.0,0.0,0.0,0.0,0.0,0.0,-1.3452,-1.317,-1.3015,-1.3156,-1.3361,-1.3674,-1.3564,-1.3703,-1.3879,-1.3649,-1.3927,-1.445,-1.4553,-1.4833,0.0,0.0,0.0,-1.6812,-1.71,-1.6809,0.0,0.0,0.0,0.0,0.0,0.0,0.0,0.0,0.0,0.0,0.0,-1.1409,-1.1586,-1.147,-1.1558,-1.1687,-1.1809,-1.1884,-1.2054,-1.2447,-1.2535,-1.261,-1.2745,-1.2881,-1.2807,-1.242,-1.2494,-1.2447,-1.2176,-1.2135,-1.2115,-1.2094,-1.2074,-1.206,-1.206,-1.206,-1.206,-1.206,-1.1932,-1.1864,-1.1857,-1.1714,-1.1647,-1.1653,-1.1816,-1.204,-1.2291,-1.2311,-1.24,-1.2528,-1.2528,-1.2528,-1.2528,-1.2528,-1.2522,-1.2501,-1.2501,-1.2501,-1.2501,0.0,0.0,0.0,0.0,0.0,0.0,0.0,0.0,0.0,0.0,0.0,0.0,0.0,0.0,0.0,0.0,0.0,0.0,0.0,0.0,0.0,0.0,0.0,0.0,0.0,0.0,0.0,0.0,0.0,0.0,0.0,-1.8044,-1.7812,0.0,0.0,0.0,0.0,0.0,0.0,-1.3974,-1.3401,-1.375,-1.46,-1.4134,-1.42,-1.4564,-1.4116,-1.4029,-1.418,-1.463,-1.4786,-1.4877,-1.5291,0.0,0.0,0.0,0.0,0.0,0.0,0.0,0.0,0.0,0.0,0.0,0.0,0.0,0.0,-1.0806,-1.1097,-1.1341,-1.1274,-1.1314,-1.1409,-1.1558,-1.1653,-1.1809,-1.2088,-1.2203,-1.2277,-1.2345,-1.2413,-1.2379,-1.2182,-1.2216,-1.2203,-1.2074,-1.1911,-1.1816,-1.1816,-1.1653,-1.1558,-1.1558,-1.164,-1.1647,-1.1558,-1.166,-1.1714,-1.1708,-1.1647,-1.1619,-1.1619,-1.1687,-1.1877,-1.2169,-1.225,-1.2372,-1.2501,-1.2501,-1.2501,-1.2501,-1.2501,-1.2501,-1.2501,-1.2501,-1.2501,-1.2501,0.0,0.0,0.0,0.0,0.0,0.0,0.0,0.0,0.0,0.0,0.0,0.0,0.0,0.0,0.0,0.0,0.0,0.0,0.0,0.0,0.0,0.0,0.0,0.0,0.0,0.0,0.0,0.0,0.0,0.0,-1.8312,-1.9351,-1.9469,0.0,-1.7784,0.0,0.0,0.0,0.0,0.0,0.0,-1.3952,0.0,0.0,-1.4237,-1.4624,-1.4274,-1.4121,-1.4135,-1.4806,0.0,0.0,-1.5012,-1.5586,0.0,0.0,0.0,0.0,0.0,0.0,0.0,0.0,0.0,0.0,0.0,0.0,-1.0541,0.0,-1.0758,-1.1002,-1.1043,-1.1111,-1.1199,-1.1314,-1.1463,-1.1613,-1.1755,-1.1904,-1.202,-1.2054,-1.206,-1.2047,-1.2006,-1.2006,-1.1972,-1.1898,-1.1687,-1.1545,-1.1504,-1.1287,-1.1165,-1.1165,-1.1274,-1.128,-1.1165,-1.1389,-1.1504,-1.1504,-1.1545,-1.1558,-1.1565,-1.1599,-1.1762,-1.2013,-1.2162,-1.2318,-1.2447,-1.2488,-1.2501,-1.2501,-1.2501,-1.2501,-1.2501,-1.2501,-1.2501,-1.2501,0.0,0.0,0.0,0.0,0.0,0.0,0.0,0.0,0.0,0.0,0.0,0.0,0.0,0.0,0.0,0.0,0.0,0.0,0.0,0.0,0.0,0.0,0.0,0.0,0.0,0.0,0.0,0.0,0.0,0.0,-1.9358,-2.0882,-2.1403,-2.0946,-1.9224,-1.792,-1.6977,0.0,0.0,0.0,0.0,0.0,0.0,0.0,0.0,0.0,0.0,0.0,0.0,0.0,0.0,0.0,0.0,0.0,0.0,0.0,0.0,0.0,0.0,0.0,0.0,0.0,0.0,0.0,0.0,0.0,0.0,-1.0432,-1.0514,-1.0568,-1.0717,-1.0975,-1.1165,-1.1172,-1.1301,-1.1457,-1.1606,-1.1755,-1.1898,-1.2047,-1.206,-1.2006,-1.1857,-1.1843,-1.1728,-1.145,-1.1409,-1.1341,-1.1192,-1.1172,-1.1165,-1.1165,-1.1172,-1.1172,-1.1165,-1.1179,-1.1185,-1.1192,-1.1335,-1.1402,-1.1409,-1.1552,-1.1701,-1.185,-1.2006,-1.2162,-1.2311,-1.2447,-1.2501,-1.2501,-1.2501,-1.2501,-1.2501,-1.2501,-1.2501,-1.2501,0.0,0.0,0.0,0.0,0.0,0.0,0.0,0.0,0.0,0.0,0.0,0.0,0.0,0.0,0.0,-1.3854,-1.3318,0.0,0.0,0.0,0.0,0.0,0.0,0.0,0.0,0.0,0.0,0.0,0.0,-1.7759,-1.8912,-1.9943,-2.046,-2.0557,-1.9871,-1.8943,-1.772,-1.5892,0.0,0.0,0.0,0.0,0.0,0.0,0.0,0.0,0.0,0.0,0.0,0.0,0.0,0.0,0.0,0.0,0.0,0.0,0.0,0.0,0.0,0.0,0.0,0.0,0.0,0.0,0.0,-1.1249,-1.074,-1.0005,-1.0154,-1.0399,-1.0548,-1.0738,-1.0914,-1.1009,-1.107,-1.1158,-1.1307,-1.1369,-1.1423,-1.1477,-1.1484,-1.1463,-1.1409,-1.1402,-1.1355,-1.1253,-1.1158,-1.1084,-1.1029,-1.0934,-1.088,-1.088,-1.0975,-1.107,-1.1158,-1.107,-1.107,-1.1165,-1.1219,-1.1294,-1.1396,-1.145,-1.1552,-1.1701,-1.185,-1.206,-1.2284,-1.2237,-1.2277,-1.2366,-1.2366,-1.2366,-1.2379,-1.2467,-1.2501,-1.2501,0.0,0.0,0.0,0.0,0.0,0.0,0.0,0.0,0.0,0.0,0.0,0.0,0.0,0.0,0.0,-1.373,-1.3621,-1.3516,-1.3374,-1.2832,0.0,0.0,0.0,0.0,0.0,0.0,0.0,0.0,0.0,0.0,0.0,0.0,-2.0042,-2.0509,-2.0479,0.0,0.0,0.0,0.0,-1.6325,0.0,0.0,-1.4716,0.0,0.0,0.0,0.0,0.0,0.0,0.0,0.0,0.0,0.0,0.0,0.0,0.0,0.0,0.0,0.0,0.0,0.0,0.0,0.0,0.0,0.0,0.0,-1.0867,-1.0259,-1.0051,-1.0127,-1.0378,-1.0507,-1.0636,-1.0839,-1.0914,-1.0982,-1.1077,-1.1131,-1.1165,-1.1165,-1.1165,-1.1165,-1.1165,-1.1165,-1.1145,-1.1097,-1.1002,-1.0928,-1.0873,-1.0772,-1.0717,-1.0717,-1.0819,-1.0921,-1.1016,-1.0921,-1.0948,-1.109,-1.1138,-1.1246,-1.1396,-1.1443,-1.1525,-1.1626,-1.1721,-1.1904,-1.2135,-1.2081,-1.2121,-1.221,-1.221,-1.221,-1.223,-1.2379,-1.2433,-1.244,0.0,0.0,0.0,0.0,0.0,0.0,0.0,0.0,0.0,0.0,0.0,0.0,0.0,0.0,0.0,-1.4197,-1.452,-1.4401,-1.373,-1.3319,0.0,0.0,0.0,0.0,0.0,0.0,0.0,0.0,0.0,0.0,0.0,0.0,-2.0188,0.0,-2.1016,-2.097,-2.06,0.0,-1.8733,-1.8321,0.0,-1.3971,-1.4643,0.0,0.0,0.0,-1.3777,-1.3635,0.0,-1.3127,0.0,0.0,0.0,0.0,0.0,0.0,0.0,0.0,0.0,0.0,0.0,0.0,0.0,0.0,-1.3975,0.0,-1.0776,-1.1077,-1.0273,-0.972,-1.0175,-1.027,-1.0371,-1.0663,-1.0833,-1.0934,-1.0934,-1.1056,-1.1151,-1.1151,-1.1151,-1.1151,-1.1151,-1.1151,-1.109,-1.0955,-1.0941,-1.0873,-1.0731,-1.0717,-1.0717,-1.0717,-1.0717,-1.0717,-1.0717,-1.0717,-1.0792,-1.0941,-1.1084,-1.1226,-1.1382,-1.1538,-1.1606,-1.1613,-1.1619,-1.1694,-1.1837,-1.1986,-1.2054,-1.2054,-1.2054,-1.206,-1.2081,-1.2237,-1.2291,-1.2318,0.0,0.0,0.0,0.0,0.0,0.0,0.0,0.0,0.0,0.0,0.0,0.0,0.0,0.0,0.0,-1.4567,-1.4687,-1.4332,-1.331,-1.3242,-1.2976,-1.232,-1.2538,0.0,0.0,0.0,0.0,0.0,0.0,0.0,0.0,0.0,0.0,0.0,-2.0914,-2.1197,-2.0752,-1.9486,0.0,0.0,-1.4962,-1.4214,0.0,0.0,0.0,0.0,0.0,-1.4288,-1.3931,0.0,-1.3433,-1.355,0.0,0.0,0.0,0.0,0.0,0.0,-1.6616,0.0,0.0,0.0,0.0,0.0,-1.5292,-1.3899,-1.2335,-1.1089,-1.0379,-1.0017,-0.9813,-0.9971,-1.0175,-1.0371,-1.0521,-1.0616,-1.0616,-1.0744,-1.0839,-1.0839,-1.0839,-1.0839,-1.0839,-1.0839,-1.0826,-1.0785,-1.0785,-1.0765,-1.0724,-1.0717,-1.0717,-1.0717,-1.0717,-1.0717,-1.0717,-1.0717,-1.0744,-1.0785,-1.0826,-1.0921,-1.1077,-1.1219,-1.1348,-1.1457,-1.1572,-1.164,-1.1681,-1.1721,-1.1803,-1.1898,-1.1898,-1.1965,-1.2081,-1.2237,-1.2352,-1.2447,0.0,0.0,0.0,0.0,0.0,0.0,0.0,0.0,0.0,0.0,0.0,0.0,0.0,0.0,0.0,0.0,-1.4941,-1.4691,-1.3736,-1.3608,-1.3329,-1.2743,-1.276,-1.3207,0.0,0.0,0.0,0.0,0.0,0.0,0.0,0.0,0.0,0.0,0.0,0.0,0.0,0.0,0.0,0.0,-1.6034,0.0,0.0,-1.3903,-1.3775,0.0,0.0,0.0,-1.3412,-1.2126,-1.212,0.0,0.0,0.0,0.0,0.0,0.0,0.0,0.0,0.0,0.0,0.0,0.0,0.0,-1.5396,-1.4209,-1.2878,-1.0729,-0.9938,-0.9553,-0.9252,-0.9334,-0.9557,-0.9774,-0.9985,-1.0209,-1.046,-1.0568,-1.0649,-1.0711,-1.0717,-1.0717,-1.0717,-1.0717,-1.0717,-1.0717,-1.0717,-1.0717,-1.0717,-1.0717,-1.0717,-1.0717,-1.0717,-1.0717,-1.0717,-1.0717,-1.0751,-1.0812,-1.0812,-1.0894,-1.1043,-1.1124,-1.1212,-1.1307,-1.1457,-1.1525,-1.1531,-1.1592,-1.1667,-1.1742,-1.1742,-1.183,-1.1986,-1.2142,-1.2284,-1.242,0.0,0.0,0.0,0.0,0.0,0.0,0.0,0.0,0.0,0.0,0.0,0.0,0.0,0.0,0.0,0.0,-1.5235,-1.5245,-1.449,-1.4245,-1.3888,-1.339,-1.3158,-1.3427,-1.4138,0.0,0.0,0.0,0.0,0.0,0.0,0.0,0.0,0.0,0.0,0.0,0.0,0.0,0.0,-2.0262,-1.7653,-1.7073,0.0,0.0,-1.4601,-1.5486,-1.3609,-1.2803,-1.2201,-1.0039,-1.0186,0.0,0.0,0.0,0.0,0.0,-1.5538,0.0,0.0,0.0,0.0,0.0,-1.759,0.0,-1.5084,-1.4122,-1.2988,-1.0646,-0.9703,-0.9226,-0.8933,-0.8885,-0.9103,-0.9391,-0.9592,-0.9882,-1.0337,-1.0446,-1.0521,-1.0656,-1.067,-1.0677,-1.0697,-1.0677,-1.0683,-1.0717,-1.0717,-1.0717,-1.0717,-1.0717,-1.0717,-1.0717,-1.0717,-1.0717,-1.0717,-1.0717,-1.0785,-1.0921,-1.0921,-1.0989,-1.1118,-1.1131,-1.1138,-1.1151,-1.1314,-1.1389,-1.1402,-1.1558,-1.1619,-1.1619,-1.1619,-1.1714,-1.187,-1.2013,-1.2169,-1.2332,-1.2236,0.0,0.0,0.0,0.0,0.0,0.0,0.0,0.0,0.0,0.0,0.0,0.0,0.0,0.0,0.0,0.0,-1.5604,-1.4789,-1.484,-1.4898,-1.4878,-1.5167,-1.5264,-1.5048,-1.5948,0.0,0.0,0.0,0.0,0.0,0.0,0.0,0.0,0.0,0.0,0.0,0.0,0.0,-2.0312,-1.9126,0.0,-1.7203,-1.6163,-1.498,-1.3865,-1.3448,-1.2592,-1.1569,-1.0603,-1.0449,-1.0897,0.0,0.0,0.0,0.0,0.0,0.0,0.0,0.0,0.0,0.0,0.0,0.0,-1.7198,-1.6053,-1.4788,-1.3653,-1.2506,-1.1526,-1.1035,-1.0791,-1.0687,-1.0915,-1.0492,-1.0106,-1.0005,-1.0168,-1.0331,-1.0365,-1.0365,-1.0412,-1.0527,-1.0432,-1.0466,-1.0704,-1.0717,-1.0717,-1.0717,-1.0717,-1.0717,-1.0717,-1.0717,-1.0717,-1.0717,-1.0717,-1.0738,-1.0765,-1.0765,-1.0778,-1.0812,-1.0934,-1.0989,-1.1002,-1.1274,-1.1389,-1.1402,-1.1558,-1.1619,-1.1619,-1.1619,-1.1782,-1.202,-1.2054,-1.223,-1.2467,-1.2318,0.0,0.0,0.0,0.0,0.0,0.0,0.0,0.0,0.0,0.0,0.0,0.0,0.0,0.0,0.0,0.0,0.0,0.0,0.0,-1.5581,-1.5489,-1.5744,-1.5747,-1.5532,-1.6151,-1.6187,0.0,0.0,0.0,0.0,0.0,0.0,0.0,0.0,0.0,0.0,0.0,-2.1691,-2.0992,-1.9734,0.0,-1.73,-1.6227,-1.5372,-1.4452,-1.3115,-1.1316,-0.9527,-0.8901,-0.9575,0.0,0.0,-1.1246,-1.2606,0.0,-1.4235,-1.4287,0.0,0.0,0.0,-1.7939,0.0,0.0,0.0,-1.6305,-1.525,-1.3518,-1.2583,-1.1805,-1.1148,-1.0833,-1.0687,-1.0907,-1.0422,-1.0046,-1.022,-1.0137,-0.9971,-1.0046,-1.012,-1.0195,-1.0263,-1.0276,-1.0371,-1.0588,-1.0609,-1.0636,-1.0717,-1.0717,-1.0683,-1.0609,-1.0677,-1.0683,-1.0609,-1.0683,-1.0717,-1.0717,-1.0717,-1.0717,-1.0724,-1.0799,-1.0833,-1.0853,-1.1145,-1.1274,-1.1294,-1.1525,-1.1619,-1.1619,-1.1619,-1.1755,-1.1952,-1.2033,-1.2203,-1.2406,-1.2365,0.0,0.0,0.0,0.0,0.0,0.0,0.0,0.0,0.0,0.0,0.0,0.0,0.0,0.0,0.0,0.0,0.0,0.0,0.0,0.0,-1.6034,-1.6038,-1.6047,-1.5956,-1.6182,-1.6281,0.0,0.0,0.0,0.0,0.0,0.0,0.0,0.0,0.0,0.0,0.0,0.0,-2.1516,0.0,-1.8982,-1.8159,-1.6696,-1.6019,-1.5504,-1.2543,-0.99,-0.778,-0.7569,-0.8837,-1.0282,-0.9557,-1.1078,0.0,0.0,0.0,0.0,0.0,0.0,0.0,0.0,0.0,-1.7705,0.0,0.0,0.0,-1.3349,-1.258,-1.2106,-1.1409,-1.0979,-1.0761,-1.0886,-1.0391,-1.0151,-1.0724,-1.017,-0.9859,-1.0017,-0.9868,-0.9849,-1.0115,-1.0273,-1.041,-1.0399,-1.0405,-1.0603,-1.0629,-1.0636,-1.0582,-1.0453,-1.0595,-1.0616,-1.0493,-1.0643,-1.0717,-1.0717,-1.0717,-1.0717,-1.0717,-1.0717,-1.0717,-1.0738,-1.1002,-1.1138,-1.1185,-1.1463,-1.1592,-1.1619,-1.1619,-1.1708,-1.185,-1.2006,-1.2155,-1.2311,-1.2113,0.0,0.0,0.0,0.0,0.0,0.0,0.0,0.0,0.0,0.0,0.0,0.0,0.0,0.0,0.0,0.0,0.0,-1.7184,0.0,0.0,-1.7188,-1.7267,-1.7074,-1.6622,-1.7015,-1.681,-1.5955,0.0,0.0,0.0,0.0,0.0,0.0,-1.8539,0.0,0.0,0.0,-2.1204,0.0,-2.0043,-2.0163,0.0,-1.9535,-1.7774,-1.5519,-1.1609,-0.9205,-0.8195,0.0,-0.9724,-1.0046,0.0,-1.1663,-0.9953,-1.4051,0.0,0.0,0.0,0.0,0.0,0.0,-1.7732,0.0,-1.7532,0.0,-1.6421,-1.5897,0.0,-1.4531,-1.4229,0.0,0.0,-1.2541,-1.1938,-1.1384,-1.0997,-1.083,-1.0638,-1.0723,-0.9572,-0.9349,-1.0507,-1.0479,-1.0329,-1.01,-1.035,-1.0419,-1.0324,-1.0331,-1.0324,-1.0304,-1.0439,-1.0507,-1.0493,-1.0643,-1.0717,-1.0717,-1.0717,-1.0717,-1.0717,-1.0717,-1.0717,-1.0731,-1.09,-1.1043,-1.1179,-1.1348,-1.1497,-1.1619,-1.1619,-1.1708,-1.185,-1.2006,-1.2155,-1.2311,-1.1881,0.0,0.0,0.0,0.0,0.0,0.0,0.0,0.0,0.0,0.0,0.0,0.0,0.0,0.0,0.0,0.0,-1.6833,0.0,0.0,0.0,0.0,-1.8046,-1.7831,-1.7466,-1.7555,-1.7492,-1.7273,-1.7382,0.0,0.0,0.0,0.0,0.0,-1.8807,0.0,-2.0143,0.0,-2.0921,0.0,0.0,0.0,0.0,-1.8411,-1.5832,-1.3419,-1.1678,-0.9805,-0.8096,0.0,-0.9476,0.0,0.0,0.0,0.0,0.0,0.0,0.0,0.0,0.0,0.0,0.0,0.0,0.0,-1.746,0.0,-1.686,-1.6668,0.0,0.0,0.0,0.0,0.0,0.0,-1.2088,-1.151,-1.1858,-1.104,-1.038,-1.0587,-1.0032,-0.9808,-0.9905,-0.9688,-0.9456,-0.9517,-0.9731,-0.9882,-0.9998,-1.0181,-1.0243,-1.0148,-1.029,-1.0371,-1.0371,-1.0514,-1.0629,-1.0717,-1.0717,-1.0717,-1.0717,-1.0717,-1.0717,-1.0731,-1.088,-1.0982,-1.1056,-1.1294,-1.143,-1.1497,-1.1586,-1.1653,-1.1735,-1.1972,-1.2101,-1.2189,0.0,0.0,0.0,0.0,0.0,0.0,0.0,0.0,0.0,0.0,0.0,0.0,-1.8209,-1.8268,0.0,0.0,-1.7632,-1.743,0.0,0.0,-1.7494,0.0,0.0,0.0,0.0,-1.7747,-1.7867,-1.8142,0.0,0.0,0.0,0.0,0.0,0.0,0.0,-1.9726,-2.042,0.0,0.0,-2.1492,-2.0032,-1.9713,-1.969,-1.7312,-1.452,-1.195,-1.195,-1.019,-0.7997,-0.8182,-0.9482,-1.0885,-0.9234,-1.0673,-1.2836,0.0,0.0,0.0,-1.3933,0.0,0.0,0.0,0.0,0.0,0.0,0.0,0.0,-1.6562,-1.5973,0.0,0.0,0.0,0.0,0.0,0.0,-1.1757,-1.2336,-1.1383,-1.0682,-1.0886,-1.0663,-1.034,-0.9707,-0.9323,-0.9154,-0.9398,-0.9673,-0.9752,-0.968,-1.0278,-1.0383,-0.9985,-1.0134,-1.0215,-1.0215,-1.0399,-1.0548,-1.0656,-1.0704,-1.0717,-1.0717,-1.0717,-1.0717,-1.0724,-1.0839,-1.0907,-1.0968,-1.1226,-1.1355,-1.1409,-1.1558,-1.164,-1.1708,-1.1965,-1.206,-1.2101,-1.1567,-1.1757,0.0,0.0,0.0,0.0,0.0,0.0,0.0,0.0,0.0,0.0,0.0,0.0,0.0,0.0,0.0,-1.7264,-1.8447,0.0,-1.7235,0.0,0.0,-1.8081,0.0,0.0,-1.7732,-1.7739,0.0,0.0,0.0,0.0,0.0,0.0,0.0,-2.0747,-2.3003,-2.0623,-2.0198,-2.0843,-1.8637,-1.6989,-1.6157,0.0,-1.5345,-1.195,-1.195,0.0,-0.8258,-0.9786,-1.0199,-1.0305,-1.2086,-1.1397,0.0,0.0,0.0,0.0,0.0,0.0,0.0,-1.6148,0.0,0.0,0.0,-1.6774,-1.6451,-1.5962,-1.5574,-1.5251,0.0,0.0,0.0,0.0,0.0,0.0,0.0,-1.2097,-1.2076,-1.185,-1.124,-1.0789,-1.0483,-0.9994,-0.9808,-1.0108,-1.0576,-1.0485,-0.9476,-1.0547,-1.0817,-0.9815,-0.9978,-1.0059,-1.0059,-1.0344,-1.0493,-1.05,-1.0649,-1.0717,-1.0717,-1.0717,-1.0717,-1.0717,-1.0724,-1.0812,-1.0962,-1.1111,-1.126,-1.1409,-1.1558,-1.1701,-1.1843,-1.2006,-1.206,-1.2101,0.0,0.0,0.0,0.0,0.0,0.0,0.0,-1.6471,0.0,0.0,0.0,0.0,0.0,-2.02,-2.0202,0.0,0.0,-1.9111,-1.936,-1.9055,0.0,0.0,0.0,-1.9219,0.0,0.0,0.0,0.0,0.0,0.0,0.0,0.0,0.0,0.0,0.0,-2.1063,0.0,0.0,0.0,0.0,0.0,-1.7646,-1.7523,0.0,-1.5121,-1.3102,-1.2231,-1.0779,-0.9221,-0.8885,-0.949,-1.016,-0.9805,-1.028,-1.0812,-1.0156,-1.0088,-1.0289,-1.0982,-1.0962,-1.1298,-1.3882,-1.4025,-1.4035,-1.5654,-1.6078,-1.5916,-1.5281,-1.505,-1.4803,0.0,0.0,0.0,0.0,0.0,0.0,0.0,-1.1926,-1.155,-1.1547,-1.1327,-1.096,-1.0083,-0.9383,-0.8981,-0.9008,-0.8924,-0.9165,-1.0038,-1.0055,-1.0229,-1.0801,-1.0244,-0.9998,-1.0202,-1.0304,-1.0453,-1.0643,-1.0697,-1.0717,-1.0717,-1.0717,-1.0717,-1.0717,-1.0717,-1.0751,-1.0819,-1.1063,-1.1192,-1.1267,-1.1518,-1.1647,-1.1721,-1.1972,-1.2128,-1.2244,-1.0532,0.0,0.0,0.0,0.0,0.0,0.0,0.0,0.0,0.0,-1.9364,0.0,-2.1379,0.0,-2.1732,0.0,-2.1162,-2.0711,-2.0252,-2.0201,0.0,-1.8877,-1.9733,0.0,0.0,0.0,0.0,0.0,0.0,-1.9659,0.0,0.0,0.0,0.0,0.0,0.0,-2.1616,0.0,-2.0423,0.0,0.0,-1.718,0.0,0.0,-1.5159,-1.39,-1.2478,-1.0779,-0.9114,-0.8336,-0.8692,-0.9361,-0.8364,-0.9091,-1.0137,-0.8977,-0.9076,-0.9624,-1.0109,-0.9665,-0.9756,-1.2427,-1.2554,-1.2484,-1.4467,-1.4939,-1.4788,-1.4212,-1.4322,-1.4304,-1.3226,0.0,0.0,0.0,0.0,0.0,0.0,-1.1912,-1.1501,-1.1328,-1.119,-1.0853,-1.0124,-0.9507,-0.9018,-0.8512,-0.8621,-0.9212,-1.0213,-1.0031,-1.0341,-1.1315,-1.0375,-0.9944,-1.0195,-1.0256,-1.0399,-1.0636,-1.0697,-1.0717,-1.0717,-1.0717,-1.0717,-1.0717,-1.0717,-1.0717,-1.0744,-1.1043,-1.1165,-1.1192,-1.1497,-1.1647,-1.1728,-1.1972,-1.2189,-1.2379,0.0,0.0,0.0,0.0,-1.4182,0.0,0.0,0.0,-1.7662,0.0,-1.9864,-2.0618,-2.1519,-2.2107,-2.2495,-2.2508,-2.2217,-2.1835,-2.1268,-2.1251,0.0,0.0,-1.9598,-1.9212,-1.7469,0.0,0.0,0.0,0.0,0.0,0.0,0.0,0.0,0.0,-2.2567,0.0,-2.2314,-2.0799,-1.9591,-1.8629,-1.6621,-1.5845,-1.5967,-1.5845,-1.5363,-1.4406,-1.2583,-1.0288,-0.8137,-0.8038,-0.8038,-0.8038,-0.8038,-0.8038,-0.8011,-0.7868,-0.7923,-0.8237,-0.9418,-0.9345,-0.9625,-1.1795,-1.1682,-1.1472,-1.3076,-1.3314,-1.3062,-1.2692,-1.3338,-1.3377,-1.1435,0.0,0.0,0.0,0.0,0.0,0.0,0.0,-1.1881,-1.1268,-1.0924,-1.0627,-1.0429,-1.0468,-0.9873,-0.8495,-0.9721,-1.0343,-1.0112,-1.0492,-1.095,-1.138,-1.0361,-0.9897,-1.0059,-1.0215,-1.0365,-1.0507,-1.0649,-1.0717,-1.0717,-1.0717,-1.0717,-1.0717,-1.0717,-1.0724,-1.0751,-1.1043,-1.1165,-1.1206,-1.1504,-1.1708,-1.1864,-1.2013,-1.2257,-1.2501,-1.0684,-1.2055,-1.3427,0.0,-1.4984,-1.5396,0.0,0.0,0.0,0.0,-2.1075,-2.2298,-2.3349,-2.3453,-2.3547,-2.3762,-2.3434,0.0,0.0,0.0,0.0,-2.0172,-2.0729,-2.0366,-1.8786,-1.9521,0.0,-1.8191,0.0,0.0,-1.9907,0.0,0.0,0.0,0.0,0.0,-2.1232,-2.1913,-2.0928,-1.8718,-1.6621,-1.6663,-1.7678,-1.6266,-1.5945,-1.5719,-1.2877,-1.1463,-1.0583,-0.8627,-0.8038,-0.8038,-0.8038,-0.8038,-0.8031,-0.7991,-0.8011,-0.8038,-0.8336,-0.8364,-0.8707,-1.0271,-1.0553,-1.0699,-1.1639,-1.1845,-1.1707,-1.1075,-1.1231,-1.1288,-1.085,-1.1227,0.0,0.0,0.0,0.0,0.0,0.0,-1.0983,-1.0924,-1.0981,-1.1044,-1.1118,-1.0272,-0.9827,-1.0192,-0.922,-0.9591,-1.1796,-1.16,-1.1643,-1.2098,-1.1678,-1.1042,-1.0215,-1.0365,-1.0514,-1.0663,-1.0704,-1.0717,-1.0717,-1.0717,-1.0717,-1.0717,-1.0717,-1.0785,-1.0907,-1.109,-1.1226,-1.1355,-1.1545,-1.1775,-1.202,-1.2176,-1.2345,-1.2501,-1.0541,0.0,0.0,-1.4751,0.0,0.0,-1.6953,-1.7568,0.0,-1.985,-2.0307,0.0,-2.3081,-2.2975,-2.331,-2.4236,-2.4128,0.0,-2.3515,0.0,0.0,-2.1475,-2.134,-2.0726,-1.9343,-1.9338,0.0,-1.839,0.0,0.0,-1.9724,0.0,0.0,0.0,0.0,-2.2685,0.0,-2.1165,-2.0118,-1.8462,-1.6443,-1.6293,0.0,-1.6239,-1.6005,-1.583,-1.2899,-1.156,-1.0779,-0.8726,-0.8038,-0.8038,-0.8038,-0.8038,-0.8038,-0.8038,-0.8038,-0.8038,-0.8038,-0.8038,-0.8158,-0.8937,-0.9152,-0.9377,-1.0171,-1.0263,-1.0247,-0.9937,-1.0205,-1.0305,-0.9537,-1.0334,0.0,0.0,0.0,0.0,0.0,0.0,-1.0719,-1.0891,-1.1057,-1.1301,-1.1662,-1.1011,-1.0341,-0.99,-0.93,-0.9896,-1.1843,-1.1505,-1.1482,-1.2068,-1.1957,-1.1425,-1.0276,-1.0487,-1.0636,-1.0717,-1.0717,-1.0717,-1.0717,-1.0717,-1.0717,-1.0724,-1.0792,-1.0867,-1.0962,-1.1179,-1.1314,-1.1409,-1.1558,-1.1803,-1.2074,-1.2155,-1.2325,-1.2501,0.0,0.0,0.0,0.0,0.0,0.0,0.0,-1.7348,0.0,-1.9365,0.0,-1.8911,-2.1331,-2.151,-2.236,-2.4031,0.0,-2.4309,-2.4162,-2.3687,-2.316,-2.2531,-2.1659,-2.0695,-1.9559,-1.8673,-1.8178,0.0,-1.8466,-1.8786,-1.9353,0.0,0.0,0.0,0.0,0.0,0.0,-1.9611,-1.844,-1.7934,-1.6146,-1.5605,-1.5832,-1.5832,-1.5737,-1.5248,-1.2823,-1.117,-0.9993,-0.8528,-0.8038,-0.8038,-0.8038,-0.8038,-0.8038,-0.8038,-0.8038,-0.8038,-0.8038,-0.8038,-0.8045,-0.8065,-0.8085,-0.8234,-0.8874,-0.9006,-0.8999,-0.8984,-0.9666,-0.9799,-0.8203,-0.9523,-1.0908,0.0,0.0,0.0,-1.0898,-1.0632,0.0,0.0,-1.1016,0.0,-1.1784,-1.1761,-1.0997,-0.9144,-0.9884,-1.0649,-1.131,-1.124,-1.1365,-1.1705,-1.1923,-1.1539,-1.0304,-1.0582,-1.0731,-1.0751,-1.0731,-1.0717,-1.0717,-1.0717,-1.0717,-1.0731,-1.088,-1.0962,-1.0995,-1.1274,-1.1402,-1.1436,-1.1586,-1.1816,-1.206,-1.2088,-1.2264,-1.2501,0.0,0.0,0.0,0.0,0.0,-1.4507,-1.7093,-1.6854,-1.7032,-1.8818,-1.8681,-1.8644,-1.9149,-2.0556,-2.1751,-2.2049,-2.3536,0.0,0.0,0.0,0.0,-2.2795,-2.2257,-2.139,-2.0468,-1.9508,-1.881,-1.8469,-1.8514,-1.8718,-1.9199,-2.0173,0.0,0.0,0.0,0.0,-2.0507,-1.9147,0.0,-1.6803,-1.603,-1.5778,-1.5832,-1.5832,-1.514,-1.4076,-1.2425,-1.1755,-1.117,-0.8825,-0.8038,-0.8038,-0.8038,-0.8038,-0.8038,-0.8038,-0.8038,-0.8038,-0.8038,-0.8038,-0.8072,-0.8201,-0.8316,-0.8411,-0.8543,-0.8654,-0.8619,-0.8501,-0.8385,-0.8329,-0.828,-0.922,-0.9929,-0.9828,-0.9902,-0.986,-0.9489,-0.9306,0.0,0.0,-0.9905,-1.0144,-1.0828,-1.0689,-1.087,-1.155,-1.0732,-1.0935,-1.2523,-1.3212,-1.3065,-1.201,-1.2843,-1.2431,-1.0446,-1.0629,-1.0785,-1.0907,-1.0778,-1.0717,-1.0717,-1.0717,-1.0717,-1.0731,-1.088,-1.1016,-1.1138,-1.1314,-1.1463,-1.1592,-1.1735,-1.1904,-1.2081,-1.2203,-1.2359,-1.2501,0.0,0.0,0.0,0.0,0.0,0.0,0.0,-1.5365,-1.5041,-1.7027,-1.6568,-1.629,-1.726,-1.8969,-2.0391,-2.1452,-2.3426,-2.4516,-2.4222,-2.3928,-2.3434,-2.2659,-2.2218,-2.1577,-2.0695,-1.9307,-1.8714,-1.9027,-1.8091,-1.798,-1.8847,-1.9451,-1.988,-2.006,0.0,-2.0722,0.0,0.0,-1.7461,-1.7204,-1.6026,-1.5698,-1.5832,-1.5832,-1.5045,-1.368,-1.2328,-1.1463,-1.0583,-0.8627,-0.8038,-0.8038,-0.8038,-0.8092,-0.8147,-0.8065,-0.8099,-0.814,-0.8058,-0.8038,-0.8079,-0.8235,-0.8323,-0.8391,-0.8465,-0.8479,-0.8438,-0.8303,-0.8153,-0.8144,-0.8336,-0.8767,-0.9092,-0.9281,-0.9379,-0.9384,-0.9256,-0.8968,-0.9,0.0,0.0,0.0,-1.0273,-1.0587,-1.1057,-1.1728,-1.1095,-1.1182,-1.2447,-1.3086,-1.3183,-1.2597,-1.3076,-1.2693,-1.1381,-1.103,-1.0833,-1.0826,-1.0758,-1.0717,-1.0717,-1.0717,-1.0717,-1.0731,-1.0962,-1.1097,-1.1179,-1.1416,-1.1552,-1.1633,-1.1775,-1.1925,-1.2081,-1.2237,-1.2379,-1.2501,0.0,-1.2457,0.0,0.0,-1.3357,-1.3432,-1.5346,-1.3761,-1.3103,-1.5244,-1.4335,-1.3858,-1.5274,-1.6868,-1.8723,-2.0841,-2.2806,-2.4035,-2.4142,-2.3901,-2.3394,-2.2552,-2.2178,-2.163,-2.0882,-1.8827,-1.8118,-1.891,-1.7136,-1.6924,-1.7948,-1.8485,-1.8879,-1.9106,0.0,0.0,-2.0211,-1.7828,-1.7017,-1.7236,-1.5998,-1.5618,-1.5832,-1.5832,-1.4854,-1.3295,-1.2242,-1.0877,-0.9418,-0.8371,-0.8065,-0.8038,-0.8038,-0.8147,-0.8241,-0.8085,-0.8147,-0.8235,-0.8079,-0.8065,-0.8126,-0.8275,-0.8336,-0.8404,-0.8547,-0.8554,-0.8499,-0.8384,-0.8336,-0.8371,-0.8414,-0.8372,-0.8467,-0.885,-0.886,-0.8862,-0.8928,-0.8687,-0.8629,0.0,0.0,0.0,-0.9539,-1.0284,-1.0842,-1.1178,-1.1279,-1.1575,-1.2288,-1.2669,-1.2861,-1.294,-1.3264,-1.291,-1.1929,-1.1504,-1.1087,-1.0765,-1.0738,-1.0717,-1.0717,-1.0717,-1.0717,-1.0738,-1.1036,-1.1199,-1.128,-1.1518,-1.1619,-1.1633,-1.1775,-1.1925,-1.2081,-1.2237,-1.2379,-1.2501,0.0,0.0,0.0,0.0,0.0,-1.2544,-1.3415,-1.2787,-1.3007,-1.4852,-1.3642,-1.2685,-1.2845,-1.4581,-1.6599,-1.8723,-2.0692,-2.2448,-2.3705,-2.3781,-2.3487,-2.2846,-2.2285,-2.1817,-2.1483,-1.8638,-1.6887,-1.6458,-1.5587,-1.5389,-1.5778,-1.7099,-1.7781,-1.7995,-1.9076,-1.8596,-1.6877,-1.7316,-1.6801,-1.5681,-1.5779,-1.5805,-1.5832,-1.5832,-1.4268,-1.2047,-1.195,-1.0288,-0.8158,-0.8302,-0.8153,-0.8038,-0.8038,-0.8147,-0.8241,-0.8085,-0.8147,-0.8235,-0.8079,-0.814,-0.8282,-0.8425,-0.8567,-0.871,-0.8859,-0.8791,-0.8682,-0.8669,-0.856,-0.8522,-0.8678,-0.8519,-0.8299,-0.8304,-0.8034,-0.7861,-0.7809,-0.778,-0.7793,-0.7866,0.0,0.0,-0.8471,-0.855,-0.924,-1.0708,-1.1527,-1.2181,-1.2778,-1.3076,-1.2937,-1.2323,-1.3709,-1.3383,-1.0876,-1.2098,-1.2096,-1.0928,-1.0785,-1.0717,-1.0717,-1.0717,-1.0717,-1.0738,-1.1036,-1.1321,-1.1579,-1.1606,-1.1619,-1.1633,-1.1775,-1.1925,-1.2081,-1.2237,-1.2379,-1.2501,0.0,0.0,0.0,0.0,0.0,0.0,0.0,-1.3409,-1.3173,-1.5126,-1.3677,-1.2501,-1.2501,-1.4423,-1.6525,-1.8802,-2.0691,-2.2445,-2.417,-2.3968,-2.3064,-2.1346,-2.0811,-1.9857,-1.8376,-1.6545,-1.5555,-1.5237,-1.4999,-1.5074,-1.5427,-1.6186,-1.6918,-1.7492,-1.722,-1.7014,-1.6801,-1.6235,-1.5763,-1.5418,-1.5712,-1.5939,-1.6072,-1.5899,-1.428,-1.2132,-1.1991,-1.0268,-0.8187,-0.8248,-0.8228,-0.8194,-0.8275,-0.835,-0.837,-0.8221,-0.8282,-0.8364,-0.8221,-0.8289,-0.8431,-0.8581,-0.8662,-0.875,-0.8906,-0.8893,-0.8818,-0.873,-0.8587,-0.857,-0.8612,-0.8433,-0.833,-0.8313,-0.811,-0.7896,-0.7746,-0.7651,-0.7526,-0.7325,0.0,-0.7889,-0.77,-0.8436,-0.9152,-0.9696,-1.0526,-1.1577,-1.306,-1.3055,-1.3341,-1.3999,-1.3507,-1.2923,-1.2509,-1.1791,-1.1243,-1.0812,-1.0751,-1.0717,-1.0717,-1.0717,-1.0819,-1.0995,-1.1111,-1.1382,-1.1742,-1.1653,-1.1667,-1.1748,-1.1809,-1.1925,-1.2081,-1.2237,-1.2379,-1.2515,-1.1811,0.0,-1.2489,-1.2745,-1.2805,-1.322,-1.4523,-1.3559,-1.3099,-1.4633,-1.3516,-1.2569,-1.2569,-1.3901,-1.6051,-1.8906,-2.0274,-2.172,-2.3587,-2.3271,-2.2019,-1.9481,-1.9014,-1.7966,-1.6225,-1.4981,-1.4279,-1.3958,-1.3904,-1.3989,-1.4147,-1.5282,-1.6276,-1.696,-1.6096,-1.5974,-1.6514,-1.5531,-1.5257,-1.5538,-1.5752,-1.5952,-1.6126,-1.6005,-1.4412,-1.2363,-1.2173,-1.044,-0.8336,-0.8384,-0.8397,-0.8411,-0.8465,-0.8513,-0.852,-0.8377,-0.8438,-0.852,-0.837,-0.8438,-0.8574,-0.8682,-0.8743,-0.8804,-0.8913,-0.894,-0.8906,-0.8798,-0.8689,-0.8601,-0.856,-0.8465,-0.8357,-0.8221,-0.8147,-0.8024,-0.778,-0.7699,-0.7495,-0.7135,-0.7592,-0.7781,-0.7224,-0.8073,-0.8743,-0.8982,-0.9706,-1.1028,-1.2857,-1.3093,-1.3704,-1.5022,-1.4162,-1.3607,-1.3514,-1.2482,-1.1598,-1.0717,-1.0717,-1.0717,-1.0724,-1.0765,-1.0948,-1.1226,-1.1226,-1.1436,-1.1762,-1.1708,-1.1714,-1.1775,-1.1864,-1.1965,-1.2081,-1.2237,-1.2379,-1.2522,-1.1977,-1.2029,-1.1999,-1.2603,-1.284,-1.2942,-1.2956,-1.2956,-1.2956,-1.2956,-1.282,-1.2725,-1.2725,-1.2732,-1.4499,-1.8749,-1.9027,-1.9722,-2.1464,-2.1502,-2.0241,-1.7592,-1.7137,-1.6803,-1.6591,-1.4431,-1.3046,-1.261,-1.1888,-1.1459,-1.1548,-1.4182,-1.5796,-1.6211,-1.6292,-1.5939,-1.5404,-1.5391,-1.5565,-1.5832,-1.5832,-1.5832,-1.5872,-1.6152,-1.4568,-1.2194,-1.2506,-1.0845,-0.8506,-0.8655,-0.8703,-0.8676,-0.8526,-0.8587,-0.8676,-0.8526,-0.8587,-0.8676,-0.852,-0.8587,-0.871,-0.871,-0.8825,-0.894,-0.894,-0.894,-0.894,-0.894,-0.8933,-0.8886,-0.8737,-0.871,-0.856,-0.8113,-0.8167,-0.8113,-0.7665,-0.7719,-0.7739,-0.756,-0.759,-0.7444,-0.7166,-0.7,-0.7425,-0.8581,-0.9659,-1.0717,-1.2043,-1.3112,-1.3926,-1.4618,-1.6304,-1.5835,-1.2979,-1.4615,-1.3784,-1.0717,-1.0717,-1.0717,-1.0724,-1.0873,-1.1111,-1.1389,-1.1389,-1.1477,-1.1633,-1.1769,-1.1748,-1.1653,-1.1945,-1.206,-1.2081,-1.2237,-1.2379,-1.2522,-1.2422,-1.2615,-1.2664,-1.2854,-1.301,-1.3549,-1.4859,-1.3989,-1.3542,-1.4851,-1.3946,-1.303,-1.303,-1.2847,-1.3922,-1.7057,-1.7056,-1.7851,-1.9801,-1.9584,-1.8269,-1.594,-1.5525,-1.4673,-1.3114,-1.2346,-1.1592,-1.1232,-1.1622,-1.1825,-1.2064,-1.4028,-1.4934,-1.4838,-1.5835,-1.6289,-1.6286,-1.6286,-1.6233,-1.6152,-1.6353,-1.6433,-1.6433,-1.6526,-1.4939,-1.2698,-1.2617,-1.0941,-0.8648,-0.8696,-0.8777,-0.8859,-0.8811,-0.8757,-0.8703,-0.8655,-0.8669,-0.8703,-0.8648,-0.875,-0.8866,-0.8866,-0.8974,-0.9083,-0.9083,-0.9164,-0.9211,-0.9103,-0.9083,-0.9042,-0.8893,-0.8696,-0.8506,-0.8364,-0.8126,-0.7875,-0.7631,-0.755,-0.7387,-0.7128,-0.717,-0.7129,-0.6819,-0.7107,-0.7581,-0.8278,-0.9542,-1.0823,-1.2171,-1.2754,-1.3791,-1.5269,-1.4908,-1.4456,-1.374,-1.3797,-1.275,-1.0724,-1.0826,-1.0928,-1.1023,-1.107,-1.1199,-1.1389,-1.1389,-1.1531,-1.1769,-1.1809,-1.1803,-1.1782,-1.1986,-1.206,-1.2081,-1.2237,-1.2379,-1.2542,-1.282,-1.2935,-1.3044,-1.3044,-1.3159,-1.3711,-1.4885,-1.4001,-1.3704,-1.4885,-1.3951,-1.3173,-1.3173,-1.2963,-1.372,-1.6291,-1.6309,-1.6642,-1.7983,-1.7672,-1.6509,-1.4136,-1.3806,-1.2979,-1.1396,-1.124,-1.0995,-1.0663,-1.1077,-1.1602,-1.225,-1.3015,-1.3805,-1.4745,-1.5568,-1.6354,-1.7021,-1.6914,-1.6767,-1.6607,-1.6673,-1.67,-1.6613,-1.6201,-1.4791,-1.2815,-1.224,-1.0617,-0.8804,-0.8859,-0.894,-0.9028,-0.9089,-0.9042,-0.894,-0.8825,-0.8832,-0.8879,-0.8879,-0.8988,-0.9103,-0.9103,-0.9171,-0.9239,-0.9239,-0.9313,-0.9354,-0.9259,-0.9191,-0.9123,-0.9035,-0.8771,-0.8547,-0.8492,-0.8153,-0.7828,-0.7631,-0.7468,-0.7389,-0.7204,-0.7224,-0.7238,-0.7142,-0.743,-0.7722,-0.7995,-0.9351,-1.0442,-1.1237,-1.2268,-1.3614,-1.5441,-1.5053,-1.4719,-1.4479,-1.4285,-1.2946,-1.0724,-1.0873,-1.1056,-1.1246,-1.1246,-1.1335,-1.1477,-1.1477,-1.1579,-1.1755,-1.1809,-1.1796,-1.1769,-1.1918,-1.2013,-1.2074,-1.2169,-1.2332,-1.2549,-1.3024,-1.3119,-1.3207,-1.3214,-1.3342,-1.3437,-1.3417,-1.3424,-1.3424,-1.3403,-1.3275,-1.3186,-1.3186,-1.3071,-1.3901,-1.6131,-1.6316,-1.6132,-1.5956,-1.5929,-1.4661,-1.223,-1.1925,-1.1708,-1.1416,-1.1246,-1.109,-1.0934,-1.0365,-1.0725,-1.1856,-1.1339,-1.2646,-1.5384,-1.5263,-1.6123,-1.7516,-1.7355,-1.7235,-1.7194,-1.6927,-1.682,-1.6619,-1.5542,-1.4162,-1.2713,-1.1511,-1.017,-0.8988,-0.9123,-0.9171,-0.9191,-0.9334,-0.9381,-0.9327,-0.9049,-0.9062,-0.9171,-0.9171,-0.9273,-0.9381,-0.9381,-0.9388,-0.9401,-0.9408,-0.9408,-0.9408,-0.9401,-0.9286,-0.9178,-0.9157,-0.8913,-0.8662,-0.8506,-0.8214,-0.7916,-0.7651,-0.7475,-0.7464,-0.7654,-0.7609,-0.7705,-0.7893,-0.7835,-0.7834,-0.7855,-0.9135,-0.9853,-0.9534,-1.1463,-1.3357,-1.4955,-1.6203,-1.6275,-1.4903,-1.5573,-1.411,-1.0751,-1.0907,-1.1131,-1.1409,-1.1409,-1.1484,-1.1619,-1.1619,-1.1619,-1.1633,-1.1775,-1.1748,-1.1633,-1.1796,-1.1945,-1.206,-1.2088,-1.2264,-1.2549,-1.3614,-1.3573,-1.3553,-1.3661,-1.381,-1.3838,-1.3607,-1.3668,-1.3654,-1.3431,-1.337,-1.3349,-1.3349,-1.3315,-1.3487,-1.4045,-1.3965,-1.3792,-1.3749,-1.3598,-1.3141,-1.2081,-1.2026,-1.187,-1.1572,-1.1301,-1.1036,-1.0772,-1.0514,-1.0376,-1.0479,-1.1431,-1.2087,-1.2606,-1.4921,-1.6121,-1.6563,-1.7746,-1.8036,-1.7849,-1.8009,-1.7929,-1.7543,-1.6272,-1.4922,-1.3476,-1.1959,-1.0516,-0.9279,-0.9313,-0.9327,-0.9334,-0.9367,-0.9381,-0.9367,-0.9293,-0.93,-0.9327,-0.9327,-0.9354,-0.9381,-0.9381,-0.9469,-0.9585,-0.9693,-0.972,-0.9686,-0.9578,-0.953,-0.9429,-0.9198,-0.8913,-0.8662,-0.8506,-0.8045,-0.7719,-0.7753,-0.7536,-0.7414,-0.7622,-0.7672,-0.776,-0.7856,-0.7896,-0.8179,-0.8925,-0.9152,-0.9439,-0.9602,-1.0425,-1.1593,-1.3408,-1.4845,-1.4931,-1.3361,-1.501,-1.4253,-1.1056,-1.1212,-1.1382,-1.1565,-1.1565,-1.1586,-1.1619,-1.1619,-1.1619,-1.1633,-1.1775,-1.1748,-1.1653,-1.2033,-1.2135,-1.2088,-1.2318,-1.244,-1.2549,-1.3824,-1.3777,-1.3749,-1.3824,-1.3912,-1.3912,-1.3749,-1.3736,-1.3688,-1.3526,-1.3444,-1.3403,-1.3403,-1.3403,-1.3403,-1.3403,-1.3254,-1.3105,-1.2969,-1.2881,-1.2603,-1.2088,-1.206,-1.1925,-1.1626,-1.1389,-1.1124,-1.0826,-1.067,-1.048,-1.0249,-1.0959,-1.1476,-1.2039,-1.3577,-1.516,-1.6539,-1.7239,-1.7441,-1.7302,-1.734,-1.6796,-1.5888,-1.4558,-1.3468,-1.2566,-1.1085,-1.0062,-0.9395,-0.9462,-0.9483,-0.951,-0.9646,-0.9639,-0.9612,-0.9754,-0.9646,-0.9483,-0.9483,-0.953,-0.9585,-0.9585,-0.9646,-0.9727,-0.9802,-0.9822,-0.9802,-0.972,-0.9652,-0.9537,-0.93,-0.896,-0.8635,-0.8418,-0.8103,-0.7801,-0.7712,-0.767,-0.7771,-0.7875,-0.7977,-0.8099,-0.8309,-0.8459,-0.8666,-0.9012,-0.9161,-0.9241,-0.9261,-0.9681,-1.0763,-1.2496,-1.4461,-1.4962,-1.4061,-1.4614,-1.3637,-1.1267,-1.1348,-1.147,-1.1619,-1.1619,-1.1619,-1.1619,-1.1619,-1.1653,-1.1721,-1.1796,-1.183,-1.1843,-1.2094,-1.2176,-1.2182,-1.2345,-1.2447,-1.2549,-1.3905,-1.3892,-1.3885,-1.3905,-1.3912,-1.3905,-1.3878,-1.3749,-1.3654,-1.3634,-1.3498,-1.3403,-1.3403,-1.3403,-1.339,-1.337,-1.3363,-1.3254,-1.2976,-1.2915,-1.2657,-1.2121,-1.2074,-1.1932,-1.166,-1.1457,-1.1226,-1.0948,-1.0799,-1.0643,-1.0487,-1.0371,-1.098,-1.2044,-1.2222,-1.3813,-1.629,-1.6275,-1.6172,-1.616,-1.5943,-1.5058,-1.368,-1.2197,-1.162,-1.1397,-1.0018,-0.9449,-0.9469,-0.9625,-0.968,-0.9727,-0.9998,-0.9998,-0.9944,-1.0202,-1.0012,-0.9707,-0.968,-0.9768,-0.9849,-0.9829,-0.9836,-0.9849,-0.9829,-0.9836,-0.9856,-0.9856,-0.9761,-0.9625,-0.9449,-0.9049,-0.8662,-0.8411,-0.8258,-0.7994,-0.774,-0.7882,-0.8111,-0.8357,-0.8364,-0.856,-0.8967,-0.9137,-0.9137,-0.8927,-0.9225,-0.9279,-0.8967,-0.9544,-1.0443,-1.1749,-1.407,-1.5228,-1.5179,-1.4157,-1.2901,-1.1389,-1.1416,-1.1491,-1.1619,-1.1619,-1.1619,-1.1619,-1.1619,-1.1701,-1.183,-1.183,-1.1925,-1.206,-1.2088,-1.2176,-1.2291,-1.2318,-1.2413,-1.2576,-1.4211,-1.4122,-1.4075,-1.4204,-1.4231,-1.4183,-1.4055,-1.3905,-1.3763,-1.3648,-1.3498,-1.3403,-1.3403,-1.3403,-1.3349,-1.322,-1.3207,-1.3139,-1.2969,-1.2718,-1.2474,-1.2264,-1.2128,-1.1979,-1.1803,-1.1402,-1.1118,-1.0948,-1.0799,-1.0643,-1.0493,-1.0466,-1.0507,-1.0742,-1.1805,-1.2699,-1.317,-1.4401,-1.4903,-1.4903,-1.4862,-1.4734,-1.4262,-1.272,-1.2124,-1.1885,-1.035,-0.9754,-0.9774,-0.993,-0.9978,-1.0012,-1.0188,-1.0229,-1.0215,-1.0263,-1.0229,-1.0148,-1.0019,-0.9998,-0.9985,-0.9849,-0.9917,-0.9978,-0.9849,-0.9924,-1.0012,-1.0012,-0.9998,-0.9897,-0.9625,-0.9205,-0.8776,-0.8394,-0.8051,-0.7838,-0.7885,-0.7925,-0.8092,-0.8411,-0.8784,-0.9096,-0.9293,-0.9449,-0.9625,-0.9829,-0.9673,-0.9713,-1.0019,-1.0148,-1.0376,-1.0728,-1.2475,-1.3578,-1.3776,-1.4019,-1.3129,-1.1396,-1.1525,-1.1599,-1.1619,-1.1619,-1.1619,-1.1619,-1.1619,-1.1701,-1.183,-1.183,-1.1925,-1.2074,-1.2203,-1.2271,-1.2305,-1.2427,-1.2562,-1.2718,-1.4292,-1.4245,-1.4217,-1.4285,-1.4299,-1.4278,-1.4204,-1.3994,-1.3817,-1.3749,-1.3546,-1.3403,-1.3403,-1.3403,-1.337,-1.3302,-1.3152,-1.303,-1.2963,-1.2752,-1.2522,-1.2298,-1.2223,-1.2074,-1.1837,-1.1389,-1.1131,-1.1063,-1.0833,-1.0683,-1.0616,-1.0527,-1.046,-1.0385,-1.0987,-1.1783,-1.2631,-1.3179,-1.3453,-1.3444,-1.3333,-1.2808,-1.1976,-1.114,-1.0899,-1.0778,-1.0058,-0.9876,-0.9958,-1.0025,-1.0107,-1.0202,-1.0344,-1.0344,-1.031,-1.0473,-1.0405,-1.0263,-1.0195,-1.0175,-1.0154,-1.0086,-1.012,-1.0154,-1.0086,-1.012,-1.0175,-1.0175,-1.0107,-0.9985,-0.9768,-0.9293,-0.883,-0.8712,-0.837,-0.8158,-0.8223,-0.837,-0.8556,-0.8913,-0.9225,-0.9523,-0.9836,-0.993,-0.9992,-1.0046,-0.9998,-1.0025,-1.0148,-1.031,-1.0426,-1.0487,-1.337,-1.4581,-1.3763,-1.4996,-1.4348,-1.1633,-1.1782,-1.1816,-1.1735,-1.1816,-1.1769,-1.1626,-1.1789,-1.1898,-1.1965,-1.2047,-1.2162,-1.2305,-1.2379,-1.2406,-1.2413,-1.2474,-1.2596,-1.2752,-1.4319,-1.4306,-1.4299,-1.4299,-1.4299,-1.4299,-1.4299,-1.4068,-1.3878,-1.3844,-1.3614,-1.3444,-1.3403,-1.3403,-1.339,-1.3349,-1.3112,-1.2942,-1.2908,-1.2766,-1.2576,-1.2352,-1.2277,-1.2108,-1.1837,-1.1389,-1.1165,-1.1165,-1.0867,-1.0717,-1.0717,-1.0602,-1.0548,-1.0541,-1.0392,-1.1082,-1.2194,-1.2025,-1.1953,-1.1937,-1.1752,-1.0982,-0.9924,-0.989,-0.9897,-0.9924,-0.9924,-1.0005,-1.0107,-1.0141,-1.0229,-1.0351,-1.05,-1.0473,-1.0426,-1.0656,-1.0561,-1.0378,-1.0337,-1.0331,-1.0324,-1.029,-1.0304,-1.0324,-1.029,-1.0304,-1.0331,-1.0331,-1.0236,-1.0107,-0.9958,-0.9469,-0.899,-0.9024,-0.8742,-0.8564,-0.8588,-0.8824,-0.9113,-0.9422,-0.9652,-0.9917,-1.029,-1.0365,-1.0331,-1.0215,-1.0317,-1.0331,-1.0209,-1.0419,-1.0575,-1.0643,-1.4042,-1.5036,-1.3464,-1.5502,-1.4854,-1.183,-1.1986,-1.1999,-1.1884,-1.2006,-1.1938,-1.1735,-1.1965,-1.2081,-1.2121,-1.2244,-1.2372,-1.2501,-1.2501,-1.2501,-1.2501,-1.2501,-1.2623,-1.28,-1.4353,-1.4319,-1.4299,-1.4299,-1.4299,-1.4299,-1.4299,-1.4163,-1.4,-1.3858,-1.3709,-1.3559,-1.3417,-1.3403,-1.3342,-1.32,-1.3051,-1.2901,-1.2759,-1.2603,-1.2508,-1.2488,-1.2223,-1.1999,-1.1837,-1.1389,-1.1165,-1.1165,-1.0867,-1.0717,-1.0717,-1.0711,-1.0704,-1.0697,-1.0548,-1.0603,-1.0596,-1.0452,-1.039,-1.0503,-1.0218,-1.0239,-1.0229,-1.0086,-1.012,-1.0249,-1.0249,-1.0256,-1.0283,-1.0412,-1.0466,-1.05,-1.0656,-1.0697,-1.069,-1.0711,-1.0704,-1.0656,-1.0514,-1.0473,-1.0446,-1.0317,-1.0378,-1.0439,-1.031,-1.0385,-1.0473,-1.0473,-1.0466,-1.0419,-1.0276,-0.9869,-0.9486,-0.9252,-0.903,-0.891,-0.8987,-0.9285,-0.9435,-0.9747,-1.0053,-1.0297,-1.046,-1.0602,-1.0683,-1.067,-1.0683,-1.0683,-1.067,-1.069,-1.0833,-1.1104,-1.3175,-1.3279,-1.1664,-1.381,-1.3841,-1.183,-1.1986,-1.2054,-1.2047,-1.2054,-1.2047,-1.2033,-1.2054,-1.2142,-1.2277,-1.2284,-1.2372,-1.2501,-1.2501,-1.2501,-1.2501,-1.2501,-1.2691,-1.2942,-1.3084,-1.434,-1.4326,-1.4306,-1.4299,-1.4299,-1.4299,-1.417,-1.4048,-1.3994,-1.3777,-1.3607,-1.3546,-1.3458,-1.3376,-1.3322,-1.3098,-1.2935,-1.2874,-1.2637,-1.2461,-1.2372,-1.2176,-1.1986,-1.1837,-1.1484,-1.126,-1.1165,-1.0962,-1.0812,-1.0717,-1.0717,-1.0717,-1.0717,-1.0656,-1.0636,-1.0622,-1.0473,-1.0412,-1.0399,-1.0249,-1.0229,-1.0276,-1.0215,-1.0229,-1.0283,-1.0283,-1.0337,-1.0419,-1.0473,-1.0555,-1.0643,-1.0704,-1.0717,-1.0717,-1.0717,-1.0717,-1.0731,-1.0765,-1.0704,-1.0622,-1.0568,-1.0595,-1.0622,-1.0568,-1.0595,-1.0636,-1.0636,-1.0561,-1.0473,-1.0419,-1.0046,-0.9822,-0.9942,-0.9486,-0.9367,-0.9694,-0.9627,-0.9768,-1.0073,-1.029,-1.0473,-1.0616,-1.0772,-1.086,-1.086,-1.0941,-1.0995,-1.0995,-1.0995,-1.1043,-1.1158,-1.2042,-1.2215,-1.166,-1.3853,-1.4034,-1.2115,-1.2264,-1.2291,-1.2203,-1.2291,-1.2237,-1.2074,-1.2257,-1.2318,-1.2298,-1.2386,-1.2454,-1.2501,-1.2501,-1.2562,-1.263,-1.2535,-1.2752,-1.3078,-0.8579,-1.2183,-1.4346,-1.4319,-1.4306,-1.4299,-1.4299,-1.4211,-1.4129,-1.4082,-1.3892,-1.3729,-1.3641,-1.3539,-1.3451,-1.3403,-1.3132,-1.2963,-1.2963,-1.2671,-1.2461,-1.2359,-1.2169,-1.2013,-1.1904,-1.1565,-1.1341,-1.1233,-1.1043,-1.0894,-1.0792,-1.0744,-1.0717,-1.0717,-1.0717,-1.0717,-1.0711,-1.0609,-1.0561,-1.0555,-1.0405,-1.0378,-1.0412,-1.0365,-1.0378,-1.0419,-1.0419,-1.048,-1.0561,-1.0561,-1.0636,-1.0717,-1.0717,-1.0751,-1.0799,-1.0846,-1.086,-1.088,-1.0989,-1.0941,-1.0846,-1.0806,-1.0792,-1.0778,-1.0731,-1.0717,-1.0717,-1.0717,-1.0636,-1.0561,-1.0561,-1.027,-1.0107,-1.0324,-0.9971,-0.9795,-1.0154,-1.0114,-1.0141,-1.0392,-1.0507,-1.0622,-1.0778,-1.0887,-1.0968,-1.1016,-1.1104,-1.1165,-1.1165,-1.1206,-1.1233,-1.1233,-1.1572,-1.1803,-1.1904,-1.3491,-1.3635,-1.2291,-1.2433,-1.2447,-1.2359,-1.2461,-1.2393,-1.221,-1.2413,-1.2447,-1.2366,-1.2515,-1.2549,-1.2508,-1.261,-1.2678,-1.2725,-1.2664,-1.2868,-1.3159,0.0,-0.7684,-1.4169,-1.4353,-1.4319,-1.4299,-1.4299,-1.4299,-1.4245,-1.4095,-1.4075,-1.396,-1.3661,-1.3627,-1.3566,-1.3417,-1.3132,-1.2963,-1.2963,-1.2671,-1.2501,-1.2501,-1.2223,-1.206,-1.206,-1.1619,-1.1396,-1.1389,-1.1097,-1.0948,-1.0948,-1.0792,-1.0724,-1.0717,-1.0717,-1.0717,-1.0717,-1.0717,-1.0717,-1.0704,-1.0555,-1.0582,-1.0704,-1.0555,-1.0588,-1.0717,-1.0717,-1.0717,-1.0717,-1.0724,-1.0724,-1.0717,-1.0724,-1.0826,-1.0982,-1.1124,-1.1165,-1.1165,-1.1165,-1.1165,-1.1131,-1.0989,-1.0948,-1.0907,-1.0758,-1.0724,-1.0724,-1.0724,-1.0724,-1.0724,-1.0724,-1.0602,-1.0507,-1.0411,-1.029,-1.0236,-1.039,-1.0411,-1.0457,-1.0711,-1.0724,-1.0785,-1.0934,-1.0955,-1.1009,-1.1151,-1.1165,-1.1165,-1.1165,-1.1307,-1.1396,-1.1396,-1.183,-1.206,-1.206,-1.2216,-1.2291,-1.2291,-1.2433,-1.2501,-1.2501,-1.2501,-1.2501,-1.2501,-1.2501,-1.2501,-1.2515,-1.2664,-1.2637,-1.2535,-1.284,-1.2868,-1.2752,-1.2901,-1.3051,-1.3173,0.0,-0.2323,-0.6433,-1.3084,-1.434,-1.4326,-1.4306,-1.4299,-1.4285,-1.4238,-1.4136,-1.4,-1.3797,-1.3688,-1.358,-1.3444,-1.3234,-1.3024,-1.2813,-1.261,-1.2501,-1.2501,-1.2325,-1.2121,-1.1904,-1.1769,-1.1599,-1.1389,-1.1301,-1.1151,-1.0948,-1.09,-1.0826,-1.0717,-1.0717,-1.0717,-1.0717,-1.0717,-1.0717,-1.0717,-1.067,-1.0677,-1.0717,-1.067,-1.0677,-1.0717,-1.0717,-1.0717,-1.0738,-1.0846,-1.0812,-1.0738,-1.0846,-1.0982,-1.1104,-1.1151,-1.1165,-1.1185,-1.1294,-1.1321,-1.1287,-1.1138,-1.1097,-1.1084,-1.1043,-1.1029,-1.1029,-1.1029,-1.1029,-1.1029,-1.1029,-1.0995,-1.0968,-1.0975,-1.0867,-1.0792,-1.0685,-1.0839,-1.086,-1.088,-1.0968,-1.105,-1.1097,-1.1199,-1.1274,-1.1321,-1.1423,-1.1436,-1.1328,-1.147,-1.1552,-1.1552,-1.1884,-1.2115,-1.2223,-1.2366,-1.244,-1.244,-1.2481,-1.2556,-1.2664,-1.2664,-1.2664,-1.2664,-1.2664,-1.2603,-1.2508,-1.2549,-1.2603,-1.2671,-1.2759,-1.2901,-1.3037,-1.2983,-1.3119,-1.3315,0.0,0.0,-0.1788,-0.7684,-1.1816,-1.4346,-1.4326,-1.4306,-1.4299,-1.4299,-1.4217,-1.4109,-1.3966,-1.381,-1.3675,-1.3398,-1.3349,-1.3112,-1.2695,-1.2594,-1.2671,-1.2596,-1.2508,-1.2325,-1.202,-1.1952,-1.1803,-1.1565,-1.1511,-1.1362,-1.1118,-1.1002,-1.09,-1.0806,-1.0744,-1.0717,-1.0717,-1.0717,-1.0717,-1.0717,-1.0717,-1.0717,-1.0717,-1.0717,-1.0717,-1.0731,-1.0785,-1.0812,-1.0833,-1.0982,-1.0968,-1.0921,-1.1077,-1.1185,-1.128,-1.1409,-1.1302,-1.1335,-1.1489,-1.1529,-1.1633,-1.147,-1.1341,-1.124,-1.1179,-1.1165,-1.1165,-1.1165,-1.1165,-1.1165,-1.1165,-1.1165,-1.1165,-1.1185,-1.1131,-1.1084,-1.107,-1.1077,-1.1077,-1.1056,-1.1118,-1.1185,-1.1246,-1.1335,-1.1416,-1.1477,-1.1565,-1.1606,-1.1565,-1.1653,-1.1728,-1.1796,-1.2026,-1.2196,-1.2291,-1.2433,-1.2501,-1.2501,-1.2562,-1.2637,-1.2732,-1.2793,-1.282,-1.282,-1.2759,-1.2678,-1.2596,-1.2657,-1.2705,-1.2745,-1.2929,-1.3064,-1.3166,-1.3146,-1.3247,-1.339,0.0,0.0,0.0,0.0,-0.7149,-1.3268,-1.4175,-1.4326,-1.4306,-1.4306,-1.4299,-1.4251,-1.3954,-1.3953,-1.364,-1.3396,-1.2605,-1.2206,-1.2379,-1.2688,-1.2769,-1.2759,-1.2739,-1.2603,-1.2338,-1.2169,-1.2006,-1.1857,-1.1714,-1.1565,-1.1409,-1.1124,-1.0982,-1.0962,-1.0806,-1.0751,-1.0758,-1.0731,-1.0724,-1.0738,-1.0724,-1.0731,-1.0744,-1.0744,-1.0751,-1.0778,-1.0914,-1.0968,-1.0989,-1.1118,-1.1179,-1.1226,-1.1348,-1.1409,-1.1491,-1.1497,-1.1289,-1.1174,-1.1463,-1.1802,-1.1918,-1.1891,-1.1647,-1.1409,-1.126,-1.1233,-1.1246,-1.1246,-1.1246,-1.1246,-1.1246,-1.1233,-1.1233,-1.1267,-1.1267,-1.1267,-1.1267,-1.1267,-1.1253,-1.124,-1.1212,-1.126,-1.1396,-1.1409,-1.1477,-1.1626,-1.164,-1.1701,-1.1843,-1.185,-1.1925,-1.2081,-1.2216,-1.2305,-1.2332,-1.2461,-1.2522,-1.2522,-1.2664,-1.2745,-1.2773,-1.2915,-1.2983,-1.2969,-1.2834,-1.2759,-1.2759,-1.2901,-1.2888,-1.2807,-1.322,-1.3302,-1.3207,-1.3349,-1.3403,-1.3403,0.0,0.0,0.0,0.0,-0.1788,-0.5722,-1.3115,-1.436,-1.434,-1.434,-1.4319,-1.4251,-1.3954,-1.398,-1.3851,-1.3429,-0.7034,-0.4772,-0.9509,-1.1745,-1.2983,-1.2915,-1.2793,-1.2698,-1.2637,-1.2379,-1.2176,-1.1898,-1.1898,-1.1748,-1.1592,-1.1409,-1.1392,-1.1111,-1.0962,-1.0962,-1.105,-1.0819,-1.0785,-1.0887,-1.0765,-1.0792,-1.09,-1.09,-1.0968,-1.107,-1.1104,-1.1118,-1.1124,-1.1151,-1.1321,-1.1504,-1.1416,-1.1422,-1.1491,-1.1563,-0.9398,-0.736,-0.8585,-1.0421,-1.2101,-1.2026,-1.1965,-1.1877,-1.1721,-1.1782,-1.1864,-1.1864,-1.1864,-1.1864,-1.1864,-1.1769,-1.1687,-1.1694,-1.1525,-1.153,-1.1241,-1.1389,-1.153,-1.1375,-1.1463,-1.1531,-1.1565,-1.1572,-1.1633,-1.1775,-1.1782,-1.185,-1.2006,-1.2013,-1.2081,-1.2237,-1.2271,-1.24,-1.263,-1.2664,-1.2678,-1.2678,-1.2712,-1.2854,-1.3078,-1.3112,-1.3125,-1.3125,-1.3091,-1.3017,-1.2915,-1.2949,-1.301,-1.3085,-1.3186,-1.3275,-1.3356,-1.339,-1.3403,-1.3437,0.0,0.0,0.0,0.0,0.0,-0.161,-0.6624,-0.9487,-1.1638,-1.3991,-1.4333,-1.4299,-1.4238,-1.4095,-1.3767,-1.3449,-0.5219,-0.1331,-0.4477,-1.0097,-1.32,-1.3253,-1.2996,-1.2908,-1.284,-1.2617,-1.2406,-1.2059,-1.206,-1.1007,-0.8946,-1.0662,-1.1523,-1.1427,-1.1124,-1.109,-1.1151,-1.0995,-1.0975,-1.1043,-1.0962,-1.0982,-1.105,-1.105,-1.1097,-1.1172,-1.1246,-1.1362,-1.147,-1.1402,-1.1579,-1.1803,-1.1647,-1.163,-1.1399,-0.9334,-0.8648,-0.8407,-0.7506,-0.9687,-1.2318,-1.2203,-1.2223,-1.221,-1.1993,-1.2006,-1.206,-1.206,-1.206,-1.206,-1.206,-1.1993,-1.1938,-1.1938,-1.183,-1.1721,-1.1516,-1.1721,-1.1721,-1.1429,-1.1583,-1.1703,-1.183,-1.183,-1.1864,-1.1938,-1.1938,-1.2006,-1.2162,-1.2169,-1.2237,-1.2386,-1.2461,-1.2576,-1.2725,-1.28,-1.2874,-1.2942,-1.2942,-1.3024,-1.3173,-1.3247,-1.3281,-1.3275,-1.3207,-1.3132,-1.3064,-1.3064,-1.3105,-1.318,-1.3254,-1.3329,-1.3403,-1.3403,-1.3403,-1.3431,0.0,0.0,0.0,0.0,0.0,0.0,0.0,-0.3396,-0.7684,-1.2361,-1.3807,-1.4353,-1.4353,-1.2777,-1.1552,-1.1185,-0.4244,0.0,0.0,-0.7725,-1.258,-1.3439,-1.3207,-1.3119,-1.3003,-1.2854,-1.2501,-1.2253,-1.1605,-0.9035,-0.4914,-0.8863,-1.0928,-1.164,-1.1294,-1.1212,-1.124,-1.1185,-1.1179,-1.1199,-1.1172,-1.1179,-1.1199,-1.1199,-1.1233,-1.1294,-1.1423,-1.1626,-1.1809,-1.1667,-1.1796,-1.1999,-1.1877,-1.1831,-1.1258,-0.7816,-0.8184,-0.9331,-0.7812,-0.9901,-1.2589,-1.2379,-1.2433,-1.2474,-1.223,-1.2155,-1.2135,-1.2135,-1.2135,-1.2135,-1.2135,-1.2115,-1.2101,-1.2101,-1.2094,-1.1904,-1.1663,-1.1904,-1.2047,-1.1803,-1.1817,-1.1938,-1.2067,-1.206,-1.2074,-1.2101,-1.2101,-1.2176,-1.2352,-1.2366,-1.2433,-1.2576,-1.2705,-1.2779,-1.2807,-1.2935,-1.3071,-1.3214,-1.3214,-1.3214,-1.3214,-1.3342,-1.3403,-1.3397,-1.3268,-1.3214,-1.3214,-1.3214,-1.3214,-1.322,-1.3349,-1.3403,-1.3403,-1.3403,-1.3403,-1.3424,0.0,0.0,0.0,0.0,0.0,0.0,0.0,-0.0537,-0.268,-0.7506,-1.1638,-1.4353,-1.4353,-0.6901,-0.1922,-0.1886,-0.0684,0.0,0.0,-0.4693,-0.9388,-1.3251,-1.3261,-1.3166,-1.3146,-1.2869,-1.2735,-1.243,-0.8842,-0.4897,-0.0917,-0.4768,-0.8401,-1.1657,-1.1497,-1.1436,-1.1538,-1.1274,-1.124,-1.1348,-1.1212,-1.124,-1.1362,-1.1362,-1.1518,-1.1742,-1.1762,-1.1796,-1.1809,-1.1667,-1.1728,-1.1864,-1.1724,-1.1782,-1.2026,-1.1428,-0.6678,-0.2975,-0.9869,-1.2351,-1.2903,-1.2528,-1.2589,-1.2684,-1.2651,-1.2535,-1.244,-1.244,-1.244,-1.244,-1.244,-1.2338,-1.2257,-1.2257,-1.2149,-1.2067,-1.2074,-1.1945,-1.1945,-1.2054,-1.206,-1.2067,-1.206,-1.206,-1.2115,-1.225,-1.2257,-1.2379,-1.2657,-1.2671,-1.2739,-1.2895,-1.2922,-1.299,-1.3112,-1.3132,-1.322,-1.337,-1.337,-1.337,-1.337,-1.339,-1.3403,-1.3397,-1.3376,-1.337,-1.337,-1.337,-1.337,-1.337,-1.339,-1.3403,-1.3403,-1.3403,-1.3403,-1.3424,0.0,0.0,0.0,0.0,0.0,0.0,0.0,0.0,-0.2688,-1.0233,-1.2955,-1.4216,-1.4353,-0.8144,-0.2982,-0.0174,0.0,0.0,0.0,-0.1862,-0.6074,-1.3144,-1.3383,-1.3322,-1.3302,-1.3023,-1.1739,-0.9181,-0.9615,-0.6358,-0.0,-0.1812,-0.5816,-1.1603,-1.159,-1.1502,-1.1613,-1.1477,-1.1457,-1.1511,-1.1443,-1.1504,-1.164,-1.164,-1.1769,-1.1959,-1.1959,-1.2013,-1.2067,-1.1918,-1.202,-1.2196,-1.1992,-1.0479,-0.9433,-1.1823,-1.0177,-0.8335,-1.1842,-1.302,-1.3054,-1.2786,-1.2807,-1.2834,-1.2752,-1.2745,-1.2732,-1.2651,-1.263,-1.263,-1.263,-1.2576,-1.2535,-1.2535,-1.2406,-1.2291,-1.2388,-1.2305,-1.2206,-1.2352,-1.2325,-1.2311,-1.2311,-1.2386,-1.2427,-1.2413,-1.2488,-1.2589,-1.2725,-1.2813,-1.2888,-1.2963,-1.3037,-1.3112,-1.3173,-1.3254,-1.3336,-1.3403,-1.3403,-1.3403,-1.3403,-1.3403,-1.3403,-1.3403,-1.3403,-1.3403,-1.3403,-1.3403,-1.3403,-1.3403,-1.3403,-1.3403,-1.3403,-1.3403,-1.3403,-1.341]}]]